<?xml version='1.0' encoding='UTF-8'?><gpx version="1.1" creator="JPX - https://github.com/jenetics/jpx" xmlns="http://www.topografix.com/GPX/1/1"><trk><trkseg><trkpt lat="42.659937590620565" lon="11.981128793482606"><ele>458.0</ele><time>2026-04-18T06:29:50Z</time></trkpt><trkpt lat="42.65994846782819" lon="11.981042078393715"><ele>457.99999999999994</ele><time>2026-04-18T06:29:56Z</time></trkpt><trkpt lat="42.66005481551757" lon="11.980878584395413"><ele>457.99999999999994</ele><time>2026-04-18T06:32:53.02Z</time></trkpt><trkpt lat="42.65999259188948" lon="11.980996878855013"><ele>458.0</ele><time>2026-04-18T06:33:27.998Z</time></trkpt><trkpt lat="42.65994233614164" lon="11.98106211338565"><ele>458.0</ele><time>2026-04-18T06:33:34.998Z</time></trkpt><trkpt lat="42.659916416931544" lon="11.981152680519907"><ele>458.0</ele><time>2026-04-18T06:33:41Z</time></trkpt><trkpt lat="42.659890350003394" lon="11.981252097053817"><ele>458.0</ele><time>2026-04-18T06:33:46Z</time></trkpt><trkpt lat="42.659883820916555" lon="11.981342570931972"><ele>458.0</ele><time>2026-04-18T06:33:52Z</time></trkpt><trkpt lat="42.659879148541634" lon="11.981448832505855"><ele>458.0</ele><time>2026-04-18T06:33:58Z</time></trkpt><trkpt lat="42.65987332595778" lon="11.981535523696634"><ele>458.0</ele><time>2026-04-18T06:34:04Z</time></trkpt><trkpt lat="42.65987136441735" lon="11.981636576002375"><ele>458.0</ele><time>2026-04-18T06:34:09Z</time></trkpt><trkpt lat="42.65984313595389" lon="11.981557075936182"><ele>458.0</ele><time>2026-04-18T06:41:55.999Z</time></trkpt><trkpt lat="42.659859773435635" lon="11.981468144224804"><ele>458.0</ele><time>2026-04-18T06:42:01.999Z</time></trkpt><trkpt lat="42.65986001212666" lon="11.981378743267866"><ele>457.99999999999994</ele><time>2026-04-18T06:42:06Z</time></trkpt><trkpt lat="42.6598716015996" lon="11.981277633444384"><ele>457.99999999999994</ele><time>2026-04-18T06:42:11Z</time></trkpt><trkpt lat="42.65987576161052" lon="11.981179042460086"><ele>458.0</ele><time>2026-04-18T06:42:17Z</time></trkpt><trkpt lat="42.659812525034745" lon="11.981223742816729"><ele>458.0</ele><time>2026-04-18T06:42:26Z</time></trkpt><trkpt lat="42.65993170567669" lon="11.981037767375053"><ele>457.99999999999994</ele><time>2026-04-18T06:43:07.999Z</time></trkpt><trkpt lat="42.65987225270193" lon="11.981114237084808"><ele>458.0</ele><time>2026-04-18T06:43:08.999Z</time></trkpt><trkpt lat="42.6598227258204" lon="11.98117793814547"><ele>458.0</ele><time>2026-04-18T06:43:10.999Z</time></trkpt><trkpt lat="42.65992625009583" lon="11.981171362506798"><ele>458.0</ele><time>2026-04-18T06:45:17.999Z</time></trkpt><trkpt lat="42.660005262859045" lon="11.981278835730384"><ele>457.99999999999994</ele><time>2026-04-18T06:45:20.999Z</time></trkpt><trkpt lat="42.66007779685498" lon="11.981315114733478"><ele>458.0</ele><time>2026-04-18T06:45:22.999Z</time></trkpt><trkpt lat="42.660091898701076" lon="11.981420132668802"><ele>457.99999999999994</ele><time>2026-04-18T06:45:25.999Z</time></trkpt><trkpt lat="42.660056222684155" lon="11.981513991953957"><ele>458.0</ele><time>2026-04-18T06:45:27.999Z</time></trkpt><trkpt lat="42.66003973096556" lon="11.981645563359457"><ele>458.0</ele><time>2026-04-18T06:45:30.999Z</time></trkpt><trkpt lat="42.659972956496034" lon="11.981672176961474"><ele>458.0</ele><time>2026-04-18T06:45:33.999Z</time></trkpt><trkpt lat="42.659910712014536" lon="11.981593468632365"><ele>457.99999999999994</ele><time>2026-04-18T06:45:35.999Z</time></trkpt><trkpt lat="42.65986182522617" lon="11.981507991765795"><ele>458.0</ele><time>2026-04-18T06:45:38.999Z</time></trkpt><trkpt lat="42.659805950565776" lon="11.981565334732457"><ele>457.99999999999994</ele><time>2026-04-18T06:45:41.999Z</time></trkpt><trkpt lat="42.659870413709264" lon="11.981607457429119"><ele>458.0</ele><time>2026-04-18T06:45:44.999Z</time></trkpt><trkpt lat="42.65994612015229" lon="11.981630053823656"><ele>458.0</ele><time>2026-04-18T06:55:46Z</time></trkpt><trkpt lat="42.66001245266827" lon="11.98167484757966"><ele>458.0</ele><time>2026-04-18T06:55:48Z</time></trkpt><trkpt lat="42.66005021598096" lon="11.981564514771069"><ele>457.99999999999994</ele><time>2026-04-18T06:55:51Z</time></trkpt><trkpt lat="42.66009423246395" lon="11.98145927350208"><ele>458.0</ele><time>2026-04-18T06:55:53Z</time></trkpt><trkpt lat="42.66011147973406" lon="11.981371191590219"><ele>458.0</ele><time>2026-04-18T06:55:55Z</time></trkpt><trkpt lat="42.66006748979793" lon="11.981297395187712"><ele>458.0</ele><time>2026-04-18T06:55:58Z</time></trkpt><trkpt lat="42.660011615068726" lon="11.981246939316298"><ele>458.0</ele><time>2026-04-18T06:56:01Z</time></trkpt><trkpt lat="42.659951455921465" lon="11.981199033695145"><ele>458.0</ele><time>2026-04-18T06:56:05Z</time></trkpt><trkpt lat="42.65992234217238" lon="11.981114311828087"><ele>458.0</ele><time>2026-04-18T06:57:20Z</time></trkpt><trkpt lat="42.6598674728653" lon="11.981159400336312"><ele>458.0</ele><time>2026-04-18T06:57:27Z</time></trkpt><trkpt lat="42.65993554624668" lon="11.981185777894886"><ele>458.0</ele><time>2026-04-18T06:57:34Z</time></trkpt><trkpt lat="42.66002133350258" lon="11.981230039876618"><ele>457.99999999999994</ele><time>2026-04-18T06:57:37Z</time></trkpt><trkpt lat="42.660074182305095" lon="11.9812928681263"><ele>458.0</ele><time>2026-04-18T06:57:39Z</time></trkpt><trkpt lat="42.66009382079358" lon="11.981384922217226"><ele>458.0</ele><time>2026-04-18T06:57:41Z</time></trkpt><trkpt lat="42.66007135785611" lon="11.98147952188807"><ele>458.0</ele><time>2026-04-18T06:57:43Z</time></trkpt><trkpt lat="42.6600221578625" lon="11.981654628986849"><ele>457.99999999999994</ele><time>2026-04-18T06:57:45Z</time></trkpt><trkpt lat="42.660003878463314" lon="11.981736996762285"><ele>458.0</ele><time>2026-04-18T06:57:46Z</time></trkpt><trkpt lat="42.65998400858968" lon="11.981822613391651"><ele>458.59999999999997</ele><time>2026-04-18T06:57:47Z</time></trkpt><trkpt lat="42.65996396295527" lon="11.981911306584205"><ele>459.19999999999993</ele><time>2026-04-18T06:57:48Z</time></trkpt><trkpt lat="42.65994347633731" lon="11.982000004488082"><ele>459.8</ele><time>2026-04-18T06:57:49Z</time></trkpt><trkpt lat="42.6599046799596" lon="11.982159933755685"><ele>460.4</ele><time>2026-04-18T06:57:51Z</time></trkpt><trkpt lat="42.65985505677085" lon="11.982305366703189"><ele>461.0</ele><time>2026-04-18T06:57:53Z</time></trkpt><trkpt lat="42.65982921047447" lon="11.982465404005838"><ele>458.8</ele><time>2026-04-18T06:57:55Z</time></trkpt><trkpt lat="42.65979255331021" lon="11.98260370356624"><ele>456.6</ele><time>2026-04-18T06:57:57Z</time></trkpt><trkpt lat="42.65976428653149" lon="11.98268186277203"><ele>454.4</ele><time>2026-04-18T06:57:59Z</time></trkpt><trkpt lat="42.65961031262647" lon="11.982624282358458"><ele>452.2</ele><time>2026-04-18T06:58:01Z</time></trkpt><trkpt lat="42.65953902501355" lon="11.98260607105534"><ele>450.0</ele><time>2026-04-18T06:58:02Z</time></trkpt><trkpt lat="42.659455887537625" lon="11.982582680839622"><ele>450.8333333333333</ele><time>2026-04-18T06:58:03Z</time></trkpt><trkpt lat="42.65937584936024" lon="11.98257167692977"><ele>451.66666666666663</ele><time>2026-04-18T06:58:04Z</time></trkpt><trkpt lat="42.65929120244436" lon="11.982554262519852"><ele>452.5</ele><time>2026-04-18T06:58:05Z</time></trkpt><trkpt lat="42.659213376216925" lon="11.982522625428379"><ele>453.3333333333333</ele><time>2026-04-18T06:58:06Z</time></trkpt><trkpt lat="42.65914600803335" lon="11.982493694646042"><ele>454.16666666666663</ele><time>2026-04-18T06:58:07Z</time></trkpt><trkpt lat="42.65907520989983" lon="11.982467008090456"><ele>455.0</ele><time>2026-04-18T06:58:08Z</time></trkpt><trkpt lat="42.659005144278964" lon="11.982444860092379"><ele>455.0</ele><time>2026-04-18T06:58:09Z</time></trkpt><trkpt lat="42.65892793210123" lon="11.982429122795297"><ele>455.0</ele><time>2026-04-18T06:58:10Z</time></trkpt><trkpt lat="42.65883037591939" lon="11.98243291627964"><ele>455.0</ele><time>2026-04-18T06:58:11Z</time></trkpt><trkpt lat="42.65873091753156" lon="11.982451005019325"><ele>455.0</ele><time>2026-04-18T06:58:12Z</time></trkpt><trkpt lat="42.65863974245132" lon="11.98247816254715"><ele>455.0</ele><time>2026-04-18T06:58:13Z</time></trkpt><trkpt lat="42.65856186021968" lon="11.98251599294214"><ele>453.3333333333333</ele><time>2026-04-18T06:58:14Z</time></trkpt><trkpt lat="42.658473429157226" lon="11.982567636244235"><ele>451.66666666666663</ele><time>2026-04-18T06:58:15Z</time></trkpt><trkpt lat="42.65837700654609" lon="11.982605796310311"><ele>450.0</ele><time>2026-04-18T06:58:16Z</time></trkpt><trkpt lat="42.6582870227987" lon="11.98262352154279"><ele>448.33333333333337</ele><time>2026-04-18T06:58:17Z</time></trkpt><trkpt lat="42.65820674737101" lon="11.982628258970129"><ele>446.6666666666667</ele><time>2026-04-18T06:58:18Z</time></trkpt><trkpt lat="42.6581306312113" lon="11.982629570259764"><ele>445.0</ele><time>2026-04-18T06:58:19Z</time></trkpt><trkpt lat="42.65804689792811" lon="11.982605526639462"><ele>445.00000000000006</ele><time>2026-04-18T06:58:20Z</time></trkpt><trkpt lat="42.657961708121405" lon="11.982620251793593"><ele>445.0</ele><time>2026-04-18T06:58:21Z</time></trkpt><trkpt lat="42.65788913858981" lon="11.982611375639033"><ele>445.0</ele><time>2026-04-18T06:58:22Z</time></trkpt><trkpt lat="42.657822550993046" lon="11.982624728933112"><ele>445.0</ele><time>2026-04-18T06:58:23Z</time></trkpt><trkpt lat="42.65775947677722" lon="11.982649320242665"><ele>445.00000000000006</ele><time>2026-04-18T06:58:24Z</time></trkpt><trkpt lat="42.65764872994095" lon="11.98271434509065"><ele>445.0</ele><time>2026-04-18T06:58:26Z</time></trkpt><trkpt lat="42.657579417704454" lon="11.98275878916277"><ele>446.00000000000006</ele><time>2026-04-18T06:58:27Z</time></trkpt><trkpt lat="42.65750892392397" lon="11.98282504531158"><ele>447.0</ele><time>2026-04-18T06:58:28Z</time></trkpt><trkpt lat="42.65743444336164" lon="11.982883667540564"><ele>448.0</ele><time>2026-04-18T06:58:29Z</time></trkpt><trkpt lat="42.65737159189322" lon="11.982959896307527"><ele>449.0</ele><time>2026-04-18T06:58:30Z</time></trkpt><trkpt lat="42.65731362082831" lon="11.98302565143827"><ele>450.00000000000006</ele><time>2026-04-18T06:58:31Z</time></trkpt><trkpt lat="42.65725144752637" lon="11.983083407908127"><ele>451.0</ele><time>2026-04-18T06:58:32Z</time></trkpt><trkpt lat="42.65718129271775" lon="11.983165301222938"><ele>451.0</ele><time>2026-04-18T06:58:33Z</time></trkpt><trkpt lat="42.65708684217381" lon="11.983260387706261"><ele>451.0</ele><time>2026-04-18T06:58:34Z</time></trkpt><trkpt lat="42.65700182539307" lon="11.983332885585673"><ele>451.0</ele><time>2026-04-18T06:58:35Z</time></trkpt><trkpt lat="42.656921947066174" lon="11.983389203705606"><ele>451.0</ele><time>2026-04-18T06:58:36Z</time></trkpt><trkpt lat="42.656852922954045" lon="11.98343933405683"><ele>451.0</ele><time>2026-04-18T06:58:37Z</time></trkpt><trkpt lat="42.65677813670028" lon="11.983488968495253"><ele>450.00000000000006</ele><time>2026-04-18T06:58:38Z</time></trkpt><trkpt lat="42.65670368551762" lon="11.983535061404199"><ele>449.0</ele><time>2026-04-18T06:58:39Z</time></trkpt><trkpt lat="42.65663567201388" lon="11.98359128110688"><ele>448.0</ele><time>2026-04-18T06:58:40Z</time></trkpt><trkpt lat="42.656560818363154" lon="11.983640122494805"><ele>447.0</ele><time>2026-04-18T06:58:41Z</time></trkpt><trkpt lat="42.656483384414365" lon="11.983683808574046"><ele>446.00000000000006</ele><time>2026-04-18T06:58:42Z</time></trkpt><trkpt lat="42.65640580384373" lon="11.983733571606065"><ele>445.0</ele><time>2026-04-18T06:58:43Z</time></trkpt><trkpt lat="42.65632723310778" lon="11.983774586033382"><ele>445.00000000000006</ele><time>2026-04-18T06:58:44Z</time></trkpt><trkpt lat="42.65625490763191" lon="11.983821077065494"><ele>445.0</ele><time>2026-04-18T06:58:45Z</time></trkpt><trkpt lat="42.65617217953257" lon="11.98386327437902"><ele>445.0</ele><time>2026-04-18T06:58:46Z</time></trkpt><trkpt lat="42.656087902331045" lon="11.983911392094356"><ele>445.0</ele><time>2026-04-18T06:58:47Z</time></trkpt><trkpt lat="42.656003088288884" lon="11.983965374734975"><ele>445.00000000000006</ele><time>2026-04-18T06:58:48Z</time></trkpt><trkpt lat="42.65592930398819" lon="11.98403371035339"><ele>445.0</ele><time>2026-04-18T06:58:49Z</time></trkpt><trkpt lat="42.65586552495053" lon="11.984105236811185"><ele>444.33333333333337</ele><time>2026-04-18T06:58:50Z</time></trkpt><trkpt lat="42.65580247721816" lon="11.984174976854293"><ele>443.6666666666667</ele><time>2026-04-18T06:58:50.999Z</time></trkpt><trkpt lat="42.6557346235919" lon="11.984235704541122"><ele>443.0</ele><time>2026-04-18T06:58:51.999Z</time></trkpt><trkpt lat="42.655666946666315" lon="11.984273338038829"><ele>442.33333333333337</ele><time>2026-04-18T06:58:52.999Z</time></trkpt><trkpt lat="42.655560592001" lon="11.984336873262727"><ele>441.6666666666667</ele><time>2026-04-18T06:58:54.999Z</time></trkpt><trkpt lat="42.655487553724406" lon="11.98435247894891"><ele>441.0</ele><time>2026-04-18T06:58:55.999Z</time></trkpt><trkpt lat="42.65541067150583" lon="11.9843232917377"><ele>440.3333333333333</ele><time>2026-04-18T06:58:56.999Z</time></trkpt><trkpt lat="42.65532453457567" lon="11.984312725998521"><ele>439.66666666666663</ele><time>2026-04-18T06:58:57.999Z</time></trkpt><trkpt lat="42.65523644766665" lon="11.984324455384638"><ele>439.0</ele><time>2026-04-18T06:58:58.999Z</time></trkpt><trkpt lat="42.65514854078632" lon="11.984300815500077"><ele>438.3333333333333</ele><time>2026-04-18T06:58:59.999Z</time></trkpt><trkpt lat="42.655063953772824" lon="11.984293575341056"><ele>437.66666666666663</ele><time>2026-04-18T06:59:00.999Z</time></trkpt><trkpt lat="42.65498271511266" lon="11.98428521037186"><ele>437.0</ele><time>2026-04-18T06:59:01.999Z</time></trkpt><trkpt lat="42.65490227489676" lon="11.98426277653651"><ele>435.3333333333333</ele><time>2026-04-18T06:59:02.999Z</time></trkpt><trkpt lat="42.654826052601045" lon="11.984258739277548"><ele>433.66666666666663</ele><time>2026-04-18T06:59:03.999Z</time></trkpt><trkpt lat="42.65475842880128" lon="11.984267938265484"><ele>432.0</ele><time>2026-04-18T06:59:04.999Z</time></trkpt><trkpt lat="42.6546430709553" lon="11.984313863130385"><ele>430.33333333333337</ele><time>2026-04-18T06:59:07Z</time></trkpt><trkpt lat="42.65458571788416" lon="11.984391987785832"><ele>428.6666666666667</ele><time>2026-04-18T06:59:08Z</time></trkpt><trkpt lat="42.654538309066716" lon="11.98448074063164"><ele>427.0</ele><time>2026-04-18T06:59:09Z</time></trkpt><trkpt lat="42.654493574918554" lon="11.984564570279463"><ele>424.83333333333337</ele><time>2026-04-18T06:59:10Z</time></trkpt><trkpt lat="42.65443779791125" lon="11.984632588173397"><ele>422.6666666666667</ele><time>2026-04-18T06:59:11Z</time></trkpt><trkpt lat="42.654367389052446" lon="11.984687840095072"><ele>420.5</ele><time>2026-04-18T06:59:12Z</time></trkpt><trkpt lat="42.65427913180491" lon="11.984724081200895"><ele>418.33333333333337</ele><time>2026-04-18T06:59:13Z</time></trkpt><trkpt lat="42.65420111569749" lon="11.984791802421986"><ele>416.1666666666667</ele><time>2026-04-18T06:59:14Z</time></trkpt><trkpt lat="42.65411438948276" lon="11.9848204926922"><ele>414.0</ele><time>2026-04-18T06:59:15Z</time></trkpt><trkpt lat="42.65402409048732" lon="11.984880848329526"><ele>414.0</ele><time>2026-04-18T06:59:16Z</time></trkpt><trkpt lat="42.65393989035359" lon="11.9849321666717"><ele>414.0</ele><time>2026-04-18T06:59:17Z</time></trkpt><trkpt lat="42.65386088700834" lon="11.984987337676957"><ele>414.0</ele><time>2026-04-18T06:59:18Z</time></trkpt><trkpt lat="42.653784612090114" lon="11.985032869107293"><ele>414.0</ele><time>2026-04-18T06:59:19Z</time></trkpt><trkpt lat="42.653710659934255" lon="11.985067409335938"><ele>414.0</ele><time>2026-04-18T06:59:20Z</time></trkpt><trkpt lat="42.65362131219329" lon="11.985108199863495"><ele>414.0</ele><time>2026-04-18T06:59:21Z</time></trkpt><trkpt lat="42.65352548381045" lon="11.985130540131724"><ele>410.79999999999995</ele><time>2026-04-18T06:59:22Z</time></trkpt><trkpt lat="42.65342088142871" lon="11.985149788830196"><ele>407.59999999999997</ele><time>2026-04-18T06:59:23Z</time></trkpt><trkpt lat="42.653346522751214" lon="11.985200034073513"><ele>404.4</ele><time>2026-04-18T06:59:24Z</time></trkpt><trkpt lat="42.65327234323495" lon="11.985280873280521"><ele>401.2</ele><time>2026-04-18T06:59:25Z</time></trkpt><trkpt lat="42.65318929102329" lon="11.985331639954463"><ele>398.0</ele><time>2026-04-18T06:59:26Z</time></trkpt><trkpt lat="42.65311399510334" lon="11.985390103560459"><ele>397.99999999999994</ele><time>2026-04-18T06:59:27Z</time></trkpt><trkpt lat="42.65303031995516" lon="11.985451569843962"><ele>398.0</ele><time>2026-04-18T06:59:28Z</time></trkpt><trkpt lat="42.652945826212495" lon="11.985508771461133"><ele>398.0</ele><time>2026-04-18T06:59:29Z</time></trkpt><trkpt lat="42.6528726643141" lon="11.98555198033695"><ele>398.0</ele><time>2026-04-18T06:59:30Z</time></trkpt><trkpt lat="42.65279829730349" lon="11.985578787227782"><ele>397.99999999999994</ele><time>2026-04-18T06:59:31Z</time></trkpt><trkpt lat="42.652720015130086" lon="11.985585359113637"><ele>398.0</ele><time>2026-04-18T06:59:32Z</time></trkpt><trkpt lat="42.65265801706062" lon="11.985544871148155"><ele>397.4</ele><time>2026-04-18T06:59:33Z</time></trkpt><trkpt lat="42.65259578317229" lon="11.985516819764127"><ele>396.79999999999995</ele><time>2026-04-18T06:59:34Z</time></trkpt><trkpt lat="42.65255906903283" lon="11.985413975355279"><ele>396.2</ele><time>2026-04-18T06:59:35Z</time></trkpt><trkpt lat="42.65250221216018" lon="11.985285060036924"><ele>395.6</ele><time>2026-04-18T06:59:36Z</time></trkpt><trkpt lat="42.652435350697914" lon="11.9851543729479"><ele>395.0</ele><time>2026-04-18T06:59:37Z</time></trkpt><trkpt lat="42.652379761359285" lon="11.985054021875786"><ele>396.16666666666663</ele><time>2026-04-18T06:59:38Z</time></trkpt><trkpt lat="42.652310040085865" lon="11.98498342134361"><ele>397.3333333333333</ele><time>2026-04-18T06:59:39Z</time></trkpt><trkpt lat="42.65226028185155" lon="11.984903596510772"><ele>398.5</ele><time>2026-04-18T06:59:40Z</time></trkpt><trkpt lat="42.65221934893356" lon="11.984817866258723"><ele>399.66666666666663</ele><time>2026-04-18T06:59:41Z</time></trkpt><trkpt lat="42.652177472683675" lon="11.984729065965933"><ele>400.8333333333333</ele><time>2026-04-18T06:59:42Z</time></trkpt><trkpt lat="42.65214956859643" lon="11.984625160964244"><ele>402.0</ele><time>2026-04-18T06:59:43Z</time></trkpt><trkpt lat="42.652150490712096" lon="11.984512303615531"><ele>402.0</ele><time>2026-04-18T06:59:44Z</time></trkpt><trkpt lat="42.652073530688035" lon="11.984324058808431"><ele>402.0</ele><time>2026-04-18T06:59:46Z</time></trkpt><trkpt lat="42.65202001112902" lon="11.984242668587179"><ele>402.0</ele><time>2026-04-18T06:59:47Z</time></trkpt><trkpt lat="42.65196487086117" lon="11.984180447786816"><ele>402.0</ele><time>2026-04-18T06:59:48Z</time></trkpt><trkpt lat="42.651853239695505" lon="11.984172939097459"><ele>402.0</ele><time>2026-04-18T06:59:50Z</time></trkpt><trkpt lat="42.65178916461272" lon="11.984207815976747"><ele>398.0</ele><time>2026-04-18T06:59:52Z</time></trkpt><trkpt lat="42.65180309309947" lon="11.984110571035808"><ele>394.0</ele><time>2026-04-18T06:59:54Z</time></trkpt><trkpt lat="42.65178253361438" lon="11.984021595245721"><ele>390.0</ele><time>2026-04-18T06:59:55Z</time></trkpt><trkpt lat="42.651743070750236" lon="11.983913858295127"><ele>386.0</ele><time>2026-04-18T06:59:56Z</time></trkpt><trkpt lat="42.65173158678912" lon="11.983826672405296"><ele>382.0</ele><time>2026-04-18T06:59:57Z</time></trkpt><trkpt lat="42.65170982720713" lon="11.983703808551114"><ele>378.0</ele><time>2026-04-18T07:00:00Z</time></trkpt><trkpt lat="42.651800540555996" lon="11.983648630949311"><ele>378.0</ele><time>2026-04-18T07:00:01Z</time></trkpt><trkpt lat="42.65185944070509" lon="11.983557897028136"><ele>378.0</ele><time>2026-04-18T07:00:02Z</time></trkpt><trkpt lat="42.65191565603103" lon="11.983437142343952"><ele>378.0</ele><time>2026-04-18T07:00:03Z</time></trkpt><trkpt lat="42.65200516363859" lon="11.98331125882075"><ele>378.0</ele><time>2026-04-18T07:00:04Z</time></trkpt><trkpt lat="42.65210535921944" lon="11.983187213936015"><ele>381.75</ele><time>2026-04-18T07:00:05Z</time></trkpt><trkpt lat="42.65221569992876" lon="11.983061520572535"><ele>385.5</ele><time>2026-04-18T07:00:05.999Z</time></trkpt><trkpt lat="42.65232280070996" lon="11.982938651661353"><ele>389.25</ele><time>2026-04-18T07:00:06.999Z</time></trkpt><trkpt lat="42.652436962422065" lon="11.98282212860849"><ele>393.0</ele><time>2026-04-18T07:00:07.999Z</time></trkpt><trkpt lat="42.65254063395223" lon="11.982708027718271"><ele>393.0</ele><time>2026-04-18T07:00:08.999Z</time></trkpt><trkpt lat="42.6526358477941" lon="11.982605904642623"><ele>393.0</ele><time>2026-04-18T07:00:09.999Z</time></trkpt><trkpt lat="42.65272103460917" lon="11.982516901118137"><ele>393.0</ele><time>2026-04-18T07:00:10.999Z</time></trkpt><trkpt lat="42.65280123108352" lon="11.982426796190992"><ele>393.0</ele><time>2026-04-18T07:00:11.999Z</time></trkpt><trkpt lat="42.65287630077005" lon="11.982344283022208"><ele>393.0</ele><time>2026-04-18T07:00:12.999Z</time></trkpt><trkpt lat="42.652948347556254" lon="11.982263895865634"><ele>394.0</ele><time>2026-04-18T07:00:13.999Z</time></trkpt><trkpt lat="42.65301891050705" lon="11.982186420887963"><ele>395.0</ele><time>2026-04-18T07:00:14.999Z</time></trkpt><trkpt lat="42.65308962856376" lon="11.9821118846749"><ele>396.0</ele><time>2026-04-18T07:00:15.999Z</time></trkpt><trkpt lat="42.653161426653476" lon="11.982040115729417"><ele>397.0</ele><time>2026-04-18T07:00:16.999Z</time></trkpt><trkpt lat="42.653226718899305" lon="11.981972234913831"><ele>398.0</ele><time>2026-04-18T07:00:17.999Z</time></trkpt><trkpt lat="42.65329141945634" lon="11.9819025128407"><ele>399.0</ele><time>2026-04-18T07:00:18.999Z</time></trkpt><trkpt lat="42.65336033359484" lon="11.981836366651681"><ele>399.0</ele><time>2026-04-18T07:00:19.999Z</time></trkpt><trkpt lat="42.6534309996308" lon="11.981776024286336"><ele>399.0</ele><time>2026-04-18T07:00:20.999Z</time></trkpt><trkpt lat="42.65350290759272" lon="11.98171975233657"><ele>399.0</ele><time>2026-04-18T07:00:21.999Z</time></trkpt><trkpt lat="42.65357763507669" lon="11.981664567334564"><ele>399.0</ele><time>2026-04-18T07:00:22.999Z</time></trkpt><trkpt lat="42.65365977492795" lon="11.981634627507873"><ele>399.0</ele><time>2026-04-18T07:00:23.999Z</time></trkpt><trkpt lat="42.653745315903336" lon="11.981582465443624"><ele>399.0</ele><time>2026-04-18T07:00:24.999Z</time></trkpt><trkpt lat="42.65383417661961" lon="11.981518894824008"><ele>398.5</ele><time>2026-04-18T07:00:25.999Z</time></trkpt><trkpt lat="42.653918911633916" lon="11.981455013305665"><ele>398.0</ele><time>2026-04-18T07:00:26.999Z</time></trkpt><trkpt lat="42.65398984141173" lon="11.98137971158841"><ele>397.5</ele><time>2026-04-18T07:00:27.999Z</time></trkpt><trkpt lat="42.65406408766157" lon="11.981336574017746"><ele>397.0</ele><time>2026-04-18T07:00:28.999Z</time></trkpt><trkpt lat="42.65413338721623" lon="11.98127785894863"><ele>396.5</ele><time>2026-04-18T07:00:29.999Z</time></trkpt><trkpt lat="42.65420722939912" lon="11.981225457760061"><ele>396.0</ele><time>2026-04-18T07:00:30.999Z</time></trkpt><trkpt lat="42.65428972211895" lon="11.981179275340999"><ele>396.0</ele><time>2026-04-18T07:00:31.999Z</time></trkpt><trkpt lat="42.65437090673949" lon="11.981117095500071"><ele>396.0</ele><time>2026-04-18T07:00:32.999Z</time></trkpt><trkpt lat="42.6544522691139" lon="11.981068475577377"><ele>396.0</ele><time>2026-04-18T07:00:33.999Z</time></trkpt><trkpt lat="42.65452432213652" lon="11.981015957764653"><ele>396.0</ele><time>2026-04-18T07:00:34.999Z</time></trkpt><trkpt lat="42.654586388157796" lon="11.980953915374753"><ele>396.0</ele><time>2026-04-18T07:00:35.999Z</time></trkpt><trkpt lat="42.654646188320946" lon="11.98087838020459"><ele>396.0</ele><time>2026-04-18T07:00:36.999Z</time></trkpt><trkpt lat="42.654692539140264" lon="11.980800491701892"><ele>396.0</ele><time>2026-04-18T07:00:37.999Z</time></trkpt><trkpt lat="42.65473450286838" lon="11.980716695361455"><ele>396.0</ele><time>2026-04-18T07:00:38.999Z</time></trkpt><trkpt lat="42.65478508383393" lon="11.980637866537528"><ele>396.0</ele><time>2026-04-18T07:00:39.999Z</time></trkpt><trkpt lat="42.65482281796168" lon="11.980542061361351"><ele>396.0</ele><time>2026-04-18T07:00:40.999Z</time></trkpt><trkpt lat="42.65487287019355" lon="11.980465079962798"><ele>396.0</ele><time>2026-04-18T07:00:41.999Z</time></trkpt><trkpt lat="42.65492804153595" lon="11.980381763800837"><ele>396.0</ele><time>2026-04-18T07:00:42.999Z</time></trkpt><trkpt lat="42.65499700548961" lon="11.980273791627354"><ele>396.0</ele><time>2026-04-18T07:00:43.999Z</time></trkpt><trkpt lat="42.655050916100706" lon="11.980190521083182"><ele>396.0</ele><time>2026-04-18T07:00:44.999Z</time></trkpt><trkpt lat="42.65509835682189" lon="11.98011685313637"><ele>396.0</ele><time>2026-04-18T07:00:45.999Z</time></trkpt><trkpt lat="42.6551657971785" lon="11.980068155131017"><ele>396.0</ele><time>2026-04-18T07:00:46.999Z</time></trkpt><trkpt lat="42.65523154752946" lon="11.979989976929359"><ele>396.0</ele><time>2026-04-18T07:00:47.999Z</time></trkpt><trkpt lat="42.655311886855955" lon="11.979880173479543"><ele>396.0</ele><time>2026-04-18T07:00:48.999Z</time></trkpt><trkpt lat="42.65540298340094" lon="11.979788640396684"><ele>396.6</ele><time>2026-04-18T07:00:49.999Z</time></trkpt><trkpt lat="42.655493979973556" lon="11.979682675058442"><ele>397.20000000000005</ele><time>2026-04-18T07:00:50.999Z</time></trkpt><trkpt lat="42.655578498735636" lon="11.979573775504418"><ele>397.79999999999995</ele><time>2026-04-18T07:00:51.999Z</time></trkpt><trkpt lat="42.65564699942415" lon="11.979472451815642"><ele>398.4</ele><time>2026-04-18T07:00:52.999Z</time></trkpt><trkpt lat="42.655723734993984" lon="11.97938598024888"><ele>399.0</ele><time>2026-04-18T07:00:53.999Z</time></trkpt><trkpt lat="42.65579059403586" lon="11.979291264195725"><ele>399.0</ele><time>2026-04-18T07:00:54.999Z</time></trkpt><trkpt lat="42.655866292002905" lon="11.97920334014058"><ele>399.0</ele><time>2026-04-18T07:00:55.999Z</time></trkpt><trkpt lat="42.65593485595886" lon="11.979112149494595"><ele>399.0</ele><time>2026-04-18T07:00:56.999Z</time></trkpt><trkpt lat="42.65600756623857" lon="11.979020833474777"><ele>399.0</ele><time>2026-04-18T07:00:57.999Z</time></trkpt><trkpt lat="42.656079625480565" lon="11.97893226331307"><ele>399.0</ele><time>2026-04-18T07:00:58.999Z</time></trkpt><trkpt lat="42.656146665857555" lon="11.97883531780227"><ele>399.0</ele><time>2026-04-18T07:00:59.999Z</time></trkpt><trkpt lat="42.65620892940164" lon="11.97874162779931"><ele>399.0</ele><time>2026-04-18T07:01:00.999Z</time></trkpt><trkpt lat="42.656281880693065" lon="11.978655403372317"><ele>399.0</ele><time>2026-04-18T07:01:01.999Z</time></trkpt><trkpt lat="42.656351711405044" lon="11.978548877308167"><ele>399.0</ele><time>2026-04-18T07:01:02.999Z</time></trkpt><trkpt lat="42.65642914217537" lon="11.978429861399915"><ele>399.0</ele><time>2026-04-18T07:01:03.999Z</time></trkpt><trkpt lat="42.65650493981559" lon="11.978312030509102"><ele>398.1666666666667</ele><time>2026-04-18T07:01:04.999Z</time></trkpt><trkpt lat="42.65656981628417" lon="11.978211177115547"><ele>397.33333333333337</ele><time>2026-04-18T07:01:05.999Z</time></trkpt><trkpt lat="42.65662600866381" lon="11.978124290566111"><ele>396.5</ele><time>2026-04-18T07:01:06.999Z</time></trkpt><trkpt lat="42.65666469496676" lon="11.978035773259075"><ele>395.6666666666667</ele><time>2026-04-18T07:01:07.999Z</time></trkpt><trkpt lat="42.65671398397381" lon="11.977972895781354"><ele>394.83333333333337</ele><time>2026-04-18T07:01:08.999Z</time></trkpt><trkpt lat="42.656756812238655" lon="11.97790999880733"><ele>394.0</ele><time>2026-04-18T07:01:09.999Z</time></trkpt><trkpt lat="42.656847665320505" lon="11.97780533498926"><ele>394.00000000000006</ele><time>2026-04-18T07:01:11.999Z</time></trkpt><trkpt lat="42.65693288930769" lon="11.977690307325796"><ele>394.0</ele><time>2026-04-18T07:01:13.999Z</time></trkpt><trkpt lat="42.65698235999821" lon="11.977624387183118"><ele>394.0</ele><time>2026-04-18T07:01:14.999Z</time></trkpt><trkpt lat="42.657035828043824" lon="11.977557720683583"><ele>394.0</ele><time>2026-04-18T07:01:15.999Z</time></trkpt><trkpt lat="42.65708741509086" lon="11.97747761610069"><ele>394.00000000000006</ele><time>2026-04-18T07:01:16.999Z</time></trkpt><trkpt lat="42.657142362927466" lon="11.97739573525084"><ele>394.0</ele><time>2026-04-18T07:01:17.999Z</time></trkpt><trkpt lat="42.65720432407256" lon="11.977309595945348"><ele>394.79999999999995</ele><time>2026-04-18T07:01:18.999Z</time></trkpt><trkpt lat="42.65728454282482" lon="11.977212729601913"><ele>395.59999999999997</ele><time>2026-04-18T07:01:19.999Z</time></trkpt><trkpt lat="42.65736592937152" lon="11.977109269239882"><ele>396.4</ele><time>2026-04-18T07:01:20.999Z</time></trkpt><trkpt lat="42.657443329340474" lon="11.977018140002317"><ele>397.2</ele><time>2026-04-18T07:01:21.999Z</time></trkpt><trkpt lat="42.657517438275725" lon="11.976934837575989"><ele>398.0</ele><time>2026-04-18T07:01:22.999Z</time></trkpt><trkpt lat="42.65759650647901" lon="11.976881609812335"><ele>398.0</ele><time>2026-04-18T07:01:23.999Z</time></trkpt><trkpt lat="42.65767468262462" lon="11.97681240148876"><ele>398.0</ele><time>2026-04-18T07:01:24.999Z</time></trkpt><trkpt lat="42.657757521767984" lon="11.97671913690312"><ele>398.0</ele><time>2026-04-18T07:01:25.999Z</time></trkpt><trkpt lat="42.6578403794107" lon="11.976658665143438"><ele>398.0</ele><time>2026-04-18T07:01:26.999Z</time></trkpt><trkpt lat="42.65791078235829" lon="11.976606429772024"><ele>398.0</ele><time>2026-04-18T07:01:27.999Z</time></trkpt><trkpt lat="42.65798018035587" lon="11.97656120945259"><ele>398.16666666666663</ele><time>2026-04-18T07:01:28.999Z</time></trkpt><trkpt lat="42.65803693232357" lon="11.976516978209817"><ele>398.3333333333333</ele><time>2026-04-18T07:01:29.999Z</time></trkpt><trkpt lat="42.65809608750837" lon="11.976472376364658"><ele>398.5</ele><time>2026-04-18T07:01:30.999Z</time></trkpt><trkpt lat="42.658160314397016" lon="11.976431859069082"><ele>398.66666666666663</ele><time>2026-04-18T07:01:31.999Z</time></trkpt><trkpt lat="42.65822924382718" lon="11.976382990369208"><ele>398.8333333333333</ele><time>2026-04-18T07:01:32.999Z</time></trkpt><trkpt lat="42.65830228473153" lon="11.976302781174399"><ele>399.0</ele><time>2026-04-18T07:01:33.999Z</time></trkpt><trkpt lat="42.658375946545085" lon="11.976190917665404"><ele>399.0</ele><time>2026-04-18T07:01:34.999Z</time></trkpt><trkpt lat="42.65842829771294" lon="11.97608574529317"><ele>399.0</ele><time>2026-04-18T07:01:35.999Z</time></trkpt><trkpt lat="42.658468718366215" lon="11.975991818348156"><ele>399.0</ele><time>2026-04-18T07:01:36.999Z</time></trkpt><trkpt lat="42.658509575553026" lon="11.975902746104166"><ele>399.0</ele><time>2026-04-18T07:01:37.999Z</time></trkpt><trkpt lat="42.65855782468763" lon="11.975821480666536"><ele>399.0</ele><time>2026-04-18T07:01:38.999Z</time></trkpt><trkpt lat="42.65860852365705" lon="11.975734266613486"><ele>399.0</ele><time>2026-04-18T07:01:39.999Z</time></trkpt><trkpt lat="42.6586543772082" lon="11.97565583732216"><ele>399.14285714285717</ele><time>2026-04-18T07:01:40.999Z</time></trkpt><trkpt lat="42.65869438976917" lon="11.97558381328515"><ele>399.2857142857143</ele><time>2026-04-18T07:01:41.999Z</time></trkpt><trkpt lat="42.65873508570288" lon="11.975508486576214"><ele>399.42857142857144</ele><time>2026-04-18T07:01:42.999Z</time></trkpt><trkpt lat="42.65878641497868" lon="11.97542685081465"><ele>399.57142857142856</ele><time>2026-04-18T07:01:43.999Z</time></trkpt><trkpt lat="42.65884405254325" lon="11.975344287194213"><ele>399.7142857142857</ele><time>2026-04-18T07:01:44.999Z</time></trkpt><trkpt lat="42.65890896993449" lon="11.975289784632325"><ele>399.8571428571429</ele><time>2026-04-18T07:01:45.999Z</time></trkpt><trkpt lat="42.65895785352737" lon="11.975228244215499"><ele>400.0</ele><time>2026-04-18T07:01:46.999Z</time></trkpt><trkpt lat="42.659007782783775" lon="11.975171924750825"><ele>400.00000000000006</ele><time>2026-04-18T07:01:47.999Z</time></trkpt><trkpt lat="42.659061409470574" lon="11.975110878460603"><ele>400.0</ele><time>2026-04-18T07:01:48.999Z</time></trkpt><trkpt lat="42.65912659676556" lon="11.975042723930892"><ele>400.0</ele><time>2026-04-18T07:01:49.999Z</time></trkpt><trkpt lat="42.6591907510353" lon="11.974981602542318"><ele>400.0</ele><time>2026-04-18T07:01:50.999Z</time></trkpt><trkpt lat="42.659251037910764" lon="11.974933982031736"><ele>400.00000000000006</ele><time>2026-04-18T07:01:51.999Z</time></trkpt><trkpt lat="42.65930819735952" lon="11.97489320639081"><ele>400.0</ele><time>2026-04-18T07:01:52.999Z</time></trkpt><trkpt lat="42.65943144927113" lon="11.974835888048583"><ele>399.1666666666667</ele><time>2026-04-18T07:01:54.999Z</time></trkpt><trkpt lat="42.65950813798004" lon="11.974813413287649"><ele>398.33333333333337</ele><time>2026-04-18T07:01:55.999Z</time></trkpt><trkpt lat="42.659589978829544" lon="11.974812674599729"><ele>397.5</ele><time>2026-04-18T07:01:56.999Z</time></trkpt><trkpt lat="42.65967353879444" lon="11.974817841224148"><ele>396.66666666666663</ele><time>2026-04-18T07:01:57.999Z</time></trkpt><trkpt lat="42.6597469600374" lon="11.974830756946828"><ele>395.8333333333333</ele><time>2026-04-18T07:01:58.999Z</time></trkpt><trkpt lat="42.65981756586683" lon="11.974846430135768"><ele>395.0</ele><time>2026-04-18T07:01:59.999Z</time></trkpt><trkpt lat="42.65987956748378" lon="11.974863623401362"><ele>395.0</ele><time>2026-04-18T07:02:00.999Z</time></trkpt><trkpt lat="42.66000226979077" lon="11.974904042343587"><ele>395.0</ele><time>2026-04-18T07:02:02.999Z</time></trkpt><trkpt lat="42.660113116497165" lon="11.974981338025067"><ele>395.0</ele><time>2026-04-18T07:02:04.999Z</time></trkpt><trkpt lat="42.66017426784535" lon="11.975023677151205"><ele>395.0</ele><time>2026-04-18T07:02:05.999Z</time></trkpt><trkpt lat="42.66029240278817" lon="11.975062466337148"><ele>395.0</ele><time>2026-04-18T07:02:07.999Z</time></trkpt><trkpt lat="42.660355109555724" lon="11.975046242153779"><ele>394.85714285714283</ele><time>2026-04-18T07:02:08.999Z</time></trkpt><trkpt lat="42.660411456968966" lon="11.974956865457196"><ele>394.7142857142857</ele><time>2026-04-18T07:02:09.999Z</time></trkpt><trkpt lat="42.66046526740885" lon="11.97488973675365"><ele>394.57142857142856</ele><time>2026-04-18T07:02:10.999Z</time></trkpt><trkpt lat="42.66051205705715" lon="11.974830401589884"><ele>394.42857142857144</ele><time>2026-04-18T07:02:11.999Z</time></trkpt><trkpt lat="42.660562677209754" lon="11.9747645693536"><ele>394.28571428571433</ele><time>2026-04-18T07:02:12.999Z</time></trkpt><trkpt lat="42.66061201048317" lon="11.97470041072158"><ele>394.14285714285717</ele><time>2026-04-18T07:02:13.999Z</time></trkpt><trkpt lat="42.660660009379214" lon="11.97464144448324"><ele>394.0</ele><time>2026-04-18T07:02:14.999Z</time></trkpt><trkpt lat="42.660707322769746" lon="11.974584309637125"><ele>394.0</ele><time>2026-04-18T07:02:15.999Z</time></trkpt><trkpt lat="42.660757127091024" lon="11.974522355724266"><ele>394.0</ele><time>2026-04-18T07:02:16.999Z</time></trkpt><trkpt lat="42.660801818016544" lon="11.974452205802118"><ele>394.0</ele><time>2026-04-18T07:02:17.999Z</time></trkpt><trkpt lat="42.66084127474425" lon="11.97436459948276"><ele>394.0</ele><time>2026-04-18T07:02:18.999Z</time></trkpt><trkpt lat="42.660872270707124" lon="11.974279725564182"><ele>394.0</ele><time>2026-04-18T07:02:19.999Z</time></trkpt><trkpt lat="42.66089241341353" lon="11.974188016401126"><ele>394.0</ele><time>2026-04-18T07:02:20.999Z</time></trkpt><trkpt lat="42.66091483116171" lon="11.974102031206652"><ele>394.0</ele><time>2026-04-18T07:02:21.999Z</time></trkpt><trkpt lat="42.660937835762255" lon="11.974013795032297"><ele>393.83333333333337</ele><time>2026-04-18T07:02:22.999Z</time></trkpt><trkpt lat="42.66095763509691" lon="11.973910858962887"><ele>393.6666666666667</ele><time>2026-04-18T07:02:23.999Z</time></trkpt><trkpt lat="42.66098301664838" lon="11.973827882600766"><ele>393.5</ele><time>2026-04-18T07:02:24.999Z</time></trkpt><trkpt lat="42.66104544167106" lon="11.973700217953684"><ele>393.33333333333337</ele><time>2026-04-18T07:02:26.999Z</time></trkpt><trkpt lat="42.66108151824968" lon="11.973630001284258"><ele>393.1666666666667</ele><time>2026-04-18T07:02:27.999Z</time></trkpt><trkpt lat="42.66114958791322" lon="11.973520308848233"><ele>393.0</ele><time>2026-04-18T07:02:29.999Z</time></trkpt><trkpt lat="42.66116879435067" lon="11.973435560130293"><ele>393.14285714285717</ele><time>2026-04-18T07:02:30.999Z</time></trkpt><trkpt lat="42.661204036362285" lon="11.97335884060385"><ele>393.2857142857143</ele><time>2026-04-18T07:02:31.999Z</time></trkpt><trkpt lat="42.661228691057424" lon="11.973279723121426"><ele>393.42857142857144</ele><time>2026-04-18T07:02:32.999Z</time></trkpt><trkpt lat="42.661259685470824" lon="11.973198194274941"><ele>393.57142857142856</ele><time>2026-04-18T07:02:33.999Z</time></trkpt><trkpt lat="42.66127855305454" lon="11.973110176528978"><ele>393.7142857142857</ele><time>2026-04-18T07:02:34.999Z</time></trkpt><trkpt lat="42.66127713970663" lon="11.973016722064997"><ele>393.8571428571429</ele><time>2026-04-18T07:02:35.999Z</time></trkpt><trkpt lat="42.66129875793553" lon="11.972931550687129"><ele>394.0</ele><time>2026-04-18T07:02:36.999Z</time></trkpt><trkpt lat="42.66132436166438" lon="11.972846127732781"><ele>394.0</ele><time>2026-04-18T07:02:37.999Z</time></trkpt><trkpt lat="42.66135307968224" lon="11.972759581762093"><ele>394.0</ele><time>2026-04-18T07:02:38.999Z</time></trkpt><trkpt lat="42.661394961929474" lon="11.972686613504582"><ele>394.0</ele><time>2026-04-18T07:02:39.999Z</time></trkpt><trkpt lat="42.66141804832976" lon="11.972591765162512"><ele>394.0</ele><time>2026-04-18T07:02:40.999Z</time></trkpt><trkpt lat="42.661463208541065" lon="11.97252012648585"><ele>394.0</ele><time>2026-04-18T07:02:41.999Z</time></trkpt><trkpt lat="42.66149938969578" lon="11.972428363647301"><ele>394.0</ele><time>2026-04-18T07:02:42.999Z</time></trkpt><trkpt lat="42.66152850279118" lon="11.972348942676117"><ele>394.0</ele><time>2026-04-18T07:02:43.999Z</time></trkpt><trkpt lat="42.66156918546054" lon="11.97227502185266"><ele>393.50000000000006</ele><time>2026-04-18T07:02:44.999Z</time></trkpt><trkpt lat="42.66160014691017" lon="11.972146656946949"><ele>393.0</ele><time>2026-04-18T07:02:46.999Z</time></trkpt><trkpt lat="42.66162957669758" lon="11.972055802431703"><ele>392.5</ele><time>2026-04-18T07:02:47.999Z</time></trkpt><trkpt lat="42.66164101999472" lon="11.971943107629171"><ele>392.0</ele><time>2026-04-18T07:02:48.999Z</time></trkpt><trkpt lat="42.661654629529764" lon="11.971822050587305"><ele>391.50000000000006</ele><time>2026-04-18T07:02:49.999Z</time></trkpt><trkpt lat="42.66166842093098" lon="11.971706681901447"><ele>391.0</ele><time>2026-04-18T07:02:50.999Z</time></trkpt><trkpt lat="42.661679587366415" lon="11.97160459712406"><ele>391.00000000000006</ele><time>2026-04-18T07:02:51.999Z</time></trkpt><trkpt lat="42.661677665467" lon="11.971492947792875"><ele>391.0</ele><time>2026-04-18T07:02:52.999Z</time></trkpt><trkpt lat="42.66170101186202" lon="11.971385476642814"><ele>391.0</ele><time>2026-04-18T07:02:53.999Z</time></trkpt><trkpt lat="42.661712670271456" lon="11.971262446847515"><ele>391.0</ele><time>2026-04-18T07:02:54.999Z</time></trkpt><trkpt lat="42.66173009769398" lon="11.971143803996263"><ele>391.00000000000006</ele><time>2026-04-18T07:02:55.999Z</time></trkpt><trkpt lat="42.66173696495792" lon="11.97102688444611"><ele>391.0</ele><time>2026-04-18T07:02:56.999Z</time></trkpt><trkpt lat="42.66174502269482" lon="11.970898163217747"><ele>392.00000000000006</ele><time>2026-04-18T07:02:57.999Z</time></trkpt><trkpt lat="42.66176817884753" lon="11.97079547072897"><ele>393.0</ele><time>2026-04-18T07:02:58.999Z</time></trkpt><trkpt lat="42.661782513698626" lon="11.970630998686008"><ele>394.0</ele><time>2026-04-18T07:03:00.999Z</time></trkpt><trkpt lat="42.661787327437764" lon="11.970528021246038"><ele>395.0</ele><time>2026-04-18T07:03:01.999Z</time></trkpt><trkpt lat="42.6617947197596" lon="11.970420379687845"><ele>396.00000000000006</ele><time>2026-04-18T07:03:02.999Z</time></trkpt><trkpt lat="42.661806253944675" lon="11.970317260026548"><ele>397.0</ele><time>2026-04-18T07:03:03.999Z</time></trkpt><trkpt lat="42.6618289051661" lon="11.970211864479458"><ele>397.00000000000006</ele><time>2026-04-18T07:03:04.999Z</time></trkpt><trkpt lat="42.66185543495653" lon="11.970101000957202"><ele>397.0</ele><time>2026-04-18T07:03:05.999Z</time></trkpt><trkpt lat="42.66188383106173" lon="11.970001516525201"><ele>397.0</ele><time>2026-04-18T07:03:06.999Z</time></trkpt><trkpt lat="42.66191295686144" lon="11.969904749301442"><ele>397.0</ele><time>2026-04-18T07:03:07.999Z</time></trkpt><trkpt lat="42.66194633680563" lon="11.969805008051374"><ele>397.00000000000006</ele><time>2026-04-18T07:03:08.999Z</time></trkpt><trkpt lat="42.66197999373315" lon="11.969709218066841"><ele>397.0</ele><time>2026-04-18T07:03:09.999Z</time></trkpt><trkpt lat="42.66201433814577" lon="11.96962406671376"><ele>397.1666666666667</ele><time>2026-04-18T07:03:10.999Z</time></trkpt><trkpt lat="42.66205012063548" lon="11.969536754138606"><ele>397.33333333333337</ele><time>2026-04-18T07:03:11.999Z</time></trkpt><trkpt lat="42.662088040560796" lon="11.96944930549749"><ele>397.5</ele><time>2026-04-18T07:03:12.999Z</time></trkpt><trkpt lat="42.66212232712174" lon="11.969370021675774"><ele>397.66666666666663</ele><time>2026-04-18T07:03:13.999Z</time></trkpt><trkpt lat="42.662154674039165" lon="11.969295223058356"><ele>397.8333333333333</ele><time>2026-04-18T07:03:14.999Z</time></trkpt><trkpt lat="42.66220636031909" lon="11.969128764175585"><ele>398.0</ele><time>2026-04-18T07:03:16.999Z</time></trkpt><trkpt lat="42.662248197561695" lon="11.969046134147746"><ele>397.71428571428567</ele><time>2026-04-18T07:03:17.999Z</time></trkpt><trkpt lat="42.66228325371512" lon="11.968950066088704"><ele>397.42857142857144</ele><time>2026-04-18T07:03:18.999Z</time></trkpt><trkpt lat="42.662309255764995" lon="11.968854843153068"><ele>397.1428571428571</ele><time>2026-04-18T07:03:19.999Z</time></trkpt><trkpt lat="42.662326395009096" lon="11.968770725355032"><ele>396.85714285714283</ele><time>2026-04-18T07:03:20.999Z</time></trkpt><trkpt lat="42.66234945704999" lon="11.968671639585652"><ele>396.57142857142856</ele><time>2026-04-18T07:03:21.999Z</time></trkpt><trkpt lat="42.662368775116214" lon="11.968572443451569"><ele>396.2857142857143</ele><time>2026-04-18T07:03:22.999Z</time></trkpt><trkpt lat="42.66240134582366" lon="11.96849745902758"><ele>396.0</ele><time>2026-04-18T07:03:23.999Z</time></trkpt><trkpt lat="42.662419734826955" lon="11.968415494088156"><ele>395.8333333333333</ele><time>2026-04-18T07:03:24.999Z</time></trkpt><trkpt lat="42.66243923396151" lon="11.968322498123309"><ele>395.66666666666663</ele><time>2026-04-18T07:03:25.999Z</time></trkpt><trkpt lat="42.66247033929502" lon="11.96822032435137"><ele>395.5</ele><time>2026-04-18T07:03:26.999Z</time></trkpt><trkpt lat="42.662483466027005" lon="11.968126320040383"><ele>395.3333333333333</ele><time>2026-04-18T07:03:27.999Z</time></trkpt><trkpt lat="42.662491443906724" lon="11.967981789017502"><ele>395.16666666666663</ele><time>2026-04-18T07:03:30Z</time></trkpt><trkpt lat="42.662529234088545" lon="11.967883052107485"><ele>395.0</ele><time>2026-04-18T07:03:32Z</time></trkpt><trkpt lat="42.662488573448115" lon="11.967734604972609"><ele>394.99999999999994</ele><time>2026-04-18T07:03:34Z</time></trkpt><trkpt lat="42.66248789962344" lon="11.96763247625979"><ele>395.0</ele><time>2026-04-18T07:03:35Z</time></trkpt><trkpt lat="42.66248598445803" lon="11.96752752732497"><ele>395.0</ele><time>2026-04-18T07:03:36Z</time></trkpt><trkpt lat="42.66250127076128" lon="11.96737136557404"><ele>395.0</ele><time>2026-04-18T07:03:38Z</time></trkpt><trkpt lat="42.6625091170421" lon="11.967267288302157"><ele>394.99999999999994</ele><time>2026-04-18T07:03:39Z</time></trkpt><trkpt lat="42.66253987300859" lon="11.967186093893915"><ele>395.0</ele><time>2026-04-18T07:03:40Z</time></trkpt><trkpt lat="42.662589197094995" lon="11.967112206573107"><ele>394.8333333333333</ele><time>2026-04-18T07:03:41Z</time></trkpt><trkpt lat="42.66262668319232" lon="11.967042765766386"><ele>394.66666666666663</ele><time>2026-04-18T07:03:42Z</time></trkpt><trkpt lat="42.662665034399446" lon="11.966973421395291"><ele>394.5</ele><time>2026-04-18T07:03:43Z</time></trkpt><trkpt lat="42.66270405272598" lon="11.96688464189539"><ele>394.33333333333337</ele><time>2026-04-18T07:03:44Z</time></trkpt><trkpt lat="42.662734235363104" lon="11.966795302303137"><ele>394.1666666666667</ele><time>2026-04-18T07:03:45Z</time></trkpt><trkpt lat="42.662774795123866" lon="11.966621679372068"><ele>394.0</ele><time>2026-04-18T07:03:47Z</time></trkpt><trkpt lat="42.6628023928711" lon="11.966535895701007"><ele>394.2857142857143</ele><time>2026-04-18T07:03:48Z</time></trkpt><trkpt lat="42.66284250502578" lon="11.966461144547836"><ele>394.57142857142856</ele><time>2026-04-18T07:03:49Z</time></trkpt><trkpt lat="42.662874544796516" lon="11.96638417706329"><ele>394.8571428571429</ele><time>2026-04-18T07:03:50Z</time></trkpt><trkpt lat="42.662912144024354" lon="11.96631259156783"><ele>395.1428571428571</ele><time>2026-04-18T07:03:51Z</time></trkpt><trkpt lat="42.662955874870335" lon="11.966237769582548"><ele>395.4285714285714</ele><time>2026-04-18T07:03:52Z</time></trkpt><trkpt lat="42.66300227822949" lon="11.966164252796316"><ele>395.7142857142857</ele><time>2026-04-18T07:03:53Z</time></trkpt><trkpt lat="42.66304900849267" lon="11.966092830055247"><ele>396.0</ele><time>2026-04-18T07:03:54Z</time></trkpt><trkpt lat="42.66309532093238" lon="11.966027085507317"><ele>396.0</ele><time>2026-04-18T07:03:55Z</time></trkpt><trkpt lat="42.6631423240776" lon="11.96596741412597"><ele>396.0</ele><time>2026-04-18T07:03:56Z</time></trkpt><trkpt lat="42.663197012291775" lon="11.965904642608917"><ele>396.0</ele><time>2026-04-18T07:03:57Z</time></trkpt><trkpt lat="42.663255243955916" lon="11.96584026053307"><ele>396.0</ele><time>2026-04-18T07:03:58Z</time></trkpt><trkpt lat="42.663320981361956" lon="11.965767687344348"><ele>396.0</ele><time>2026-04-18T07:03:59Z</time></trkpt><trkpt lat="42.66338985151037" lon="11.965695435389152"><ele>396.0</ele><time>2026-04-18T07:04:00Z</time></trkpt><trkpt lat="42.6634550364965" lon="11.96562542627292"><ele>396.0</ele><time>2026-04-18T07:04:01Z</time></trkpt><trkpt lat="42.66351031723327" lon="11.96555890010224"><ele>396.0</ele><time>2026-04-18T07:04:02Z</time></trkpt><trkpt lat="42.663558029395354" lon="11.965493044709289"><ele>396.0</ele><time>2026-04-18T07:04:03Z</time></trkpt><trkpt lat="42.66359993830873" lon="11.965414915978902"><ele>396.0</ele><time>2026-04-18T07:04:04Z</time></trkpt><trkpt lat="42.66363210616358" lon="11.96533788722081"><ele>396.0</ele><time>2026-04-18T07:04:05Z</time></trkpt><trkpt lat="42.663654761506805" lon="11.965247176439101"><ele>396.0</ele><time>2026-04-18T07:04:06Z</time></trkpt><trkpt lat="42.66366676295377" lon="11.965151575297561"><ele>396.0</ele><time>2026-04-18T07:04:07Z</time></trkpt><trkpt lat="42.66367712699232" lon="11.96506696068885"><ele>396.4</ele><time>2026-04-18T07:04:08Z</time></trkpt><trkpt lat="42.66370512663582" lon="11.96490990184048"><ele>396.8</ele><time>2026-04-18T07:04:10Z</time></trkpt><trkpt lat="42.663752549968386" lon="11.964774614450182"><ele>397.2</ele><time>2026-04-18T07:04:12Z</time></trkpt><trkpt lat="42.6637912565015" lon="11.964692140653892"><ele>397.59999999999997</ele><time>2026-04-18T07:04:13Z</time></trkpt><trkpt lat="42.663834526826996" lon="11.964613046675698"><ele>398.0</ele><time>2026-04-18T07:04:14Z</time></trkpt><trkpt lat="42.66390645607146" lon="11.964497188140692"><ele>398.0</ele><time>2026-04-18T07:04:16Z</time></trkpt><trkpt lat="42.66398111434481" lon="11.96438715839838"><ele>398.0</ele><time>2026-04-18T07:04:18Z</time></trkpt><trkpt lat="42.664052890126776" lon="11.964278261540503"><ele>398.0</ele><time>2026-04-18T07:04:20Z</time></trkpt><trkpt lat="42.66408215269612" lon="11.964119012688117"><ele>398.0</ele><time>2026-04-18T07:04:22Z</time></trkpt><trkpt lat="42.66406043326572" lon="11.964024184971178"><ele>398.0</ele><time>2026-04-18T07:04:23Z</time></trkpt><trkpt lat="42.66404501514855" lon="11.96393630257856"><ele>398.0</ele><time>2026-04-18T07:04:24Z</time></trkpt><trkpt lat="42.664027305951855" lon="11.963835361164605"><ele>398.0</ele><time>2026-04-18T07:04:25Z</time></trkpt><trkpt lat="42.66400139117347" lon="11.963678101969368"><ele>398.0</ele><time>2026-04-18T07:04:27Z</time></trkpt><trkpt lat="42.664023396232835" lon="11.963510000573306"><ele>398.0</ele><time>2026-04-18T07:04:29Z</time></trkpt><trkpt lat="42.66404038492116" lon="11.963420977422901"><ele>398.0</ele><time>2026-04-18T07:04:30Z</time></trkpt><trkpt lat="42.66406632866681" lon="11.963328139703199"><ele>397.66666666666663</ele><time>2026-04-18T07:04:31Z</time></trkpt><trkpt lat="42.6640984796487" lon="11.963241397081141"><ele>397.3333333333333</ele><time>2026-04-18T07:04:32Z</time></trkpt><trkpt lat="42.66413593254795" lon="11.963165189623327"><ele>397.0</ele><time>2026-04-18T07:04:33Z</time></trkpt><trkpt lat="42.6641751140923" lon="11.963090602203014"><ele>396.66666666666663</ele><time>2026-04-18T07:04:34Z</time></trkpt><trkpt lat="42.664251765433725" lon="11.962983024255848"><ele>396.3333333333333</ele><time>2026-04-18T07:04:36Z</time></trkpt><trkpt lat="42.66434229532677" lon="11.962896268010033"><ele>396.0</ele><time>2026-04-18T07:04:38Z</time></trkpt><trkpt lat="42.664430559017916" lon="11.96283559589256"><ele>396.6</ele><time>2026-04-18T07:04:40Z</time></trkpt><trkpt lat="42.66452713072217" lon="11.962768353432482"><ele>397.20000000000005</ele><time>2026-04-18T07:04:42Z</time></trkpt><trkpt lat="42.66463277078528" lon="11.962744740702798"><ele>397.79999999999995</ele><time>2026-04-18T07:04:44Z</time></trkpt><trkpt lat="42.66472371703765" lon="11.962732552525962"><ele>398.4</ele><time>2026-04-18T07:04:46Z</time></trkpt><trkpt lat="42.66481610623265" lon="11.96268984434679"><ele>399.0</ele><time>2026-04-18T07:04:48Z</time></trkpt><trkpt lat="42.66490788057827" lon="11.962633238094377"><ele>399.0</ele><time>2026-04-18T07:04:50Z</time></trkpt><trkpt lat="42.664964067750496" lon="11.962583847114393"><ele>399.0</ele><time>2026-04-18T07:04:51Z</time></trkpt><trkpt lat="42.66505856682186" lon="11.962502639039773"><ele>399.0</ele><time>2026-04-18T07:04:53Z</time></trkpt><trkpt lat="42.66512848873399" lon="11.962421228634147"><ele>399.0</ele><time>2026-04-18T07:04:55Z</time></trkpt><trkpt lat="42.66520433486035" lon="11.962347790330748"><ele>399.0</ele><time>2026-04-18T07:04:57Z</time></trkpt><trkpt lat="42.665278351779406" lon="11.96222094221582"><ele>397.85714285714283</ele><time>2026-04-18T07:04:59Z</time></trkpt><trkpt lat="42.66529813441821" lon="11.962136448697118"><ele>396.7142857142857</ele><time>2026-04-18T07:05:00Z</time></trkpt><trkpt lat="42.66527755175339" lon="11.962049643592103"><ele>395.57142857142856</ele><time>2026-04-18T07:05:01Z</time></trkpt><trkpt lat="42.66525229172578" lon="11.961949555242827"><ele>394.42857142857144</ele><time>2026-04-18T07:05:02Z</time></trkpt><trkpt lat="42.66522471210521" lon="11.961856976603162"><ele>393.2857142857143</ele><time>2026-04-18T07:05:03Z</time></trkpt><trkpt lat="42.665192743630584" lon="11.961765138061798"><ele>392.1428571428571</ele><time>2026-04-18T07:05:04Z</time></trkpt><trkpt lat="42.6651552420655" lon="11.961687101105923"><ele>391.0</ele><time>2026-04-18T07:05:05Z</time></trkpt><trkpt lat="42.6651052577476" lon="11.961595212310018"><ele>390.33333333333337</ele><time>2026-04-18T07:05:06Z</time></trkpt><trkpt lat="42.6650570492969" lon="11.961536731887328"><ele>389.6666666666667</ele><time>2026-04-18T07:05:07Z</time></trkpt><trkpt lat="42.6650070749401" lon="11.961469927645263"><ele>389.0</ele><time>2026-04-18T07:05:08Z</time></trkpt><trkpt lat="42.664951393671785" lon="11.961411069999048"><ele>388.33333333333337</ele><time>2026-04-18T07:05:08.999Z</time></trkpt><trkpt lat="42.664882326182564" lon="11.961349771997405"><ele>387.6666666666667</ele><time>2026-04-18T07:05:09.999Z</time></trkpt><trkpt lat="42.66482188897572" lon="11.961295054702434"><ele>387.0</ele><time>2026-04-18T07:05:10.999Z</time></trkpt><trkpt lat="42.664702340924926" lon="11.961201910612939"><ele>387.0</ele><time>2026-04-18T07:05:12.999Z</time></trkpt><trkpt lat="42.66461531814948" lon="11.961156784077017"><ele>387.0</ele><time>2026-04-18T07:05:14.999Z</time></trkpt><trkpt lat="42.664491028683635" lon="11.961123143022283"><ele>387.0</ele><time>2026-04-18T07:05:16.999Z</time></trkpt><trkpt lat="42.66441946917094" lon="11.96113860978252"><ele>387.0</ele><time>2026-04-18T07:05:17.999Z</time></trkpt><trkpt lat="42.66434359003701" lon="11.96115127110684"><ele>387.0</ele><time>2026-04-18T07:05:18.999Z</time></trkpt><trkpt lat="42.664271772513615" lon="11.961156051738485"><ele>387.0</ele><time>2026-04-18T07:05:19.999Z</time></trkpt><trkpt lat="42.6641994697289" lon="11.961154085182232"><ele>386.1666666666667</ele><time>2026-04-18T07:05:20.999Z</time></trkpt><trkpt lat="42.664123155367825" lon="11.96115336589018"><ele>385.3333333333333</ele><time>2026-04-18T07:05:21.999Z</time></trkpt><trkpt lat="42.664049576038884" lon="11.96115321319937"><ele>384.5</ele><time>2026-04-18T07:05:22.999Z</time></trkpt><trkpt lat="42.663976260390235" lon="11.961173058474804"><ele>383.66666666666663</ele><time>2026-04-18T07:05:23.999Z</time></trkpt><trkpt lat="42.663903334340915" lon="11.961178754261184"><ele>382.8333333333333</ele><time>2026-04-18T07:05:24.999Z</time></trkpt><trkpt lat="42.66382390624607" lon="11.961168245612608"><ele>382.0</ele><time>2026-04-18T07:05:26Z</time></trkpt><trkpt lat="42.66373242506058" lon="11.96115130784066"><ele>382.0</ele><time>2026-04-18T07:05:27Z</time></trkpt><trkpt lat="42.66365072646882" lon="11.96112145564878"><ele>382.0</ele><time>2026-04-18T07:05:28Z</time></trkpt><trkpt lat="42.663576071435514" lon="11.961078936826171"><ele>382.0</ele><time>2026-04-18T07:05:29Z</time></trkpt><trkpt lat="42.66349351247591" lon="11.96104068360236"><ele>382.0</ele><time>2026-04-18T07:05:30Z</time></trkpt><trkpt lat="42.66340730051937" lon="11.96099563833116"><ele>382.0</ele><time>2026-04-18T07:05:31Z</time></trkpt><trkpt lat="42.663333406249826" lon="11.960943266183085"><ele>382.0</ele><time>2026-04-18T07:05:32Z</time></trkpt><trkpt lat="42.663263976683155" lon="11.960905415161715"><ele>381.16666666666663</ele><time>2026-04-18T07:05:33Z</time></trkpt><trkpt lat="42.66317733299606" lon="11.960907647515526"><ele>380.3333333333333</ele><time>2026-04-18T07:05:34Z</time></trkpt><trkpt lat="42.663089276801934" lon="11.960918328898403"><ele>379.5</ele><time>2026-04-18T07:05:35Z</time></trkpt><trkpt lat="42.663011134247625" lon="11.960938920253659"><ele>378.6666666666667</ele><time>2026-04-18T07:05:36Z</time></trkpt><trkpt lat="42.662929115591645" lon="11.960956699871245"><ele>377.83333333333337</ele><time>2026-04-18T07:05:37Z</time></trkpt><trkpt lat="42.66284425829642" lon="11.960964620275025"><ele>377.0</ele><time>2026-04-18T07:05:38Z</time></trkpt><trkpt lat="42.66275583379745" lon="11.960957200341053"><ele>376.6</ele><time>2026-04-18T07:05:39Z</time></trkpt><trkpt lat="42.66266136363559" lon="11.960937873657388"><ele>376.20000000000005</ele><time>2026-04-18T07:05:40Z</time></trkpt><trkpt lat="42.662569293529984" lon="11.960919813390698"><ele>375.8</ele><time>2026-04-18T07:05:41Z</time></trkpt><trkpt lat="42.66247756504594" lon="11.960901064561433"><ele>375.4</ele><time>2026-04-18T07:05:42Z</time></trkpt><trkpt lat="42.66238099751083" lon="11.96087510314885"><ele>375.0</ele><time>2026-04-18T07:05:43Z</time></trkpt><trkpt lat="42.66229310951643" lon="11.960855906590265"><ele>375.6</ele><time>2026-04-18T07:05:44Z</time></trkpt><trkpt lat="42.66221175490231" lon="11.96083089723169"><ele>376.2</ele><time>2026-04-18T07:05:45Z</time></trkpt><trkpt lat="42.66213480695374" lon="11.960802518664364"><ele>376.79999999999995</ele><time>2026-04-18T07:05:46Z</time></trkpt><trkpt lat="42.66206445043453" lon="11.960780067533038"><ele>377.4</ele><time>2026-04-18T07:05:47Z</time></trkpt><trkpt lat="42.66194492777654" lon="11.960736335144526"><ele>378.0</ele><time>2026-04-18T07:05:49Z</time></trkpt><trkpt lat="42.66185323113793" lon="11.960667400702496"><ele>378.0</ele><time>2026-04-18T07:05:51Z</time></trkpt><trkpt lat="42.66178988807764" lon="11.960574905756264"><ele>378.0</ele><time>2026-04-18T07:05:53Z</time></trkpt><trkpt lat="42.661738977205964" lon="11.960450850775533"><ele>378.0</ele><time>2026-04-18T07:05:55Z</time></trkpt><trkpt lat="42.66171931914346" lon="11.96030861574877"><ele>378.0</ele><time>2026-04-18T07:05:57Z</time></trkpt><trkpt lat="42.66170524428549" lon="11.96013947325159"><ele>378.0</ele><time>2026-04-18T07:05:59Z</time></trkpt><trkpt lat="42.66169783434116" lon="11.960050113513057"><ele>377.7142857142857</ele><time>2026-04-18T07:06:00Z</time></trkpt><trkpt lat="42.66168547934815" lon="11.959965587694848"><ele>377.42857142857144</ele><time>2026-04-18T07:06:01Z</time></trkpt><trkpt lat="42.66166482512212" lon="11.959870747368104"><ele>377.1428571428571</ele><time>2026-04-18T07:06:02Z</time></trkpt><trkpt lat="42.66164447792997" lon="11.959774604648684"><ele>376.8571428571429</ele><time>2026-04-18T07:06:03Z</time></trkpt><trkpt lat="42.66163918581103" lon="11.95968636266396"><ele>376.57142857142856</ele><time>2026-04-18T07:06:04Z</time></trkpt><trkpt lat="42.66163916151772" lon="11.959557399104261"><ele>376.2857142857143</ele><time>2026-04-18T07:06:06Z</time></trkpt><trkpt lat="42.66164136876175" lon="11.959468282409883"><ele>376.0</ele><time>2026-04-18T07:06:08Z</time></trkpt><trkpt lat="42.66166244449283" lon="11.959365948923375"><ele>376.0</ele><time>2026-04-18T07:06:10Z</time></trkpt><trkpt lat="42.661683710909216" lon="11.959284863695897"><ele>376.0</ele><time>2026-04-18T07:06:11Z</time></trkpt><trkpt lat="42.66171898454905" lon="11.959208681240339"><ele>376.0</ele><time>2026-04-18T07:06:12Z</time></trkpt><trkpt lat="42.661775042570355" lon="11.959148242304511"><ele>376.0</ele><time>2026-04-18T07:06:13Z</time></trkpt><trkpt lat="42.66186575244183" lon="11.95908229772169"><ele>376.0</ele><time>2026-04-18T07:06:14Z</time></trkpt><trkpt lat="42.661969972826455" lon="11.959006412853808"><ele>376.0</ele><time>2026-04-18T07:06:15Z</time></trkpt><trkpt lat="42.662069795978965" lon="11.95892363932419"><ele>377.0</ele><time>2026-04-18T07:06:16Z</time></trkpt><trkpt lat="42.66218919049729" lon="11.95882274196351"><ele>378.0</ele><time>2026-04-18T07:06:17Z</time></trkpt><trkpt lat="42.66229156109522" lon="11.958752815559473"><ele>379.0</ele><time>2026-04-18T07:06:18Z</time></trkpt><trkpt lat="42.662375922767595" lon="11.958696541278051"><ele>380.0</ele><time>2026-04-18T07:06:19Z</time></trkpt><trkpt lat="42.662449570489024" lon="11.958648729992817"><ele>381.0</ele><time>2026-04-18T07:06:20Z</time></trkpt><trkpt lat="42.66251572672657" lon="11.958602489862823"><ele>381.0</ele><time>2026-04-18T07:06:21Z</time></trkpt><trkpt lat="42.66260567178505" lon="11.95854269258397"><ele>381.0</ele><time>2026-04-18T07:06:23Z</time></trkpt><trkpt lat="42.662675096782905" lon="11.95850116930932"><ele>381.0</ele><time>2026-04-18T07:06:25Z</time></trkpt><trkpt lat="42.66273532246317" lon="11.958463499214286"><ele>381.0</ele><time>2026-04-18T07:06:29Z</time></trkpt><trkpt lat="42.66275835959446" lon="11.958337606897429"><ele>381.0</ele><time>2026-04-18T07:06:33Z</time></trkpt><trkpt lat="42.66278945751246" lon="11.958245970840435"><ele>381.0</ele><time>2026-04-18T07:06:34Z</time></trkpt><trkpt lat="42.662816494992455" lon="11.958154161308753"><ele>381.8</ele><time>2026-04-18T07:06:35Z</time></trkpt><trkpt lat="42.66285052006533" lon="11.95806747414188"><ele>382.6</ele><time>2026-04-18T07:06:36Z</time></trkpt><trkpt lat="42.66293218117337" lon="11.957952623586412"><ele>383.4</ele><time>2026-04-18T07:06:38Z</time></trkpt><trkpt lat="42.6630012684431" lon="11.957919722791052"><ele>384.2</ele><time>2026-04-18T07:06:39Z</time></trkpt><trkpt lat="42.66309489940143" lon="11.957895639831737"><ele>385.0</ele><time>2026-04-18T07:06:40Z</time></trkpt><trkpt lat="42.66319957802492" lon="11.957905553990765"><ele>385.0</ele><time>2026-04-18T07:06:41Z</time></trkpt><trkpt lat="42.66327688962336" lon="11.957914225358197"><ele>385.0</ele><time>2026-04-18T07:06:42Z</time></trkpt><trkpt lat="42.6634053943115" lon="11.957880208753112"><ele>385.0</ele><time>2026-04-18T07:06:44Z</time></trkpt><trkpt lat="42.66347221434681" lon="11.957837649530752"><ele>385.0</ele><time>2026-04-18T07:06:45Z</time></trkpt><trkpt lat="42.66352408661649" lon="11.957743604068412"><ele>385.0</ele><time>2026-04-18T07:06:46Z</time></trkpt><trkpt lat="42.66356593100411" lon="11.957600949495282"><ele>385.0</ele><time>2026-04-18T07:06:47Z</time></trkpt><trkpt lat="42.663599198677524" lon="11.957429333684766"><ele>385.0</ele><time>2026-04-18T07:06:48Z</time></trkpt><trkpt lat="42.66361741727146" lon="11.957237797111334"><ele>385.0</ele><time>2026-04-18T07:06:49Z</time></trkpt><trkpt lat="42.663641043773154" lon="11.957100617796565"><ele>385.0</ele><time>2026-04-18T07:06:50Z</time></trkpt><trkpt lat="42.6636843763534" lon="11.957026215413617"><ele>385.0</ele><time>2026-04-18T07:06:52Z</time></trkpt><trkpt lat="42.663795738083245" lon="11.956993975207185"><ele>385.0</ele><time>2026-04-18T07:06:54Z</time></trkpt><trkpt lat="42.66387121740653" lon="11.956981457007009"><ele>385.0</ele><time>2026-04-18T07:06:55Z</time></trkpt><trkpt lat="42.663945800533206" lon="11.956960284475985"><ele>385.0</ele><time>2026-04-18T07:06:56Z</time></trkpt><trkpt lat="42.664000634101484" lon="11.95690332607625"><ele>385.0</ele><time>2026-04-18T07:06:57Z</time></trkpt><trkpt lat="42.664039847734756" lon="11.956820626147085"><ele>385.0</ele><time>2026-04-18T07:06:58Z</time></trkpt><trkpt lat="42.664059704323" lon="11.956717834857356"><ele>385.0</ele><time>2026-04-18T07:06:59Z</time></trkpt><trkpt lat="42.66407344507139" lon="11.956620165560855"><ele>385.0</ele><time>2026-04-18T07:07:00Z</time></trkpt><trkpt lat="42.66409017115123" lon="11.956535522089158"><ele>384.83333333333337</ele><time>2026-04-18T07:07:01Z</time></trkpt><trkpt lat="42.66412152911721" lon="11.95640681688079"><ele>384.6666666666667</ele><time>2026-04-18T07:07:03Z</time></trkpt><trkpt lat="42.66408790999302" lon="11.956306841174696"><ele>384.5</ele><time>2026-04-18T07:07:05Z</time></trkpt><trkpt lat="42.66404933384781" lon="11.95623500768149"><ele>384.33333333333337</ele><time>2026-04-18T07:07:06Z</time></trkpt><trkpt lat="42.66400761006808" lon="11.956170735124982"><ele>384.1666666666667</ele><time>2026-04-18T07:07:07Z</time></trkpt><trkpt lat="42.66392347292754" lon="11.956045707354596"><ele>384.0</ele><time>2026-04-18T07:07:09Z</time></trkpt><trkpt lat="42.663854208549104" lon="11.955925851093685"><ele>382.75</ele><time>2026-04-18T07:07:11Z</time></trkpt><trkpt lat="42.663879295805586" lon="11.955756106425302"><ele>381.5</ele><time>2026-04-18T07:07:13Z</time></trkpt><trkpt lat="42.663919819640114" lon="11.955645922969547"><ele>380.25</ele><time>2026-04-18T07:07:14Z</time></trkpt><trkpt lat="42.66398307542927" lon="11.955502150107218"><ele>379.0</ele><time>2026-04-18T07:07:14.999Z</time></trkpt><trkpt lat="42.66403424083048" lon="11.955370445481885"><ele>379.0</ele><time>2026-04-18T07:07:15.999Z</time></trkpt><trkpt lat="42.664078993390966" lon="11.955267210820121"><ele>379.0</ele><time>2026-04-18T07:07:16.999Z</time></trkpt><trkpt lat="42.66412550344487" lon="11.955200098879654"><ele>379.0</ele><time>2026-04-18T07:07:17.999Z</time></trkpt><trkpt lat="42.66423971774904" lon="11.9551254170915"><ele>379.0</ele><time>2026-04-18T07:07:19.999Z</time></trkpt><trkpt lat="42.66431333409308" lon="11.95511605328764"><ele>379.0</ele><time>2026-04-18T07:07:20.999Z</time></trkpt><trkpt lat="42.664376567229255" lon="11.955099793775792"><ele>379.0</ele><time>2026-04-18T07:07:21.999Z</time></trkpt><trkpt lat="42.66438490386574" lon="11.954973187951914"><ele>377.79999999999995</ele><time>2026-04-18T07:07:23.999Z</time></trkpt><trkpt lat="42.6643325503351" lon="11.954903748198436"><ele>376.59999999999997</ele><time>2026-04-18T07:07:24.999Z</time></trkpt><trkpt lat="42.66425149276372" lon="11.95485266099856"><ele>375.4</ele><time>2026-04-18T07:07:25.999Z</time></trkpt><trkpt lat="42.66413338711053" lon="11.954809116089097"><ele>374.2</ele><time>2026-04-18T07:07:26.999Z</time></trkpt><trkpt lat="42.664002893103756" lon="11.954736924555156"><ele>373.0</ele><time>2026-04-18T07:07:27.999Z</time></trkpt><trkpt lat="42.66388519711991" lon="11.95463377018605"><ele>373.0</ele><time>2026-04-18T07:07:28.999Z</time></trkpt><trkpt lat="42.66378116254608" lon="11.95450764469852"><ele>373.0</ele><time>2026-04-18T07:07:29.999Z</time></trkpt><trkpt lat="42.66369309226821" lon="11.954377204867548"><ele>373.0</ele><time>2026-04-18T07:07:30.999Z</time></trkpt><trkpt lat="42.66363686810453" lon="11.954254392074109"><ele>373.0</ele><time>2026-04-18T07:07:31.999Z</time></trkpt><trkpt lat="42.66361229778497" lon="11.95413386334806"><ele>373.16666666666663</ele><time>2026-04-18T07:07:32.999Z</time></trkpt><trkpt lat="42.6636124417893" lon="11.954010610611562"><ele>373.3333333333333</ele><time>2026-04-18T07:07:34Z</time></trkpt><trkpt lat="42.66363963209879" lon="11.953906019459648"><ele>373.5</ele><time>2026-04-18T07:07:35Z</time></trkpt><trkpt lat="42.66369300561934" lon="11.953837179119786"><ele>373.6666666666667</ele><time>2026-04-18T07:07:36Z</time></trkpt><trkpt lat="42.6637597698361" lon="11.953805972762309"><ele>373.83333333333337</ele><time>2026-04-18T07:07:37Z</time></trkpt><trkpt lat="42.66383865177271" lon="11.95380661840001"><ele>374.0</ele><time>2026-04-18T07:07:38Z</time></trkpt><trkpt lat="42.663923541201555" lon="11.953835024983233"><ele>374.0</ele><time>2026-04-18T07:07:39Z</time></trkpt><trkpt lat="42.66402684339649" lon="11.953884922963649"><ele>374.0</ele><time>2026-04-18T07:07:40Z</time></trkpt><trkpt lat="42.664125430867934" lon="11.953935979252455"><ele>374.0</ele><time>2026-04-18T07:07:41Z</time></trkpt><trkpt lat="42.66419168408914" lon="11.953938208515918"><ele>374.0</ele><time>2026-04-18T07:07:42Z</time></trkpt><trkpt lat="42.664267649172075" lon="11.953788810936617"><ele>374.0</ele><time>2026-04-18T07:07:44Z</time></trkpt><trkpt lat="42.664319559182886" lon="11.953670171554736"><ele>374.0</ele><time>2026-04-18T07:07:45Z</time></trkpt><trkpt lat="42.66440748528949" lon="11.953540556978863"><ele>374.0</ele><time>2026-04-18T07:07:46Z</time></trkpt><trkpt lat="42.6645039897012" lon="11.953415910689097"><ele>374.0</ele><time>2026-04-18T07:07:47Z</time></trkpt><trkpt lat="42.664579788218774" lon="11.953304400684804"><ele>374.0</ele><time>2026-04-18T07:07:48Z</time></trkpt><trkpt lat="42.66462354860887" lon="11.953204480862148"><ele>373.2</ele><time>2026-04-18T07:07:49Z</time></trkpt><trkpt lat="42.66463215087087" lon="11.953096800223625"><ele>372.4</ele><time>2026-04-18T07:07:50Z</time></trkpt><trkpt lat="42.6646071559735" lon="11.95297524503079"><ele>371.6</ele><time>2026-04-18T07:07:51Z</time></trkpt><trkpt lat="42.66456808483791" lon="11.952879054876213"><ele>370.8</ele><time>2026-04-18T07:07:52Z</time></trkpt><trkpt lat="42.664495983731236" lon="11.952808267084242"><ele>370.0</ele><time>2026-04-18T07:07:53Z</time></trkpt><trkpt lat="42.66439724164572" lon="11.952728973034063"><ele>370.0</ele><time>2026-04-18T07:07:54Z</time></trkpt><trkpt lat="42.664279574522" lon="11.952647081591513"><ele>370.0</ele><time>2026-04-18T07:07:55Z</time></trkpt><trkpt lat="42.66417889576148" lon="11.95254422670568"><ele>370.0</ele><time>2026-04-18T07:07:56Z</time></trkpt><trkpt lat="42.664134562969394" lon="11.952472842306802"><ele>370.0</ele><time>2026-04-18T07:07:57Z</time></trkpt><trkpt lat="42.66413450645197" lon="11.952345005861941"><ele>370.0</ele><time>2026-04-18T07:07:59Z</time></trkpt><trkpt lat="42.66422455650168" lon="11.952191202207139"><ele>371.0</ele><time>2026-04-18T07:08:01Z</time></trkpt><trkpt lat="42.664293622638496" lon="11.952111782562685"><ele>372.0</ele><time>2026-04-18T07:08:02Z</time></trkpt><trkpt lat="42.66437848310521" lon="11.952069156725505"><ele>373.0</ele><time>2026-04-18T07:08:03Z</time></trkpt><trkpt lat="42.66446561177115" lon="11.952067678106058"><ele>374.0</ele><time>2026-04-18T07:08:04Z</time></trkpt><trkpt lat="42.664595439338505" lon="11.95207430195511"><ele>375.0</ele><time>2026-04-18T07:08:05Z</time></trkpt><trkpt lat="42.66470092954977" lon="11.952086630535845"><ele>376.2</ele><time>2026-04-18T07:08:06Z</time></trkpt><trkpt lat="42.66476523409282" lon="11.952092571387679"><ele>377.4</ele><time>2026-04-18T07:08:07Z</time></trkpt><trkpt lat="42.6648349122662" lon="11.95194148071812"><ele>378.6</ele><time>2026-04-18T07:08:09Z</time></trkpt><trkpt lat="42.66484968977121" lon="11.951809762524798"><ele>379.8</ele><time>2026-04-18T07:08:10Z</time></trkpt><trkpt lat="42.6648566391665" lon="11.951633204065118"><ele>381.0</ele><time>2026-04-18T07:08:11Z</time></trkpt><trkpt lat="42.66487776251285" lon="11.951429078869408"><ele>381.3333333333333</ele><time>2026-04-18T07:08:12Z</time></trkpt><trkpt lat="42.664913850874726" lon="11.951204012721348"><ele>381.66666666666663</ele><time>2026-04-18T07:08:13Z</time></trkpt><trkpt lat="42.664958900865514" lon="11.950968597511064"><ele>382.0</ele><time>2026-04-18T07:08:14Z</time></trkpt><trkpt lat="42.66499580943635" lon="11.950777845257305"><ele>380.8</ele><time>2026-04-18T07:08:15Z</time></trkpt><trkpt lat="42.66502708059965" lon="11.950611961724391"><ele>379.6</ele><time>2026-04-18T07:08:16Z</time></trkpt><trkpt lat="42.66506026824032" lon="11.950477481593579"><ele>378.40000000000003</ele><time>2026-04-18T07:08:17Z</time></trkpt><trkpt lat="42.66508364369316" lon="11.950356001324652"><ele>377.20000000000005</ele><time>2026-04-18T07:08:18Z</time></trkpt><trkpt lat="42.66509805509374" lon="11.950237912745537"><ele>376.0</ele><time>2026-04-18T07:08:19Z</time></trkpt><trkpt lat="42.66511915806189" lon="11.950122361973115"><ele>376.0</ele><time>2026-04-18T07:08:21Z</time></trkpt><trkpt lat="42.66520517937864" lon="11.9500988374262"><ele>376.0</ele><time>2026-04-18T07:08:23Z</time></trkpt><trkpt lat="42.66533595878055" lon="11.950103253218883"><ele>376.0</ele><time>2026-04-18T07:08:25Z</time></trkpt><trkpt lat="42.6654412960608" lon="11.950136866973864"><ele>376.0</ele><time>2026-04-18T07:08:26Z</time></trkpt><trkpt lat="42.665569685034484" lon="11.950172547927684"><ele>378.66666666666663</ele><time>2026-04-18T07:08:27Z</time></trkpt><trkpt lat="42.6657243925943" lon="11.950215814463524"><ele>381.3333333333333</ele><time>2026-04-18T07:08:28Z</time></trkpt><trkpt lat="42.665892490694354" lon="11.950265440367637"><ele>384.0</ele><time>2026-04-18T07:08:29Z</time></trkpt><trkpt lat="42.666034313659175" lon="11.950306848907804"><ele>385.75</ele><time>2026-04-18T07:08:30Z</time></trkpt><trkpt lat="42.666136705019966" lon="11.950330260069572"><ele>387.5</ele><time>2026-04-18T07:08:31Z</time></trkpt><trkpt lat="42.66623687158939" lon="11.950329961199065"><ele>389.25</ele><time>2026-04-18T07:08:32Z</time></trkpt><trkpt lat="42.66635047988527" lon="11.950300284140887"><ele>391.0</ele><time>2026-04-18T07:08:33Z</time></trkpt><trkpt lat="42.66648325204256" lon="11.950264574696023"><ele>391.0</ele><time>2026-04-18T07:08:34Z</time></trkpt><trkpt lat="42.66659522081023" lon="11.950230803541519"><ele>391.0</ele><time>2026-04-18T07:08:35Z</time></trkpt><trkpt lat="42.666680340542875" lon="11.950218085333956"><ele>391.0</ele><time>2026-04-18T07:08:36Z</time></trkpt><trkpt lat="42.666758048668235" lon="11.950226198856488"><ele>391.0</ele><time>2026-04-18T07:08:37Z</time></trkpt><trkpt lat="42.66684214143993" lon="11.950247554060315"><ele>391.0</ele><time>2026-04-18T07:08:38Z</time></trkpt><trkpt lat="42.666928071346014" lon="11.950281130589882"><ele>392.4</ele><time>2026-04-18T07:08:39Z</time></trkpt><trkpt lat="42.6670235827507" lon="11.950321452476398"><ele>393.8</ele><time>2026-04-18T07:08:40Z</time></trkpt><trkpt lat="42.667141117365745" lon="11.950352125081839"><ele>395.2</ele><time>2026-04-18T07:08:42Z</time></trkpt><trkpt lat="42.667212494272405" lon="11.950357116491276"><ele>396.59999999999997</ele><time>2026-04-18T07:08:43Z</time></trkpt><trkpt lat="42.667279885397996" lon="11.950383433333698"><ele>398.0</ele><time>2026-04-18T07:08:44Z</time></trkpt><trkpt lat="42.66741020733271" lon="11.950429972993227"><ele>398.0</ele><time>2026-04-18T07:08:46Z</time></trkpt><trkpt lat="42.66748718207973" lon="11.95044185433379"><ele>398.0</ele><time>2026-04-18T07:08:47Z</time></trkpt><trkpt lat="42.66757021341456" lon="11.950457364214685"><ele>398.0</ele><time>2026-04-18T07:08:48Z</time></trkpt><trkpt lat="42.66766471658743" lon="11.950490990475977"><ele>398.0</ele><time>2026-04-18T07:08:49Z</time></trkpt><trkpt lat="42.66778567778014" lon="11.950533048174936"><ele>398.0</ele><time>2026-04-18T07:08:50Z</time></trkpt><trkpt lat="42.66791539110616" lon="11.950568888768581"><ele>399.5</ele><time>2026-04-18T07:08:51Z</time></trkpt><trkpt lat="42.66805233947075" lon="11.950598826134163"><ele>401.0</ele><time>2026-04-18T07:08:52Z</time></trkpt><trkpt lat="42.66816895356016" lon="11.950624345055031"><ele>402.5</ele><time>2026-04-18T07:08:53Z</time></trkpt><trkpt lat="42.66826876686352" lon="11.950648767590467"><ele>404.0</ele><time>2026-04-18T07:08:54Z</time></trkpt><trkpt lat="42.668366689688646" lon="11.95067930485669"><ele>403.99999999999994</ele><time>2026-04-18T07:08:55Z</time></trkpt><trkpt lat="42.668459623568744" lon="11.950703227130171"><ele>404.0</ele><time>2026-04-18T07:08:56Z</time></trkpt><trkpt lat="42.668559913060406" lon="11.95073475518405"><ele>404.0</ele><time>2026-04-18T07:08:57Z</time></trkpt><trkpt lat="42.66865525282585" lon="11.950764541397856"><ele>404.0</ele><time>2026-04-18T07:08:58Z</time></trkpt><trkpt lat="42.66873125275278" lon="11.950792473178133"><ele>403.99999999999994</ele><time>2026-04-18T07:08:59Z</time></trkpt><trkpt lat="42.66879815739322" lon="11.950801745761401"><ele>404.0</ele><time>2026-04-18T07:09:00Z</time></trkpt><trkpt lat="42.6688925604299" lon="11.950768839892131"><ele>405.6</ele><time>2026-04-18T07:09:02Z</time></trkpt><trkpt lat="42.66894612992387" lon="11.950658507406951"><ele>407.2</ele><time>2026-04-18T07:09:04Z</time></trkpt><trkpt lat="42.668977314514926" lon="11.950492105222104"><ele>408.8</ele><time>2026-04-18T07:09:06Z</time></trkpt><trkpt lat="42.66900061915233" lon="11.95036600766297"><ele>410.40000000000003</ele><time>2026-04-18T07:09:07Z</time></trkpt><trkpt lat="42.66902891305528" lon="11.950211216048372"><ele>412.0</ele><time>2026-04-18T07:09:08Z</time></trkpt><trkpt lat="42.66905611381564" lon="11.950033629919597"><ele>412.0</ele><time>2026-04-18T07:09:09Z</time></trkpt><trkpt lat="42.6690857150671" lon="11.949837554275746"><ele>412.0</ele><time>2026-04-18T07:09:10Z</time></trkpt><trkpt lat="42.66911477603469" lon="11.949638719117928"><ele>412.0</ele><time>2026-04-18T07:09:11Z</time></trkpt><trkpt lat="42.66914316390948" lon="11.949459745412884"><ele>412.0</ele><time>2026-04-18T07:09:12Z</time></trkpt><trkpt lat="42.66916999955032" lon="11.949296407425438"><ele>412.0</ele><time>2026-04-18T07:09:13Z</time></trkpt><trkpt lat="42.66919623699116" lon="11.949136152845002"><ele>412.0</ele><time>2026-04-18T07:09:14Z</time></trkpt><trkpt lat="42.66922558647628" lon="11.948961541697876"><ele>412.0</ele><time>2026-04-18T07:09:15Z</time></trkpt><trkpt lat="42.66925663249232" lon="11.948773247768221"><ele>412.0</ele><time>2026-04-18T07:09:16Z</time></trkpt><trkpt lat="42.66928806075749" lon="11.948578513950329"><ele>412.0</ele><time>2026-04-18T07:09:17Z</time></trkpt><trkpt lat="42.66931639773095" lon="11.948386223918998"><ele>412.0</ele><time>2026-04-18T07:09:18Z</time></trkpt><trkpt lat="42.669362768239814" lon="11.948193864276965"><ele>412.0</ele><time>2026-04-18T07:09:19Z</time></trkpt><trkpt lat="42.6694089244036" lon="11.947994695824262"><ele>412.0</ele><time>2026-04-18T07:09:20Z</time></trkpt><trkpt lat="42.669452349491756" lon="11.947787355019024"><ele>413.0</ele><time>2026-04-18T07:09:20.999Z</time></trkpt><trkpt lat="42.669486790751876" lon="11.947598532924832"><ele>414.0</ele><time>2026-04-18T07:09:21.999Z</time></trkpt><trkpt lat="42.669514514510645" lon="11.947415900894535"><ele>415.0</ele><time>2026-04-18T07:09:22.999Z</time></trkpt><trkpt lat="42.66954221866782" lon="11.947243651337661"><ele>416.0</ele><time>2026-04-18T07:09:23.999Z</time></trkpt><trkpt lat="42.6695716398707" lon="11.947072723250113"><ele>416.0</ele><time>2026-04-18T07:09:24.999Z</time></trkpt><trkpt lat="42.669604042179415" lon="11.946894728845962"><ele>416.0</ele><time>2026-04-18T07:09:25.999Z</time></trkpt><trkpt lat="42.669637309685534" lon="11.94670901192484"><ele>416.0</ele><time>2026-04-18T07:09:26.999Z</time></trkpt><trkpt lat="42.66966228543523" lon="11.94653808257725"><ele>416.0</ele><time>2026-04-18T07:09:27.999Z</time></trkpt><trkpt lat="42.66969070574671" lon="11.946373414531294"><ele>416.0</ele><time>2026-04-18T07:09:29Z</time></trkpt><trkpt lat="42.66971634968703" lon="11.946212683562253"><ele>416.0</ele><time>2026-04-18T07:09:30Z</time></trkpt><trkpt lat="42.669740826929235" lon="11.946047514602617"><ele>416.0</ele><time>2026-04-18T07:09:31Z</time></trkpt><trkpt lat="42.66976478161902" lon="11.94588079828795"><ele>416.0</ele><time>2026-04-18T07:09:32Z</time></trkpt><trkpt lat="42.66978897531547" lon="11.945708597292166"><ele>416.0</ele><time>2026-04-18T07:09:33Z</time></trkpt><trkpt lat="42.6698132582684" lon="11.945533435270699"><ele>416.0</ele><time>2026-04-18T07:09:34Z</time></trkpt><trkpt lat="42.66983943572662" lon="11.945366078262925"><ele>416.0</ele><time>2026-04-18T07:09:35Z</time></trkpt><trkpt lat="42.66985946669854" lon="11.945206537729627"><ele>416.0</ele><time>2026-04-18T07:09:36Z</time></trkpt><trkpt lat="42.669872081414276" lon="11.945029318687126"><ele>415.75</ele><time>2026-04-18T07:09:37Z</time></trkpt><trkpt lat="42.66988075297296" lon="11.944835073161483"><ele>415.5</ele><time>2026-04-18T07:09:38Z</time></trkpt><trkpt lat="42.66988653709701" lon="11.944652413624139"><ele>415.25</ele><time>2026-04-18T07:09:39Z</time></trkpt><trkpt lat="42.6698974479247" lon="11.94447246515017"><ele>415.0</ele><time>2026-04-18T07:09:40Z</time></trkpt><trkpt lat="42.669915707668345" lon="11.944288579694058"><ele>414.25</ele><time>2026-04-18T07:09:41Z</time></trkpt><trkpt lat="42.6699345205313" lon="11.944113424838664"><ele>413.5</ele><time>2026-04-18T07:09:42Z</time></trkpt><trkpt lat="42.66995454350455" lon="11.943938556416768"><ele>412.75</ele><time>2026-04-18T07:09:43Z</time></trkpt><trkpt lat="42.66997866668267" lon="11.943756046122111"><ele>412.0</ele><time>2026-04-18T07:09:44Z</time></trkpt><trkpt lat="42.669996592888985" lon="11.94356637856916"><ele>411.75</ele><time>2026-04-18T07:09:45Z</time></trkpt><trkpt lat="42.670015342499994" lon="11.943368246878974"><ele>411.5</ele><time>2026-04-18T07:09:46Z</time></trkpt><trkpt lat="42.67002933120964" lon="11.943159608117279"><ele>411.25</ele><time>2026-04-18T07:09:47Z</time></trkpt><trkpt lat="42.67004299265537" lon="11.942968987963466"><ele>411.0</ele><time>2026-04-18T07:09:48Z</time></trkpt><trkpt lat="42.67005879715978" lon="11.942783751857009"><ele>411.0</ele><time>2026-04-18T07:09:49Z</time></trkpt><trkpt lat="42.67007940139319" lon="11.942598681204748"><ele>411.0</ele><time>2026-04-18T07:09:50Z</time></trkpt><trkpt lat="42.67009697650334" lon="11.942405116808164"><ele>411.0</ele><time>2026-04-18T07:09:51Z</time></trkpt><trkpt lat="42.67010959885499" lon="11.94220905472358"><ele>411.0</ele><time>2026-04-18T07:09:52Z</time></trkpt><trkpt lat="42.67012238176842" lon="11.942021736516107"><ele>411.0</ele><time>2026-04-18T07:09:53Z</time></trkpt><trkpt lat="42.670138247517585" lon="11.941851277881444"><ele>411.0</ele><time>2026-04-18T07:09:54Z</time></trkpt><trkpt lat="42.67015697174807" lon="11.941677104168022"><ele>411.0</ele><time>2026-04-18T07:09:55Z</time></trkpt><trkpt lat="42.67017575088274" lon="11.941499697048425"><ele>411.0</ele><time>2026-04-18T07:09:56Z</time></trkpt><trkpt lat="42.67020118443553" lon="11.941336169216136"><ele>411.0</ele><time>2026-04-18T07:09:57Z</time></trkpt><trkpt lat="42.67023268250709" lon="11.94120005225631"><ele>411.0</ele><time>2026-04-18T07:09:58Z</time></trkpt><trkpt lat="42.67027122960188" lon="11.941080897115167"><ele>411.0</ele><time>2026-04-18T07:09:59Z</time></trkpt><trkpt lat="42.6703295107876" lon="11.940954536039627"><ele>411.0</ele><time>2026-04-18T07:10:00Z</time></trkpt><trkpt lat="42.67039337060415" lon="11.940817494668705"><ele>411.0</ele><time>2026-04-18T07:10:01Z</time></trkpt><trkpt lat="42.670453202542234" lon="11.940653238650343"><ele>410.6</ele><time>2026-04-18T07:10:02Z</time></trkpt><trkpt lat="42.67050279180644" lon="11.940478498071881"><ele>410.20000000000005</ele><time>2026-04-18T07:10:03Z</time></trkpt><trkpt lat="42.67053932007289" lon="11.940340787014065"><ele>409.79999999999995</ele><time>2026-04-18T07:10:04Z</time></trkpt><trkpt lat="42.67056396184881" lon="11.940226629250681"><ele>409.4</ele><time>2026-04-18T07:10:05Z</time></trkpt><trkpt lat="42.670585724610696" lon="11.940127317146443"><ele>409.0</ele><time>2026-04-18T07:10:06Z</time></trkpt><trkpt lat="42.670613817682565" lon="11.940027329961218"><ele>409.00000000000006</ele><time>2026-04-18T07:10:07Z</time></trkpt><trkpt lat="42.67064913526359" lon="11.939929633177686"><ele>409.0</ele><time>2026-04-18T07:10:08Z</time></trkpt><trkpt lat="42.67070637495253" lon="11.939837314527864"><ele>409.0</ele><time>2026-04-18T07:10:09Z</time></trkpt><trkpt lat="42.670774518330525" lon="11.939756774254313"><ele>409.0</ele><time>2026-04-18T07:10:10Z</time></trkpt><trkpt lat="42.6708316567364" lon="11.939664232282398"><ele>409.00000000000006</ele><time>2026-04-18T07:10:11Z</time></trkpt><trkpt lat="42.67087121971294" lon="11.939560561051033"><ele>409.0</ele><time>2026-04-18T07:10:12Z</time></trkpt><trkpt lat="42.67089579193158" lon="11.939455859403116"><ele>409.00000000000006</ele><time>2026-04-18T07:10:13Z</time></trkpt><trkpt lat="42.67091885039957" lon="11.939344886645788"><ele>409.0</ele><time>2026-04-18T07:10:14Z</time></trkpt><trkpt lat="42.670943798153466" lon="11.939234451274324"><ele>409.0</ele><time>2026-04-18T07:10:15Z</time></trkpt><trkpt lat="42.67097156512033" lon="11.939112525503097"><ele>409.0</ele><time>2026-04-18T07:10:16Z</time></trkpt><trkpt lat="42.67099284425218" lon="11.93899904003735"><ele>409.00000000000006</ele><time>2026-04-18T07:10:17Z</time></trkpt><trkpt lat="42.67101952924307" lon="11.93887407700045"><ele>409.0</ele><time>2026-04-18T07:10:18Z</time></trkpt><trkpt lat="42.6710532450628" lon="11.938742997009491"><ele>408.1666666666667</ele><time>2026-04-18T07:10:19Z</time></trkpt><trkpt lat="42.67108285792616" lon="11.938621643678395"><ele>407.33333333333337</ele><time>2026-04-18T07:10:20Z</time></trkpt><trkpt lat="42.67111401946243" lon="11.938515108940953"><ele>406.5</ele><time>2026-04-18T07:10:21Z</time></trkpt><trkpt lat="42.671140764391104" lon="11.938424847031303"><ele>405.66666666666663</ele><time>2026-04-18T07:10:22Z</time></trkpt><trkpt lat="42.67116410158783" lon="11.938336908604372"><ele>404.8333333333333</ele><time>2026-04-18T07:10:23Z</time></trkpt><trkpt lat="42.67118359871111" lon="11.938255440273897"><ele>404.0</ele><time>2026-04-18T07:10:24Z</time></trkpt><trkpt lat="42.67121759643183" lon="11.93811693664195"><ele>404.0</ele><time>2026-04-18T07:10:26Z</time></trkpt><trkpt lat="42.67128171133646" lon="11.937967645446019"><ele>404.0</ele><time>2026-04-18T07:10:28Z</time></trkpt><trkpt lat="42.67138029597396" lon="11.937869479962592"><ele>404.0</ele><time>2026-04-18T07:10:30Z</time></trkpt><trkpt lat="42.67145905387617" lon="11.93782268461475"><ele>404.0</ele><time>2026-04-18T07:10:31Z</time></trkpt><trkpt lat="42.67155352497509" lon="11.937781034260071"><ele>404.0</ele><time>2026-04-18T07:10:32Z</time></trkpt><trkpt lat="42.67164230797951" lon="11.9377447094847"><ele>404.0</ele><time>2026-04-18T07:10:33Z</time></trkpt><trkpt lat="42.671731450211254" lon="11.937704946126821"><ele>404.0</ele><time>2026-04-18T07:10:34Z</time></trkpt><trkpt lat="42.67181627561537" lon="11.937666982522517"><ele>404.0</ele><time>2026-04-18T07:10:35Z</time></trkpt><trkpt lat="42.67190712189607" lon="11.937627906226329"><ele>404.0</ele><time>2026-04-18T07:10:36Z</time></trkpt><trkpt lat="42.671997018545866" lon="11.937579539103318"><ele>404.0</ele><time>2026-04-18T07:10:37Z</time></trkpt><trkpt lat="42.67208410489463" lon="11.937532342243102"><ele>403.16666666666663</ele><time>2026-04-18T07:10:38Z</time></trkpt><trkpt lat="42.672165246788886" lon="11.937497290156413"><ele>402.3333333333333</ele><time>2026-04-18T07:10:39Z</time></trkpt><trkpt lat="42.67224508008456" lon="11.937481603440212"><ele>401.5</ele><time>2026-04-18T07:10:40Z</time></trkpt><trkpt lat="42.672309831170274" lon="11.937475254206493"><ele>400.66666666666663</ele><time>2026-04-18T07:10:41Z</time></trkpt><trkpt lat="42.67242727024246" lon="11.93742562885579"><ele>399.8333333333333</ele><time>2026-04-18T07:10:43Z</time></trkpt><trkpt lat="42.6725036219928" lon="11.937389960129154"><ele>399.0</ele><time>2026-04-18T07:10:44Z</time></trkpt><trkpt lat="42.672600552333265" lon="11.93735051859978"><ele>399.0</ele><time>2026-04-18T07:10:45Z</time></trkpt><trkpt lat="42.67267267981211" lon="11.93731757150367"><ele>399.0</ele><time>2026-04-18T07:10:46Z</time></trkpt><trkpt lat="42.672742850077775" lon="11.937288534114382"><ele>399.0</ele><time>2026-04-18T07:10:47Z</time></trkpt><trkpt lat="42.672817430620974" lon="11.93725890206729"><ele>399.0</ele><time>2026-04-18T07:10:48Z</time></trkpt><trkpt lat="42.672890850532056" lon="11.93723271610087"><ele>399.0</ele><time>2026-04-18T07:10:49Z</time></trkpt><trkpt lat="42.67296601805772" lon="11.93720759579623"><ele>399.0</ele><time>2026-04-18T07:10:50Z</time></trkpt><trkpt lat="42.673040078772615" lon="11.937180649087969"><ele>401.0</ele><time>2026-04-18T07:10:51Z</time></trkpt><trkpt lat="42.673113844396745" lon="11.937166367864288"><ele>403.0</ele><time>2026-04-18T07:10:52Z</time></trkpt><trkpt lat="42.6731809765196" lon="11.9371680909229"><ele>405.0</ele><time>2026-04-18T07:10:53Z</time></trkpt><trkpt lat="42.67329969906399" lon="11.93710748891391"><ele>407.0</ele><time>2026-04-18T07:10:55Z</time></trkpt><trkpt lat="42.673337302244846" lon="11.937036081957704"><ele>409.0</ele><time>2026-04-18T07:10:56Z</time></trkpt><trkpt lat="42.67335380787067" lon="11.936928178948898"><ele>411.0</ele><time>2026-04-18T07:10:57Z</time></trkpt><trkpt lat="42.67334310302105" lon="11.93681068488245"><ele>410.3333333333333</ele><time>2026-04-18T07:10:58Z</time></trkpt><trkpt lat="42.67333936034863" lon="11.936688219692165"><ele>409.66666666666663</ele><time>2026-04-18T07:10:59Z</time></trkpt><trkpt lat="42.67333614207354" lon="11.936569388722997"><ele>409.0</ele><time>2026-04-18T07:11:00Z</time></trkpt><trkpt lat="42.6733339450274" lon="11.936454215086945"><ele>408.3333333333333</ele><time>2026-04-18T07:11:01Z</time></trkpt><trkpt lat="42.67331669040642" lon="11.93633503436873"><ele>407.66666666666663</ele><time>2026-04-18T07:11:02Z</time></trkpt><trkpt lat="42.67328748147664" lon="11.936217431333304"><ele>407.0</ele><time>2026-04-18T07:11:03Z</time></trkpt><trkpt lat="42.673255126271094" lon="11.936105744710064"><ele>407.0</ele><time>2026-04-18T07:11:04Z</time></trkpt><trkpt lat="42.67323121374115" lon="11.935986136486775"><ele>407.0</ele><time>2026-04-18T07:11:05Z</time></trkpt><trkpt lat="42.673222023923756" lon="11.935849737761757"><ele>407.0</ele><time>2026-04-18T07:11:06Z</time></trkpt><trkpt lat="42.67322020425272" lon="11.935706147930485"><ele>407.0</ele><time>2026-04-18T07:11:07.001Z</time></trkpt><trkpt lat="42.67321933923497" lon="11.935565862814103"><ele>407.0</ele><time>2026-04-18T07:11:08.001Z</time></trkpt><trkpt lat="42.67321211982613" lon="11.935390379585941"><ele>405.25</ele><time>2026-04-18T07:11:09.001Z</time></trkpt><trkpt lat="42.673200451773155" lon="11.935186683218042"><ele>403.5</ele><time>2026-04-18T07:11:10.001Z</time></trkpt><trkpt lat="42.67319185522571" lon="11.934974919888436"><ele>401.75</ele><time>2026-04-18T07:11:11.001Z</time></trkpt><trkpt lat="42.67318783309635" lon="11.934790018811782"><ele>400.0</ele><time>2026-04-18T07:11:12.001Z</time></trkpt><trkpt lat="42.67318289984222" lon="11.934617316836835"><ele>400.0</ele><time>2026-04-18T07:11:13.001Z</time></trkpt><trkpt lat="42.673178240912776" lon="11.934449996608937"><ele>400.0</ele><time>2026-04-18T07:11:14.001Z</time></trkpt><trkpt lat="42.673165694868885" lon="11.934284299465386"><ele>400.0</ele><time>2026-04-18T07:11:15.001Z</time></trkpt><trkpt lat="42.67315120859958" lon="11.934112450093204"><ele>400.0</ele><time>2026-04-18T07:11:16.001Z</time></trkpt><trkpt lat="42.67313584731549" lon="11.93392934601844"><ele>400.75</ele><time>2026-04-18T07:11:17.001Z</time></trkpt><trkpt lat="42.67313301631829" lon="11.933736632992956"><ele>401.5</ele><time>2026-04-18T07:11:18.001Z</time></trkpt><trkpt lat="42.673138337618155" lon="11.933557176814626"><ele>402.25</ele><time>2026-04-18T07:11:19.001Z</time></trkpt><trkpt lat="42.67314306720089" lon="11.933379310849134"><ele>403.0</ele><time>2026-04-18T07:11:20.001Z</time></trkpt><trkpt lat="42.67314638490924" lon="11.933203900738912"><ele>403.5</ele><time>2026-04-18T07:11:21.001Z</time></trkpt><trkpt lat="42.67315037268929" lon="11.933016972199948"><ele>404.0</ele><time>2026-04-18T07:11:22.001Z</time></trkpt><trkpt lat="42.673151052777854" lon="11.932824124380698"><ele>404.5</ele><time>2026-04-18T07:11:23.001Z</time></trkpt><trkpt lat="42.673141222061865" lon="11.932654402481665"><ele>405.0</ele><time>2026-04-18T07:11:24.001Z</time></trkpt><trkpt lat="42.67312994617132" lon="11.93249626851468"><ele>407.0</ele><time>2026-04-18T07:11:25.001Z</time></trkpt><trkpt lat="42.67311915711266" lon="11.932342937555719"><ele>409.0</ele><time>2026-04-18T07:11:26.001Z</time></trkpt><trkpt lat="42.673111010252626" lon="11.932186562633506"><ele>411.0</ele><time>2026-04-18T07:11:27Z</time></trkpt><trkpt lat="42.673103625555335" lon="11.932032309369609"><ele>413.0</ele><time>2026-04-18T07:11:28Z</time></trkpt><trkpt lat="42.67309503793288" lon="11.931872976336916"><ele>413.0</ele><time>2026-04-18T07:11:29Z</time></trkpt><trkpt lat="42.67309335604525" lon="11.931726549951089"><ele>413.0</ele><time>2026-04-18T07:11:30Z</time></trkpt><trkpt lat="42.6730921845707" lon="11.931585129491118"><ele>413.0</ele><time>2026-04-18T07:11:31Z</time></trkpt><trkpt lat="42.67308634143328" lon="11.931448869002146"><ele>413.0</ele><time>2026-04-18T07:11:32Z</time></trkpt><trkpt lat="42.67308253102347" lon="11.931316217057214"><ele>413.0</ele><time>2026-04-18T07:11:33Z</time></trkpt><trkpt lat="42.67307724018102" lon="11.931186037668606"><ele>414.4</ele><time>2026-04-18T07:11:34Z</time></trkpt><trkpt lat="42.673071145471766" lon="11.931037946035664"><ele>415.79999999999995</ele><time>2026-04-18T07:11:35Z</time></trkpt><trkpt lat="42.67307291876357" lon="11.930884559982506"><ele>417.2</ele><time>2026-04-18T07:11:36Z</time></trkpt><trkpt lat="42.67308015373825" lon="11.930731411467477"><ele>418.6</ele><time>2026-04-18T07:11:37Z</time></trkpt><trkpt lat="42.67309956580433" lon="11.930594072512784"><ele>420.0</ele><time>2026-04-18T07:11:38Z</time></trkpt><trkpt lat="42.673148867326006" lon="11.930467241924175"><ele>421.2</ele><time>2026-04-18T07:11:39Z</time></trkpt><trkpt lat="42.67322021209044" lon="11.93036585072522"><ele>422.4</ele><time>2026-04-18T07:11:40Z</time></trkpt><trkpt lat="42.673294402029235" lon="11.930287372923422"><ele>423.6</ele><time>2026-04-18T07:11:41Z</time></trkpt><trkpt lat="42.67334440656668" lon="11.930198925346986"><ele>424.8</ele><time>2026-04-18T07:11:42Z</time></trkpt><trkpt lat="42.6733533352679" lon="11.930055224957702"><ele>426.0</ele><time>2026-04-18T07:11:43Z</time></trkpt><trkpt lat="42.67335645062537" lon="11.929882601252505"><ele>427.75</ele><time>2026-04-18T07:11:44Z</time></trkpt><trkpt lat="42.67334543836766" lon="11.929702933043087"><ele>429.5</ele><time>2026-04-18T07:11:45Z</time></trkpt><trkpt lat="42.6733427445664" lon="11.929511555620449"><ele>431.25</ele><time>2026-04-18T07:11:46Z</time></trkpt><trkpt lat="42.6733439821794" lon="11.92935265944617"><ele>433.0</ele><time>2026-04-18T07:11:47Z</time></trkpt><trkpt lat="42.67334684493897" lon="11.929207733039432"><ele>434.25</ele><time>2026-04-18T07:11:48Z</time></trkpt><trkpt lat="42.67334574732419" lon="11.929054163893522"><ele>435.5</ele><time>2026-04-18T07:11:49Z</time></trkpt><trkpt lat="42.67334986413047" lon="11.928889594072725"><ele>436.75</ele><time>2026-04-18T07:11:50Z</time></trkpt><trkpt lat="42.6733630957688" lon="11.928722839455425"><ele>438.0</ele><time>2026-04-18T07:11:51Z</time></trkpt><trkpt lat="42.673376678075996" lon="11.92856034187447"><ele>438.0</ele><time>2026-04-18T07:11:52Z</time></trkpt><trkpt lat="42.673393184473774" lon="11.92840776038088"><ele>437.99999999999994</ele><time>2026-04-18T07:11:53Z</time></trkpt><trkpt lat="42.67341630985785" lon="11.928259338576776"><ele>437.99999999999994</ele><time>2026-04-18T07:11:54Z</time></trkpt><trkpt lat="42.67345633235006" lon="11.92812430927113"><ele>438.0</ele><time>2026-04-18T07:11:55Z</time></trkpt><trkpt lat="42.673491893224416" lon="11.928022742791791"><ele>438.0</ele><time>2026-04-18T07:11:56Z</time></trkpt><trkpt lat="42.67355654416179" lon="11.927965841274927"><ele>441.79999999999995</ele><time>2026-04-18T07:11:57Z</time></trkpt><trkpt lat="42.673617740579076" lon="11.927905411933565"><ele>445.59999999999997</ele><time>2026-04-18T07:11:58Z</time></trkpt><trkpt lat="42.67369364765275" lon="11.927846533749696"><ele>449.40000000000003</ele><time>2026-04-18T07:11:59Z</time></trkpt><trkpt lat="42.673778656437364" lon="11.92780302916161"><ele>453.20000000000005</ele><time>2026-04-18T07:12:00Z</time></trkpt><trkpt lat="42.673878410175355" lon="11.927762818659549"><ele>457.0</ele><time>2026-04-18T07:12:01Z</time></trkpt><trkpt lat="42.67398234265568" lon="11.927731200635906"><ele>457.0</ele><time>2026-04-18T07:12:02Z</time></trkpt><trkpt lat="42.67408512078658" lon="11.927706752841953"><ele>457.00000000000006</ele><time>2026-04-18T07:12:03Z</time></trkpt><trkpt lat="42.674190613188" lon="11.927670666207392"><ele>457.00000000000006</ele><time>2026-04-18T07:12:04Z</time></trkpt><trkpt lat="42.67429160393481" lon="11.927640582750517"><ele>457.0</ele><time>2026-04-18T07:12:05Z</time></trkpt><trkpt lat="42.67439679275792" lon="11.927630066803637"><ele>457.0</ele><time>2026-04-18T07:12:06Z</time></trkpt><trkpt lat="42.67449136614716" lon="11.927636108863558"><ele>458.0</ele><time>2026-04-18T07:12:07Z</time></trkpt><trkpt lat="42.67458453840318" lon="11.927640381288793"><ele>459.00000000000006</ele><time>2026-04-18T07:12:08Z</time></trkpt><trkpt lat="42.674682573008766" lon="11.927641704763866"><ele>460.00000000000006</ele><time>2026-04-18T07:12:09Z</time></trkpt><trkpt lat="42.67478414544644" lon="11.927644109602475"><ele>461.0</ele><time>2026-04-18T07:12:10Z</time></trkpt><trkpt lat="42.67488093286789" lon="11.927652762518079"><ele>462.0</ele><time>2026-04-18T07:12:11Z</time></trkpt><trkpt lat="42.674965626138906" lon="11.927657146452049"><ele>462.0</ele><time>2026-04-18T07:12:12Z</time></trkpt><trkpt lat="42.67503470143831" lon="11.92766905597994"><ele>462.0</ele><time>2026-04-18T07:12:13Z</time></trkpt><trkpt lat="42.67510068616037" lon="11.927679819205643"><ele>462.0</ele><time>2026-04-18T07:12:14Z</time></trkpt><trkpt lat="42.675174524624346" lon="11.927688451016598"><ele>462.0</ele><time>2026-04-18T07:12:15Z</time></trkpt><trkpt lat="42.67525922190486" lon="11.927708221650253"><ele>462.0</ele><time>2026-04-18T07:12:16Z</time></trkpt><trkpt lat="42.67533900518759" lon="11.927735918760604"><ele>462.0</ele><time>2026-04-18T07:12:17Z</time></trkpt><trkpt lat="42.675421983686405" lon="11.927776739460858"><ele>459.20000000000005</ele><time>2026-04-18T07:12:18Z</time></trkpt><trkpt lat="42.67550677246442" lon="11.927829666825883"><ele>456.40000000000003</ele><time>2026-04-18T07:12:19Z</time></trkpt><trkpt lat="42.675587860048154" lon="11.927903701306812"><ele>453.59999999999997</ele><time>2026-04-18T07:12:20Z</time></trkpt><trkpt lat="42.67566970930292" lon="11.92798779003736"><ele>450.79999999999995</ele><time>2026-04-18T07:12:21Z</time></trkpt><trkpt lat="42.67575486727147" lon="11.92807619427624"><ele>448.0</ele><time>2026-04-18T07:12:22Z</time></trkpt><trkpt lat="42.6758399783983" lon="11.928169549675907"><ele>448.0</ele><time>2026-04-18T07:12:23Z</time></trkpt><trkpt lat="42.675932671970095" lon="11.92826260902804"><ele>447.99999999999994</ele><time>2026-04-18T07:12:24Z</time></trkpt><trkpt lat="42.676033124569" lon="11.928351883936422"><ele>447.99999999999994</ele><time>2026-04-18T07:12:25Z</time></trkpt><trkpt lat="42.67612187427591" lon="11.928425581334123"><ele>448.0</ele><time>2026-04-18T07:12:26Z</time></trkpt><trkpt lat="42.6762043972218" lon="11.928489203964322"><ele>448.0</ele><time>2026-04-18T07:12:27Z</time></trkpt><trkpt lat="42.676270351229846" lon="11.928546190740681"><ele>448.2</ele><time>2026-04-18T07:12:28Z</time></trkpt><trkpt lat="42.6763400973095" lon="11.928603938913076"><ele>448.4</ele><time>2026-04-18T07:12:29Z</time></trkpt><trkpt lat="42.676408906062015" lon="11.928647121130663"><ele>448.59999999999997</ele><time>2026-04-18T07:12:30Z</time></trkpt><trkpt lat="42.67648165196382" lon="11.928686047336155"><ele>448.79999999999995</ele><time>2026-04-18T07:12:31Z</time></trkpt><trkpt lat="42.676613008650875" lon="11.928692432509123"><ele>449.0</ele><time>2026-04-18T07:12:33Z</time></trkpt><trkpt lat="42.676686567234576" lon="11.928625889411949"><ele>449.0</ele><time>2026-04-18T07:12:34Z</time></trkpt><trkpt lat="42.676743530012715" lon="11.92852615146485"><ele>449.0</ele><time>2026-04-18T07:12:35Z</time></trkpt><trkpt lat="42.67677549933922" lon="11.92839618842226"><ele>449.0</ele><time>2026-04-18T07:12:36Z</time></trkpt><trkpt lat="42.676798255698735" lon="11.92824542841414"><ele>449.0</ele><time>2026-04-18T07:12:37Z</time></trkpt><trkpt lat="42.67681024636834" lon="11.928089854273402"><ele>449.0</ele><time>2026-04-18T07:12:38Z</time></trkpt><trkpt lat="42.67682287871926" lon="11.927934620903518"><ele>447.5</ele><time>2026-04-18T07:12:39Z</time></trkpt><trkpt lat="42.676846875740175" lon="11.92777724772766"><ele>446.0</ele><time>2026-04-18T07:12:40Z</time></trkpt><trkpt lat="42.67689902981682" lon="11.927618840426776"><ele>444.5</ele><time>2026-04-18T07:12:41Z</time></trkpt><trkpt lat="42.67694850199594" lon="11.92747395991887"><ele>443.0</ele><time>2026-04-18T07:12:42.001Z</time></trkpt><trkpt lat="42.6769903943856" lon="11.927333947542252"><ele>443.0</ele><time>2026-04-18T07:12:43.001Z</time></trkpt><trkpt lat="42.677024044793505" lon="11.92718620125466"><ele>443.0</ele><time>2026-04-18T07:12:44.001Z</time></trkpt><trkpt lat="42.677064998233575" lon="11.927029565193665"><ele>443.0</ele><time>2026-04-18T07:12:45.001Z</time></trkpt><trkpt lat="42.67711427153746" lon="11.926884468986776"><ele>443.0</ele><time>2026-04-18T07:12:46.001Z</time></trkpt><trkpt lat="42.67718256539356" lon="11.926751457638236"><ele>441.59999999999997</ele><time>2026-04-18T07:12:47.001Z</time></trkpt><trkpt lat="42.67724519892487" lon="11.926631298982963"><ele>440.19999999999993</ele><time>2026-04-18T07:12:48.001Z</time></trkpt><trkpt lat="42.67730517522937" lon="11.926518098813366"><ele>438.8</ele><time>2026-04-18T07:12:49.001Z</time></trkpt><trkpt lat="42.67737131069236" lon="11.926401003610854"><ele>437.4</ele><time>2026-04-18T07:12:50.001Z</time></trkpt><trkpt lat="42.6774386212979" lon="11.926284935584468"><ele>436.0</ele><time>2026-04-18T07:12:51.001Z</time></trkpt><trkpt lat="42.677512543427774" lon="11.926170757598529"><ele>436.00000000000006</ele><time>2026-04-18T07:12:52.001Z</time></trkpt><trkpt lat="42.67758703404306" lon="11.926071380377175"><ele>436.0</ele><time>2026-04-18T07:12:53.001Z</time></trkpt><trkpt lat="42.677657396169465" lon="11.925979900542394"><ele>436.0</ele><time>2026-04-18T07:12:54.001Z</time></trkpt><trkpt lat="42.67772406146611" lon="11.925905574840826"><ele>436.0</ele><time>2026-04-18T07:12:55.001Z</time></trkpt><trkpt lat="42.677784257528536" lon="11.925848442938157"><ele>436.00000000000006</ele><time>2026-04-18T07:12:56.001Z</time></trkpt><trkpt lat="42.67784639218817" lon="11.925807132822635"><ele>436.0</ele><time>2026-04-18T07:12:57.001Z</time></trkpt><trkpt lat="42.67792332937963" lon="11.925773922503218"><ele>437.0</ele><time>2026-04-18T07:12:58.001Z</time></trkpt><trkpt lat="42.67802116155506" lon="11.925751514462032"><ele>438.0</ele><time>2026-04-18T07:12:59.001Z</time></trkpt><trkpt lat="42.67813507884726" lon="11.925750883180067"><ele>439.0</ele><time>2026-04-18T07:13:00.001Z</time></trkpt><trkpt lat="42.67825406216933" lon="11.925755367832142"><ele>440.0</ele><time>2026-04-18T07:13:01.001Z</time></trkpt><trkpt lat="42.67836535669542" lon="11.925765653983904"><ele>441.0</ele><time>2026-04-18T07:13:02.001Z</time></trkpt><trkpt lat="42.67845800597986" lon="11.925772011981866"><ele>441.0</ele><time>2026-04-18T07:13:03.001Z</time></trkpt><trkpt lat="42.67854851797127" lon="11.925762835078107"><ele>441.0</ele><time>2026-04-18T07:13:04.001Z</time></trkpt><trkpt lat="42.67863498920758" lon="11.925718087899725"><ele>441.0</ele><time>2026-04-18T07:13:05.001Z</time></trkpt><trkpt lat="42.678724993288306" lon="11.925642689820021"><ele>441.0</ele><time>2026-04-18T07:13:06.001Z</time></trkpt><trkpt lat="42.67879441700553" lon="11.925546064091314"><ele>441.0</ele><time>2026-04-18T07:13:07.001Z</time></trkpt><trkpt lat="42.678837407849905" lon="11.925436431407519"><ele>443.6</ele><time>2026-04-18T07:13:08.001Z</time></trkpt><trkpt lat="42.67886130536382" lon="11.925326690411222"><ele>446.20000000000005</ele><time>2026-04-18T07:13:09.001Z</time></trkpt><trkpt lat="42.678879306943394" lon="11.925205600016021"><ele>448.79999999999995</ele><time>2026-04-18T07:13:10.001Z</time></trkpt><trkpt lat="42.67888933324606" lon="11.925067923108884"><ele>451.4</ele><time>2026-04-18T07:13:11.001Z</time></trkpt><trkpt lat="42.67890224324371" lon="11.924918023162723"><ele>454.0</ele><time>2026-04-18T07:13:12.001Z</time></trkpt><trkpt lat="42.67890535896432" lon="11.9247708415137"><ele>454.0</ele><time>2026-04-18T07:13:13.001Z</time></trkpt><trkpt lat="42.67890367780983" lon="11.924630359745672"><ele>454.0</ele><time>2026-04-18T07:13:14.001Z</time></trkpt><trkpt lat="42.67890107133428" lon="11.924501073677066"><ele>454.0</ele><time>2026-04-18T07:13:15.001Z</time></trkpt><trkpt lat="42.6788829547093" lon="11.924376259130982"><ele>454.0</ele><time>2026-04-18T07:13:16.001Z</time></trkpt><trkpt lat="42.67886001279276" lon="11.924243387401804"><ele>454.0</ele><time>2026-04-18T07:13:17.001Z</time></trkpt><trkpt lat="42.6788504023764" lon="11.9241109323782"><ele>452.79999999999995</ele><time>2026-04-18T07:13:18.001Z</time></trkpt><trkpt lat="42.67884445293019" lon="11.923979308933568"><ele>451.59999999999997</ele><time>2026-04-18T07:13:19.001Z</time></trkpt><trkpt lat="42.67885536840408" lon="11.923849816148918"><ele>450.4</ele><time>2026-04-18T07:13:20.001Z</time></trkpt><trkpt lat="42.678873246377584" lon="11.923730715175978"><ele>449.2</ele><time>2026-04-18T07:13:21.001Z</time></trkpt><trkpt lat="42.67889966993072" lon="11.923604560498672"><ele>448.0</ele><time>2026-04-18T07:13:22.001Z</time></trkpt><trkpt lat="42.67895923226396" lon="11.923453367860793"><ele>444.0</ele><time>2026-04-18T07:13:23.001Z</time></trkpt><trkpt lat="42.67904400865224" lon="11.923279123387431"><ele>440.0</ele><time>2026-04-18T07:13:24.001Z</time></trkpt><trkpt lat="42.67913619536613" lon="11.923098677931241"><ele>436.0</ele><time>2026-04-18T07:13:25.001Z</time></trkpt><trkpt lat="42.67922357512466" lon="11.922936395239219"><ele>436.0</ele><time>2026-04-18T07:13:26.001Z</time></trkpt><trkpt lat="42.67930751973687" lon="11.92278994818593"><ele>436.0</ele><time>2026-04-18T07:13:27.001Z</time></trkpt><trkpt lat="42.679376862968375" lon="11.92265599175591"><ele>436.0</ele><time>2026-04-18T07:13:28.001Z</time></trkpt><trkpt lat="42.679448718223775" lon="11.922525764020856"><ele>436.0</ele><time>2026-04-18T07:13:29.001Z</time></trkpt><trkpt lat="42.67950679030353" lon="11.922389991557075"><ele>434.8</ele><time>2026-04-18T07:13:30.001Z</time></trkpt><trkpt lat="42.67956446257063" lon="11.922252868630249"><ele>433.6</ele><time>2026-04-18T07:13:31.001Z</time></trkpt><trkpt lat="42.67961008199803" lon="11.922126467725187"><ele>432.4</ele><time>2026-04-18T07:13:32.001Z</time></trkpt><trkpt lat="42.67964207657306" lon="11.922005948685344"><ele>431.2</ele><time>2026-04-18T07:13:33Z</time></trkpt><trkpt lat="42.67964078711306" lon="11.921879991056073"><ele>430.0</ele><time>2026-04-18T07:13:34Z</time></trkpt><trkpt lat="42.6796217288474" lon="11.921747164687895"><ele>429.0</ele><time>2026-04-18T07:13:35Z</time></trkpt><trkpt lat="42.67958671104047" lon="11.921601029898778"><ele>428.0</ele><time>2026-04-18T07:13:36Z</time></trkpt><trkpt lat="42.679534240460725" lon="11.92146812458858"><ele>427.0</ele><time>2026-04-18T07:13:37Z</time></trkpt><trkpt lat="42.67947367098536" lon="11.921349624552716"><ele>426.0</ele><time>2026-04-18T07:13:38Z</time></trkpt><trkpt lat="42.67940639700701" lon="11.921225613440361"><ele>425.0</ele><time>2026-04-18T07:13:39Z</time></trkpt><trkpt lat="42.67932136020577" lon="11.921091042818736"><ele>422.8</ele><time>2026-04-18T07:13:40Z</time></trkpt><trkpt lat="42.679227159067516" lon="11.920966906126935"><ele>420.6</ele><time>2026-04-18T07:13:41Z</time></trkpt><trkpt lat="42.67914766440273" lon="11.920855912557247"><ele>418.4</ele><time>2026-04-18T07:13:42Z</time></trkpt><trkpt lat="42.67907993031809" lon="11.920744686318177"><ele>416.2</ele><time>2026-04-18T07:13:43Z</time></trkpt><trkpt lat="42.67902906550065" lon="11.92063084985077"><ele>414.0</ele><time>2026-04-18T07:13:44Z</time></trkpt><trkpt lat="42.67900231718907" lon="11.92052725649851"><ele>414.0</ele><time>2026-04-18T07:13:45Z</time></trkpt><trkpt lat="42.67898762495608" lon="11.920399009777086"><ele>414.0</ele><time>2026-04-18T07:13:46Z</time></trkpt><trkpt lat="42.67899532863873" lon="11.920264933453929"><ele>414.0</ele><time>2026-04-18T07:13:47Z</time></trkpt><trkpt lat="42.6790224456759" lon="11.92012912766523"><ele>414.0</ele><time>2026-04-18T07:13:48Z</time></trkpt><trkpt lat="42.67906209055066" lon="11.9199864896187"><ele>414.0</ele><time>2026-04-18T07:13:49Z</time></trkpt><trkpt lat="42.679118471073146" lon="11.919858045650454"><ele>414.75</ele><time>2026-04-18T07:13:50Z</time></trkpt><trkpt lat="42.67918735937155" lon="11.91973012706236"><ele>415.5</ele><time>2026-04-18T07:13:51Z</time></trkpt><trkpt lat="42.67926819004997" lon="11.919599669736538"><ele>416.25</ele><time>2026-04-18T07:13:52Z</time></trkpt><trkpt lat="42.67936059415751" lon="11.919466830698367"><ele>417.0</ele><time>2026-04-18T07:13:53Z</time></trkpt><trkpt lat="42.679447736355264" lon="11.919359148164029"><ele>419.0</ele><time>2026-04-18T07:13:54Z</time></trkpt><trkpt lat="42.67952719507275" lon="11.919263752765735"><ele>421.0</ele><time>2026-04-18T07:13:55Z</time></trkpt><trkpt lat="42.67959751568508" lon="11.919171267240415"><ele>423.00000000000006</ele><time>2026-04-18T07:13:56Z</time></trkpt><trkpt lat="42.67965670060869" lon="11.919069638699218"><ele>425.0</ele><time>2026-04-18T07:13:57Z</time></trkpt><trkpt lat="42.67969967952479" lon="11.918937613838718"><ele>427.0</ele><time>2026-04-18T07:13:58Z</time></trkpt><trkpt lat="42.679729304100086" lon="11.918772646250773"><ele>427.0</ele><time>2026-04-18T07:13:59Z</time></trkpt><trkpt lat="42.679743817847346" lon="11.91861879213266"><ele>427.00000000000006</ele><time>2026-04-18T07:14:00Z</time></trkpt><trkpt lat="42.67974323955941" lon="11.918482718552683"><ele>427.00000000000006</ele><time>2026-04-18T07:14:01Z</time></trkpt><trkpt lat="42.679739185351124" lon="11.918364958871638"><ele>427.0</ele><time>2026-04-18T07:14:02Z</time></trkpt><trkpt lat="42.67973721629839" lon="11.918214527664281"><ele>427.0</ele><time>2026-04-18T07:14:04Z</time></trkpt><trkpt lat="42.679726915365656" lon="11.918099990206832"><ele>426.8</ele><time>2026-04-18T07:14:06Z</time></trkpt><trkpt lat="42.67972323728649" lon="11.918000631894179"><ele>426.6</ele><time>2026-04-18T07:14:09Z</time></trkpt><trkpt lat="42.67976682639383" lon="11.917938048383284"><ele>426.40000000000003</ele><time>2026-04-18T07:14:11Z</time></trkpt><trkpt lat="42.67989538031199" lon="11.917808034708786"><ele>426.20000000000005</ele><time>2026-04-18T07:14:13Z</time></trkpt><trkpt lat="42.67996994761569" lon="11.917725154449236"><ele>426.0</ele><time>2026-04-18T07:14:14Z</time></trkpt><trkpt lat="42.68005888062763" lon="11.917595113253917"><ele>425.0</ele><time>2026-04-18T07:14:15Z</time></trkpt><trkpt lat="42.68014917845807" lon="11.917427784157585"><ele>424.0</ele><time>2026-04-18T07:14:16Z</time></trkpt><trkpt lat="42.680243482184316" lon="11.917242586824996"><ele>423.0</ele><time>2026-04-18T07:14:17Z</time></trkpt><trkpt lat="42.68033456799192" lon="11.917025941681235"><ele>427.0</ele><time>2026-04-18T07:14:18Z</time></trkpt><trkpt lat="42.68045685951555" lon="11.916787588215483"><ele>431.0</ele><time>2026-04-18T07:14:19Z</time></trkpt><trkpt lat="42.680618169016746" lon="11.916587291254357"><ele>435.0</ele><time>2026-04-18T07:14:20Z</time></trkpt><trkpt lat="42.6808069645262" lon="11.916417197495786"><ele>435.0</ele><time>2026-04-18T07:14:21Z</time></trkpt><trkpt lat="42.68099634290216" lon="11.91627031194975"><ele>435.0</ele><time>2026-04-18T07:14:22Z</time></trkpt><trkpt lat="42.6811804148105" lon="11.916193223311952"><ele>435.0</ele><time>2026-04-18T07:14:23Z</time></trkpt><trkpt lat="42.68138176498293" lon="11.916165133484107"><ele>437.66666666666663</ele><time>2026-04-18T07:14:24Z</time></trkpt><trkpt lat="42.68158790826948" lon="11.916191748878598"><ele>440.3333333333333</ele><time>2026-04-18T07:14:25Z</time></trkpt><trkpt lat="42.68178922597524" lon="11.916261062416305"><ele>443.0</ele><time>2026-04-18T07:14:26Z</time></trkpt><trkpt lat="42.681989864956265" lon="11.916367854374903"><ele>443.0</ele><time>2026-04-18T07:14:27Z</time></trkpt><trkpt lat="42.68220674332071" lon="11.916505038453327"><ele>443.0</ele><time>2026-04-18T07:14:28Z</time></trkpt><trkpt lat="42.68243361915946" lon="11.916654930714232"><ele>443.66666666666663</ele><time>2026-04-18T07:14:29Z</time></trkpt><trkpt lat="42.68263764166687" lon="11.916787713027395"><ele>444.33333333333337</ele><time>2026-04-18T07:14:30Z</time></trkpt><trkpt lat="42.68282820620395" lon="11.916880859521452"><ele>445.0</ele><time>2026-04-18T07:14:31Z</time></trkpt><trkpt lat="42.68300757449826" lon="11.916949004927709"><ele>445.0</ele><time>2026-04-18T07:14:32Z</time></trkpt><trkpt lat="42.683173049855945" lon="11.916981849641733"><ele>445.0</ele><time>2026-04-18T07:14:33Z</time></trkpt><trkpt lat="42.68332580741669" lon="11.916974708729743"><ele>445.0</ele><time>2026-04-18T07:14:34Z</time></trkpt><trkpt lat="42.683464887583185" lon="11.91691049891651"><ele>444.33333333333337</ele><time>2026-04-18T07:14:35Z</time></trkpt><trkpt lat="42.683608573992366" lon="11.916787095054707"><ele>443.66666666666663</ele><time>2026-04-18T07:14:36Z</time></trkpt><trkpt lat="42.683737977696204" lon="11.91664095101282"><ele>443.0</ele><time>2026-04-18T07:14:37Z</time></trkpt><trkpt lat="42.68386915693956" lon="11.916466791313045"><ele>445.0</ele><time>2026-04-18T07:14:38Z</time></trkpt><trkpt lat="42.68399279849281" lon="11.916234725737947"><ele>447.0</ele><time>2026-04-18T07:14:39Z</time></trkpt><trkpt lat="42.68413686077533" lon="11.916000328688602"><ele>449.0</ele><time>2026-04-18T07:14:40Z</time></trkpt><trkpt lat="42.68429142517366" lon="11.915754518525427"><ele>457.5</ele><time>2026-04-18T07:14:41Z</time></trkpt><trkpt lat="42.6844576778656" lon="11.915502212944213"><ele>466.0</ele><time>2026-04-18T07:14:42.001Z</time></trkpt><trkpt lat="42.68461047678316" lon="11.915281699593805"><ele>466.0</ele><time>2026-04-18T07:14:43.001Z</time></trkpt><trkpt lat="42.68473619402466" lon="11.915083741368369"><ele>466.0</ele><time>2026-04-18T07:14:44.001Z</time></trkpt><trkpt lat="42.68484094444468" lon="11.914885415361612"><ele>466.0</ele><time>2026-04-18T07:14:45.001Z</time></trkpt><trkpt lat="42.68492884007981" lon="11.91463837659345"><ele>465.33333333333337</ele><time>2026-04-18T07:14:46.001Z</time></trkpt><trkpt lat="42.68499180610391" lon="11.914354719709658"><ele>464.66666666666663</ele><time>2026-04-18T07:14:47.001Z</time></trkpt><trkpt lat="42.68501338812403" lon="11.914058258863209"><ele>464.0</ele><time>2026-04-18T07:14:48.001Z</time></trkpt><trkpt lat="42.685001350836714" lon="11.913738499968888"><ele>471.0</ele><time>2026-04-18T07:14:49.001Z</time></trkpt><trkpt lat="42.68495445027408" lon="11.913402144132222"><ele>478.0</ele><time>2026-04-18T07:14:50.001Z</time></trkpt><trkpt lat="42.68487738915236" lon="11.913047095293509"><ele>478.0</ele><time>2026-04-18T07:14:51.001Z</time></trkpt><trkpt lat="42.68478794025527" lon="11.912683055261155"><ele>478.0</ele><time>2026-04-18T07:14:52.001Z</time></trkpt><trkpt lat="42.68472331371484" lon="11.912356793168241"><ele>480.5</ele><time>2026-04-18T07:14:53.001Z</time></trkpt><trkpt lat="42.68467344687203" lon="11.912054008648541"><ele>483.0</ele><time>2026-04-18T07:14:54.001Z</time></trkpt><trkpt lat="42.68463058676643" lon="11.91173196574165"><ele>484.5</ele><time>2026-04-18T07:14:55.001Z</time></trkpt><trkpt lat="42.684599085635206" lon="11.911387033639151"><ele>486.0</ele><time>2026-04-18T07:14:56.001Z</time></trkpt><trkpt lat="42.68459706047343" lon="11.911047791793486"><ele>486.33333333333337</ele><time>2026-04-18T07:14:57.001Z</time></trkpt><trkpt lat="42.6845989461576" lon="11.910810063125759"><ele>486.6666666666667</ele><time>2026-04-18T07:14:58.001Z</time></trkpt><trkpt lat="42.68460290529895" lon="11.910591953678637"><ele>487.0</ele><time>2026-04-18T07:14:59.001Z</time></trkpt><trkpt lat="42.684584572509465" lon="11.91035149790632"><ele>487.0</ele><time>2026-04-18T07:15:00.001Z</time></trkpt><trkpt lat="42.68454820658471" lon="11.91009307430653"><ele>487.0</ele><time>2026-04-18T07:15:01.001Z</time></trkpt><trkpt lat="42.68449361009744" lon="11.909837298264822"><ele>487.0</ele><time>2026-04-18T07:15:02.001Z</time></trkpt><trkpt lat="42.68441891851249" lon="11.909579829832547"><ele>483.0</ele><time>2026-04-18T07:15:03.001Z</time></trkpt><trkpt lat="42.68433555961893" lon="11.909325927049895"><ele>479.0</ele><time>2026-04-18T07:15:04.001Z</time></trkpt><trkpt lat="42.684236007863234" lon="11.909050756543724"><ele>475.0</ele><time>2026-04-18T07:15:05.001Z</time></trkpt><trkpt lat="42.684140330193244" lon="11.908798984534826"><ele>475.0</ele><time>2026-04-18T07:15:06.001Z</time></trkpt><trkpt lat="42.68407422656374" lon="11.908602611896747"><ele>475.0</ele><time>2026-04-18T07:15:07.001Z</time></trkpt><trkpt lat="42.68405383348313" lon="11.908412700009052"><ele>475.0</ele><time>2026-04-18T07:15:08.001Z</time></trkpt><trkpt lat="42.684054347397115" lon="11.908220912147197"><ele>475.0</ele><time>2026-04-18T07:15:09.001Z</time></trkpt><trkpt lat="42.68407928973464" lon="11.908026805801864"><ele>477.0</ele><time>2026-04-18T07:15:10.001Z</time></trkpt><trkpt lat="42.68412515739946" lon="11.907831584189939"><ele>479.0</ele><time>2026-04-18T07:15:11.001Z</time></trkpt><trkpt lat="42.68419705609083" lon="11.907659586789695"><ele>481.0</ele><time>2026-04-18T07:15:12.001Z</time></trkpt><trkpt lat="42.684296529856454" lon="11.907505147384446"><ele>483.0</ele><time>2026-04-18T07:15:13.001Z</time></trkpt><trkpt lat="42.684404704468704" lon="11.907370486959781"><ele>485.75</ele><time>2026-04-18T07:15:14.001Z</time></trkpt><trkpt lat="42.684507137198004" lon="11.907264631594643"><ele>488.5</ele><time>2026-04-18T07:15:15.001Z</time></trkpt><trkpt lat="42.68460669139328" lon="11.907177430047403"><ele>491.25</ele><time>2026-04-18T07:15:16.001Z</time></trkpt><trkpt lat="42.68470198997787" lon="11.907101638198874"><ele>494.0</ele><time>2026-04-18T07:15:17.001Z</time></trkpt><trkpt lat="42.68479386592041" lon="11.907036042970512"><ele>493.99999999999994</ele><time>2026-04-18T07:15:18.001Z</time></trkpt><trkpt lat="42.684878674791854" lon="11.90697675946255"><ele>494.0</ele><time>2026-04-18T07:15:19.001Z</time></trkpt><trkpt lat="42.684954199644565" lon="11.90692269375418"><ele>494.0</ele><time>2026-04-18T07:15:20.001Z</time></trkpt><trkpt lat="42.68502862567815" lon="11.906869656169096"><ele>494.0</ele><time>2026-04-18T07:15:21.001Z</time></trkpt><trkpt lat="42.68509933896168" lon="11.90681857950119"><ele>493.99999999999994</ele><time>2026-04-18T07:15:22.001Z</time></trkpt><trkpt lat="42.68516814112116" lon="11.906766503519739"><ele>494.0</ele><time>2026-04-18T07:15:23.001Z</time></trkpt><trkpt lat="42.68522589283658" lon="11.90672576093091"><ele>494.16666666666663</ele><time>2026-04-18T07:15:24.001Z</time></trkpt><trkpt lat="42.68527959822954" lon="11.906674406428719"><ele>494.3333333333333</ele><time>2026-04-18T07:15:26.001Z</time></trkpt><trkpt lat="42.68536308328399" lon="11.9066062470304"><ele>494.5</ele><time>2026-04-18T07:15:29.001Z</time></trkpt><trkpt lat="42.68544004621425" lon="11.906540492585771"><ele>494.66666666666663</ele><time>2026-04-18T07:15:31.001Z</time></trkpt><trkpt lat="42.68551242836685" lon="11.906488882540199"><ele>494.8333333333333</ele><time>2026-04-18T07:15:33.001Z</time></trkpt><trkpt lat="42.68558780442742" lon="11.906440755041405"><ele>495.0</ele><time>2026-04-18T07:15:35.001Z</time></trkpt><trkpt lat="42.68565134023857" lon="11.90639796888913"><ele>495.0</ele><time>2026-04-18T07:15:38.001Z</time></trkpt><trkpt lat="42.68571425990778" lon="11.906389580787742"><ele>495.0</ele><time>2026-04-18T07:15:41Z</time></trkpt><trkpt lat="42.68582578976245" lon="11.906319630875839"><ele>495.0</ele><time>2026-04-18T07:15:43Z</time></trkpt><trkpt lat="42.685895533704" lon="11.90625673668831"><ele>495.0</ele><time>2026-04-18T07:15:44Z</time></trkpt><trkpt lat="42.685978650399704" lon="11.90618754778167"><ele>495.0</ele><time>2026-04-18T07:15:45Z</time></trkpt><trkpt lat="42.68606576296611" lon="11.90611993085392"><ele>495.2</ele><time>2026-04-18T07:15:46Z</time></trkpt><trkpt lat="42.68613667097606" lon="11.906067742902444"><ele>495.4</ele><time>2026-04-18T07:15:47Z</time></trkpt><trkpt lat="42.686196435983426" lon="11.906030625405108"><ele>495.6</ele><time>2026-04-18T07:15:48Z</time></trkpt><trkpt lat="42.686253610509546" lon="11.905946947928465"><ele>495.8</ele><time>2026-04-18T07:15:54Z</time></trkpt><trkpt lat="42.68618071610691" lon="11.905756135817033"><ele>496.0</ele><time>2026-04-18T07:15:56Z</time></trkpt><trkpt lat="42.68612159620794" lon="11.905617462105203"><ele>496.0</ele><time>2026-04-18T07:15:57Z</time></trkpt><trkpt lat="42.6860409899212" lon="11.905431549422824"><ele>496.0</ele><time>2026-04-18T07:15:58Z</time></trkpt><trkpt lat="42.685971939593784" lon="11.905236529675452"><ele>496.0</ele><time>2026-04-18T07:15:59Z</time></trkpt><trkpt lat="42.68589215056017" lon="11.905022060683542"><ele>496.0</ele><time>2026-04-18T07:16:00Z</time></trkpt><trkpt lat="42.68580429621382" lon="11.904786784534869"><ele>496.0</ele><time>2026-04-18T07:16:01Z</time></trkpt><trkpt lat="42.6857125619393" lon="11.904583970735217"><ele>496.0</ele><time>2026-04-18T07:16:02Z</time></trkpt><trkpt lat="42.685642129938714" lon="11.904396796058888"><ele>496.6666666666667</ele><time>2026-04-18T07:16:03Z</time></trkpt><trkpt lat="42.68557878978514" lon="11.904198580595883"><ele>497.33333333333337</ele><time>2026-04-18T07:16:04Z</time></trkpt><trkpt lat="42.68551781677056" lon="11.904023479066694"><ele>498.0</ele><time>2026-04-18T07:16:05Z</time></trkpt><trkpt lat="42.68547235854467" lon="11.903823436390109"><ele>498.0</ele><time>2026-04-18T07:16:06Z</time></trkpt><trkpt lat="42.6854374024756" lon="11.90358212961813"><ele>498.0</ele><time>2026-04-18T07:16:07Z</time></trkpt><trkpt lat="42.68542677634082" lon="11.903303813914508"><ele>498.0</ele><time>2026-04-18T07:16:08Z</time></trkpt><trkpt lat="42.68543223885408" lon="11.903037606137074"><ele>498.5</ele><time>2026-04-18T07:16:09Z</time></trkpt><trkpt lat="42.68543980371218" lon="11.902818382471601"><ele>499.0</ele><time>2026-04-18T07:16:10Z</time></trkpt><trkpt lat="42.68545336410222" lon="11.902627327313942"><ele>499.5</ele><time>2026-04-18T07:16:11Z</time></trkpt><trkpt lat="42.68547676704324" lon="11.902436314675006"><ele>500.0</ele><time>2026-04-18T07:16:12Z</time></trkpt><trkpt lat="42.685535241363795" lon="11.902205779636933"><ele>501.0</ele><time>2026-04-18T07:16:13Z</time></trkpt><trkpt lat="42.68561713228469" lon="11.90193560240764"><ele>502.0</ele><time>2026-04-18T07:16:14Z</time></trkpt><trkpt lat="42.68569561306036" lon="11.901631945668543"><ele>503.0</ele><time>2026-04-18T07:16:15Z</time></trkpt><trkpt lat="42.68575399277827" lon="11.901316741221764"><ele>504.0</ele><time>2026-04-18T07:16:16Z</time></trkpt><trkpt lat="42.68578787676397" lon="11.900970194960012"><ele>505.5</ele><time>2026-04-18T07:16:17Z</time></trkpt><trkpt lat="42.685806476327585" lon="11.900637790947096"><ele>507.0</ele><time>2026-04-18T07:16:18Z</time></trkpt><trkpt lat="42.68582554062266" lon="11.90035134399436"><ele>507.0</ele><time>2026-04-18T07:16:19Z</time></trkpt><trkpt lat="42.68584024433846" lon="11.900092829273788"><ele>507.0</ele><time>2026-04-18T07:16:20Z</time></trkpt><trkpt lat="42.68584967963409" lon="11.89985477183877"><ele>507.0</ele><time>2026-04-18T07:16:21Z</time></trkpt><trkpt lat="42.68582790980214" lon="11.899614939473748"><ele>507.0</ele><time>2026-04-18T07:16:22Z</time></trkpt><trkpt lat="42.68578476600148" lon="11.89939679346036"><ele>507.0</ele><time>2026-04-18T07:16:23Z</time></trkpt><trkpt lat="42.68571406972665" lon="11.899224019970836"><ele>507.0</ele><time>2026-04-18T07:16:24Z</time></trkpt><trkpt lat="42.68560995805794" lon="11.899079633904428"><ele>507.0</ele><time>2026-04-18T07:16:25Z</time></trkpt><trkpt lat="42.68545827118868" lon="11.898952271177603"><ele>507.0</ele><time>2026-04-18T07:16:26Z</time></trkpt><trkpt lat="42.68527533136804" lon="11.898837763047469"><ele>507.0</ele><time>2026-04-18T07:16:27Z</time></trkpt><trkpt lat="42.685074261126864" lon="11.898708110452802"><ele>505.5</ele><time>2026-04-18T07:16:28Z</time></trkpt><trkpt lat="42.68486556747384" lon="11.89854860106035"><ele>504.0</ele><time>2026-04-18T07:16:29Z</time></trkpt><trkpt lat="42.68468512228569" lon="11.898378172254473"><ele>504.0</ele><time>2026-04-18T07:16:30Z</time></trkpt><trkpt lat="42.68452133693387" lon="11.898214201515396"><ele>504.0</ele><time>2026-04-18T07:16:31Z</time></trkpt><trkpt lat="42.68437743249512" lon="11.898055049580035"><ele>504.0</ele><time>2026-04-18T07:16:32Z</time></trkpt><trkpt lat="42.684248714158414" lon="11.897890456311805"><ele>503.0</ele><time>2026-04-18T07:16:33Z</time></trkpt><trkpt lat="42.68414043236697" lon="11.89771941734818"><ele>502.0</ele><time>2026-04-18T07:16:34Z</time></trkpt><trkpt lat="42.684070442691315" lon="11.897526600782458"><ele>501.0</ele><time>2026-04-18T07:16:35Z</time></trkpt><trkpt lat="42.68403640700906" lon="11.897318924708475"><ele>501.0</ele><time>2026-04-18T07:16:36Z</time></trkpt><trkpt lat="42.68403906415977" lon="11.897085431209698"><ele>501.0</ele><time>2026-04-18T07:16:37Z</time></trkpt><trkpt lat="42.68407762349031" lon="11.896826054396124"><ele>501.0</ele><time>2026-04-18T07:16:38Z</time></trkpt><trkpt lat="42.684156454758956" lon="11.896552762814194"><ele>500.5</ele><time>2026-04-18T07:16:39Z</time></trkpt><trkpt lat="42.68423913099907" lon="11.896251500537108"><ele>500.0</ele><time>2026-04-18T07:16:40Z</time></trkpt><trkpt lat="42.68430300963836" lon="11.895941194143054"><ele>500.5</ele><time>2026-04-18T07:16:41Z</time></trkpt><trkpt lat="42.684358458281444" lon="11.89561877742224"><ele>501.0</ele><time>2026-04-18T07:16:42Z</time></trkpt><trkpt lat="42.68441792756936" lon="11.895315313003149"><ele>496.0</ele><time>2026-04-18T07:16:43Z</time></trkpt><trkpt lat="42.6844915507005" lon="11.89503371234507"><ele>491.0</ele><time>2026-04-18T07:16:44Z</time></trkpt><trkpt lat="42.684570994630576" lon="11.894770527997816"><ele>486.0</ele><time>2026-04-18T07:16:45Z</time></trkpt><trkpt lat="42.68465691224161" lon="11.894529722376065"><ele>486.0</ele><time>2026-04-18T07:16:46Z</time></trkpt><trkpt lat="42.68473677870299" lon="11.8943200179886"><ele>486.0</ele><time>2026-04-18T07:16:47Z</time></trkpt><trkpt lat="42.68480906048724" lon="11.89412386269519"><ele>486.0</ele><time>2026-04-18T07:16:48Z</time></trkpt><trkpt lat="42.68484171478755" lon="11.893901154568853"><ele>484.33333333333337</ele><time>2026-04-18T07:16:49Z</time></trkpt><trkpt lat="42.684827701554006" lon="11.893634815387443"><ele>482.6666666666667</ele><time>2026-04-18T07:16:50Z</time></trkpt><trkpt lat="42.68477868105674" lon="11.893334018176937"><ele>481.0</ele><time>2026-04-18T07:16:51Z</time></trkpt><trkpt lat="42.68471409960368" lon="11.89301384789029"><ele>479.0</ele><time>2026-04-18T07:16:52Z</time></trkpt><trkpt lat="42.684642659835646" lon="11.892708723316666"><ele>477.0</ele><time>2026-04-18T07:16:53Z</time></trkpt><trkpt lat="42.68459136193047" lon="11.892451563160526"><ele>475.0</ele><time>2026-04-18T07:16:54Z</time></trkpt><trkpt lat="42.684550100374906" lon="11.89224311918145"><ele>474.33333333333337</ele><time>2026-04-18T07:16:55Z</time></trkpt><trkpt lat="42.68448833578325" lon="11.892065742239467"><ele>473.66666666666663</ele><time>2026-04-18T07:16:56Z</time></trkpt><trkpt lat="42.6843993848484" lon="11.891900958549158"><ele>473.0</ele><time>2026-04-18T07:16:57Z</time></trkpt><trkpt lat="42.68426032206135" lon="11.891743196064729"><ele>472.0</ele><time>2026-04-18T07:16:58Z</time></trkpt><trkpt lat="42.68408736863276" lon="11.891605834771797"><ele>471.0</ele><time>2026-04-18T07:16:59Z</time></trkpt><trkpt lat="42.68394543327417" lon="11.89148044385654"><ele>470.0</ele><time>2026-04-18T07:17:00Z</time></trkpt><trkpt lat="42.68384867883116" lon="11.891327541909545"><ele>470.0</ele><time>2026-04-18T07:17:01Z</time></trkpt><trkpt lat="42.68379343257572" lon="11.891146786021803"><ele>470.0</ele><time>2026-04-18T07:17:02Z</time></trkpt><trkpt lat="42.6837728217042" lon="11.890937383000834"><ele>470.0</ele><time>2026-04-18T07:17:03Z</time></trkpt><trkpt lat="42.68379541618111" lon="11.8907002918654"><ele>469.0</ele><time>2026-04-18T07:17:04Z</time></trkpt><trkpt lat="42.68386858862458" lon="11.890445358016267"><ele>468.0</ele><time>2026-04-18T07:17:05.001Z</time></trkpt><trkpt lat="42.683982581030335" lon="11.890177890672495"><ele>467.0</ele><time>2026-04-18T07:17:06.001Z</time></trkpt><trkpt lat="42.68409516434703" lon="11.889893232981514"><ele>466.0</ele><time>2026-04-18T07:17:07.001Z</time></trkpt><trkpt lat="42.6841864488425" lon="11.889611950295166"><ele>465.0</ele><time>2026-04-18T07:17:08.001Z</time></trkpt><trkpt lat="42.68427501869792" lon="11.88936030851743"><ele>464.0</ele><time>2026-04-18T07:17:09.001Z</time></trkpt><trkpt lat="42.68434961387812" lon="11.88912287514087"><ele>463.66666666666663</ele><time>2026-04-18T07:17:10.001Z</time></trkpt><trkpt lat="42.68438284245646" lon="11.888858071756474"><ele>463.33333333333337</ele><time>2026-04-18T07:17:11.001Z</time></trkpt><trkpt lat="42.68437386922716" lon="11.888554374333712"><ele>463.0</ele><time>2026-04-18T07:17:12.001Z</time></trkpt><trkpt lat="42.68431712095192" lon="11.88821359552634"><ele>463.0</ele><time>2026-04-18T07:17:13.001Z</time></trkpt><trkpt lat="42.6842206011712" lon="11.887845877544134"><ele>463.0</ele><time>2026-04-18T07:17:14.001Z</time></trkpt><trkpt lat="42.68410236656506" lon="11.887470466112743"><ele>463.0</ele><time>2026-04-18T07:17:15.001Z</time></trkpt><trkpt lat="42.683989447145656" lon="11.88707739058581"><ele>463.0</ele><time>2026-04-18T07:17:16.001Z</time></trkpt><trkpt lat="42.68389985561946" lon="11.886709666038938"><ele>463.0</ele><time>2026-04-18T07:17:17.001Z</time></trkpt><trkpt lat="42.6838344593068" lon="11.88637960003979"><ele>463.0</ele><time>2026-04-18T07:17:18.001Z</time></trkpt><trkpt lat="42.68377671665507" lon="11.886089594050894"><ele>462.6666666666667</ele><time>2026-04-18T07:17:19.001Z</time></trkpt><trkpt lat="42.683728805286464" lon="11.885827451058905"><ele>462.33333333333337</ele><time>2026-04-18T07:17:20.001Z</time></trkpt><trkpt lat="42.68369193733168" lon="11.885585402174705"><ele>462.0</ele><time>2026-04-18T07:17:21.001Z</time></trkpt><trkpt lat="42.68367393622863" lon="11.885342464575102"><ele>462.0</ele><time>2026-04-18T07:17:22.001Z</time></trkpt><trkpt lat="42.68368561202198" lon="11.885059144370759"><ele>462.0</ele><time>2026-04-18T07:17:23.001Z</time></trkpt><trkpt lat="42.683724538557264" lon="11.88473740113051"><ele>462.0</ele><time>2026-04-18T07:17:24.001Z</time></trkpt><trkpt lat="42.683777277320445" lon="11.884392500517402"><ele>462.0</ele><time>2026-04-18T07:17:25.001Z</time></trkpt><trkpt lat="42.68382566282361" lon="11.884040789089896"><ele>462.0</ele><time>2026-04-18T07:17:26.001Z</time></trkpt><trkpt lat="42.68386855342653" lon="11.883704041897913"><ele>463.0</ele><time>2026-04-18T07:17:27.001Z</time></trkpt><trkpt lat="42.68390519624128" lon="11.883390358836355"><ele>464.0</ele><time>2026-04-18T07:17:28.001Z</time></trkpt><trkpt lat="42.68394800418484" lon="11.883082282351959"><ele>464.0</ele><time>2026-04-18T07:17:29.001Z</time></trkpt><trkpt lat="42.68399549890229" lon="11.882763917025024"><ele>464.0</ele><time>2026-04-18T07:17:30.001Z</time></trkpt><trkpt lat="42.68405540293661" lon="11.882446059938205"><ele>464.5</ele><time>2026-04-18T07:17:31.001Z</time></trkpt><trkpt lat="42.68412957463201" lon="11.88212409889825"><ele>465.0</ele><time>2026-04-18T07:17:32.001Z</time></trkpt><trkpt lat="42.68420885592449" lon="11.881794490445216"><ele>465.33333333333337</ele><time>2026-04-18T07:17:33.001Z</time></trkpt><trkpt lat="42.68427343671307" lon="11.881493314983484"><ele>465.6666666666667</ele><time>2026-04-18T07:17:34.001Z</time></trkpt><trkpt lat="42.68431671937601" lon="11.881226328777249"><ele>466.0</ele><time>2026-04-18T07:17:35.001Z</time></trkpt><trkpt lat="42.68434972049018" lon="11.881000407374616"><ele>466.33333333333337</ele><time>2026-04-18T07:17:36.001Z</time></trkpt><trkpt lat="42.6843904913127" lon="11.88078894349755"><ele>466.66666666666663</ele><time>2026-04-18T07:17:37.001Z</time></trkpt><trkpt lat="42.68445301803073" lon="11.880594511315591"><ele>467.0</ele><time>2026-04-18T07:17:38.001Z</time></trkpt><trkpt lat="42.68454009709149" lon="11.880404775959512"><ele>467.0</ele><time>2026-04-18T07:17:39.001Z</time></trkpt><trkpt lat="42.684643704885595" lon="11.880241046007269"><ele>467.0</ele><time>2026-04-18T07:17:40.001Z</time></trkpt><trkpt lat="42.684732602432305" lon="11.880085240918216"><ele>467.0</ele><time>2026-04-18T07:17:41.001Z</time></trkpt><trkpt lat="42.68479241080241" lon="11.879904018257472"><ele>466.66666666666663</ele><time>2026-04-18T07:17:42.001Z</time></trkpt><trkpt lat="42.68479962754867" lon="11.879678240182992"><ele>466.33333333333337</ele><time>2026-04-18T07:17:43.001Z</time></trkpt><trkpt lat="42.68475174010678" lon="11.879416061549286"><ele>466.0</ele><time>2026-04-18T07:17:44.001Z</time></trkpt><trkpt lat="42.68466426397841" lon="11.879143884767371"><ele>466.0</ele><time>2026-04-18T07:17:45Z</time></trkpt><trkpt lat="42.68454202580568" lon="11.878871545304184"><ele>466.0</ele><time>2026-04-18T07:17:46Z</time></trkpt><trkpt lat="42.68438950247247" lon="11.878613662182618"><ele>467.5</ele><time>2026-04-18T07:17:47Z</time></trkpt><trkpt lat="42.68422481959654" lon="11.878364981591847"><ele>469.0</ele><time>2026-04-18T07:17:48Z</time></trkpt><trkpt lat="42.68405170046473" lon="11.878103315240644"><ele>469.0</ele><time>2026-04-18T07:17:49Z</time></trkpt><trkpt lat="42.683860639660935" lon="11.877831780745632"><ele>469.0</ele><time>2026-04-18T07:17:50Z</time></trkpt><trkpt lat="42.683679807429876" lon="11.877597055651448"><ele>469.0</ele><time>2026-04-18T07:17:51Z</time></trkpt><trkpt lat="42.68352981931119" lon="11.877426554949105"><ele>469.0</ele><time>2026-04-18T07:17:52Z</time></trkpt><trkpt lat="42.68340362623691" lon="11.877272719262168"><ele>469.0</ele><time>2026-04-18T07:17:53Z</time></trkpt><trkpt lat="42.68329017679845" lon="11.877105996567803"><ele>469.0</ele><time>2026-04-18T07:17:54Z</time></trkpt><trkpt lat="42.683191734333896" lon="11.876891554665033"><ele>469.0</ele><time>2026-04-18T07:17:55Z</time></trkpt><trkpt lat="42.68309591766034" lon="11.876625683910545"><ele>469.0</ele><time>2026-04-18T07:17:56Z</time></trkpt><trkpt lat="42.68299931218052" lon="11.876322119530503"><ele>470.0</ele><time>2026-04-18T07:17:57Z</time></trkpt><trkpt lat="42.68291680059507" lon="11.876020086346891"><ele>471.0</ele><time>2026-04-18T07:17:58Z</time></trkpt><trkpt lat="42.682852708997885" lon="11.875764535626073"><ele>472.0</ele><time>2026-04-18T07:17:59Z</time></trkpt><trkpt lat="42.68279937503766" lon="11.875547071847425"><ele>472.0</ele><time>2026-04-18T07:18:00Z</time></trkpt><trkpt lat="42.6827333350195" lon="11.875363395325069"><ele>472.0</ele><time>2026-04-18T07:18:01Z</time></trkpt><trkpt lat="42.682644646483375" lon="11.875207636853421"><ele>472.0</ele><time>2026-04-18T07:18:02Z</time></trkpt><trkpt lat="42.68254324015363" lon="11.875073732347007"><ele>472.0</ele><time>2026-04-18T07:18:03Z</time></trkpt><trkpt lat="42.682444896792276" lon="11.874960805875793"><ele>472.25</ele><time>2026-04-18T07:18:04Z</time></trkpt><trkpt lat="42.682354008926296" lon="11.874858075452954"><ele>472.5</ele><time>2026-04-18T07:18:05Z</time></trkpt><trkpt lat="42.68226204916532" lon="11.874761247256314"><ele>472.75</ele><time>2026-04-18T07:18:06Z</time></trkpt><trkpt lat="42.68216616167078" lon="11.874662191289122"><ele>473.0</ele><time>2026-04-18T07:18:07Z</time></trkpt><trkpt lat="42.68205378508173" lon="11.87456983547957"><ele>473.0</ele><time>2026-04-18T07:18:08Z</time></trkpt><trkpt lat="42.68193321711724" lon="11.874488162638945"><ele>473.0</ele><time>2026-04-18T07:18:09Z</time></trkpt><trkpt lat="42.681805930499436" lon="11.874406856836623"><ele>473.0</ele><time>2026-04-18T07:18:10Z</time></trkpt><trkpt lat="42.68166722943426" lon="11.874324745161221"><ele>473.0</ele><time>2026-04-18T07:18:11Z</time></trkpt><trkpt lat="42.68151680428901" lon="11.874220818681158"><ele>473.3333333333333</ele><time>2026-04-18T07:18:12Z</time></trkpt><trkpt lat="42.681350013106496" lon="11.874113708158577"><ele>473.66666666666663</ele><time>2026-04-18T07:18:13Z</time></trkpt><trkpt lat="42.681205463034935" lon="11.874004286385551"><ele>474.0</ele><time>2026-04-18T07:18:14Z</time></trkpt><trkpt lat="42.68106274796339" lon="11.873921781678964"><ele>474.33333333333337</ele><time>2026-04-18T07:18:15Z</time></trkpt><trkpt lat="42.68091883565901" lon="11.873832290352956"><ele>474.6666666666667</ele><time>2026-04-18T07:18:16Z</time></trkpt><trkpt lat="42.68078106165842" lon="11.873740104373969"><ele>475.0</ele><time>2026-04-18T07:18:17Z</time></trkpt><trkpt lat="42.68065604900534" lon="11.87365836003289"><ele>475.0</ele><time>2026-04-18T07:18:18Z</time></trkpt><trkpt lat="42.68054062985975" lon="11.873591059232892"><ele>475.0</ele><time>2026-04-18T07:18:19Z</time></trkpt><trkpt lat="42.68041776590459" lon="11.873542010663957"><ele>475.0</ele><time>2026-04-18T07:18:20Z</time></trkpt><trkpt lat="42.68028545111873" lon="11.873521037322234"><ele>475.0</ele><time>2026-04-18T07:18:21Z</time></trkpt><trkpt lat="42.680161732265155" lon="11.873514522683173"><ele>475.0</ele><time>2026-04-18T07:18:22Z</time></trkpt><trkpt lat="42.68005522186296" lon="11.873515562086716"><ele>475.0</ele><time>2026-04-18T07:18:23Z</time></trkpt><trkpt lat="42.67998488262488" lon="11.873483387668877"><ele>475.0</ele><time>2026-04-18T07:18:24Z</time></trkpt><trkpt lat="42.6799125420949" lon="11.87341057502171"><ele>475.0</ele><time>2026-04-18T07:18:25Z</time></trkpt><trkpt lat="42.67986780215529" lon="11.87328238158452"><ele>475.0</ele><time>2026-04-18T07:18:26Z</time></trkpt><trkpt lat="42.67981282033144" lon="11.873101672237787"><ele>475.0</ele><time>2026-04-18T07:18:27Z</time></trkpt><trkpt lat="42.67977113260596" lon="11.872877315862066"><ele>475.0</ele><time>2026-04-18T07:18:28Z</time></trkpt><trkpt lat="42.679747910187366" lon="11.872636715120532"><ele>475.0</ele><time>2026-04-18T07:18:29Z</time></trkpt><trkpt lat="42.679680082958654" lon="11.872379752719096"><ele>475.33333333333337</ele><time>2026-04-18T07:18:30Z</time></trkpt><trkpt lat="42.67954840382313" lon="11.872162697363386"><ele>475.66666666666663</ele><time>2026-04-18T07:18:31Z</time></trkpt><trkpt lat="42.67938930959818" lon="11.8719944816995"><ele>476.0</ele><time>2026-04-18T07:18:32Z</time></trkpt><trkpt lat="42.67924389725676" lon="11.871830195456905"><ele>475.66666666666663</ele><time>2026-04-18T07:18:33Z</time></trkpt><trkpt lat="42.67912563078578" lon="11.871661722466488"><ele>475.33333333333337</ele><time>2026-04-18T07:18:34Z</time></trkpt><trkpt lat="42.6790284079936" lon="11.871497022599478"><ele>475.0</ele><time>2026-04-18T07:18:35Z</time></trkpt><trkpt lat="42.67894553105746" lon="11.871343819601778"><ele>475.00000000000006</ele><time>2026-04-18T07:18:36Z</time></trkpt><trkpt lat="42.67886924230507" lon="11.871205681414867"><ele>475.0</ele><time>2026-04-18T07:18:37Z</time></trkpt><trkpt lat="42.678838450390195" lon="11.871119554593948"><ele>475.0</ele><time>2026-04-18T07:18:38Z</time></trkpt><trkpt lat="42.678804244416064" lon="11.871042160362823"><ele>475.0</ele><time>2026-04-18T07:18:41Z</time></trkpt><trkpt lat="42.67879007240683" lon="11.871159951679877"><ele>475.00000000000006</ele><time>2026-04-18T07:18:48Z</time></trkpt><trkpt lat="42.67883369926943" lon="11.871245529665885"><ele>475.0</ele><time>2026-04-18T07:18:49Z</time></trkpt><trkpt lat="42.67892643749587" lon="11.87134303885603"><ele>475.0</ele><time>2026-04-18T07:18:50Z</time></trkpt><trkpt lat="42.679004462166546" lon="11.871467572337966"><ele>475.0</ele><time>2026-04-18T07:18:51Z</time></trkpt><trkpt lat="42.67906503859072" lon="11.871573952930044"><ele>475.0</ele><time>2026-04-18T07:18:52Z</time></trkpt><trkpt lat="42.67911194942767" lon="11.871650770837284"><ele>475.0</ele><time>2026-04-18T07:18:53Z</time></trkpt><trkpt lat="42.67918622989937" lon="11.87167406272218"><ele>475.0</ele><time>2026-04-18T07:18:55Z</time></trkpt><trkpt lat="42.679283828374345" lon="11.871514522150822"><ele>475.0</ele><time>2026-04-18T07:18:57Z</time></trkpt><trkpt lat="42.67934559401552" lon="11.871358852319215"><ele>475.0</ele><time>2026-04-18T07:18:58Z</time></trkpt><trkpt lat="42.67944073317716" lon="11.871177361029439"><ele>475.0</ele><time>2026-04-18T07:18:59Z</time></trkpt><trkpt lat="42.67955732357862" lon="11.87099821168009"><ele>475.6666666666667</ele><time>2026-04-18T07:19:00Z</time></trkpt><trkpt lat="42.679684743071604" lon="11.870798669159518"><ele>476.33333333333337</ele><time>2026-04-18T07:19:01Z</time></trkpt><trkpt lat="42.67982024666825" lon="11.870588163926223"><ele>477.0</ele><time>2026-04-18T07:19:02Z</time></trkpt><trkpt lat="42.67997032115399" lon="11.870382965612635"><ele>477.0</ele><time>2026-04-18T07:19:03Z</time></trkpt><trkpt lat="42.68010230871717" lon="11.870197494550919"><ele>477.0</ele><time>2026-04-18T07:19:04Z</time></trkpt><trkpt lat="42.68022287172112" lon="11.8700337838922"><ele>477.0</ele><time>2026-04-18T07:19:05Z</time></trkpt><trkpt lat="42.68032649318275" lon="11.869892898285775"><ele>477.40000000000003</ele><time>2026-04-18T07:19:06Z</time></trkpt><trkpt lat="42.680413008587294" lon="11.869772806697316"><ele>477.80000000000007</ele><time>2026-04-18T07:19:07Z</time></trkpt><trkpt lat="42.680464183345656" lon="11.869693264861185"><ele>478.2</ele><time>2026-04-18T07:19:08Z</time></trkpt><trkpt lat="42.68048633840527" lon="11.86960772592764"><ele>478.6</ele><time>2026-04-18T07:19:09Z</time></trkpt><trkpt lat="42.68050279782966" lon="11.869465910093725"><ele>479.0</ele><time>2026-04-18T07:19:10Z</time></trkpt><trkpt lat="42.68052205301523" lon="11.869283855004271"><ele>479.0</ele><time>2026-04-18T07:19:11Z</time></trkpt><trkpt lat="42.68054100042201" lon="11.869076276948112"><ele>479.0</ele><time>2026-04-18T07:19:12Z</time></trkpt><trkpt lat="42.68054327070188" lon="11.86888925327308"><ele>479.0</ele><time>2026-04-18T07:19:13Z</time></trkpt><trkpt lat="42.6805545994863" lon="11.868729948738347"><ele>479.0</ele><time>2026-04-18T07:19:14Z</time></trkpt><trkpt lat="42.68058178051848" lon="11.868584572722133"><ele>479.0</ele><time>2026-04-18T07:19:15Z</time></trkpt><trkpt lat="42.680630176983634" lon="11.868460180739847"><ele>479.0</ele><time>2026-04-18T07:19:16Z</time></trkpt><trkpt lat="42.68070532389884" lon="11.868348528026004"><ele>479.0</ele><time>2026-04-18T07:19:17Z</time></trkpt><trkpt lat="42.68080833713199" lon="11.868234680546543"><ele>479.0</ele><time>2026-04-18T07:19:18Z</time></trkpt><trkpt lat="42.68094610328045" lon="11.868120783152147"><ele>480.0</ele><time>2026-04-18T07:19:19Z</time></trkpt><trkpt lat="42.68108764590232" lon="11.868021898517942"><ele>481.0</ele><time>2026-04-18T07:19:20Z</time></trkpt><trkpt lat="42.68120384398372" lon="11.867948335857422"><ele>482.0</ele><time>2026-04-18T07:19:21Z</time></trkpt><trkpt lat="42.681310232586476" lon="11.867912201327766"><ele>483.0</ele><time>2026-04-18T07:19:22Z</time></trkpt><trkpt lat="42.681441705615086" lon="11.867893549518179"><ele>483.0</ele><time>2026-04-18T07:19:23Z</time></trkpt><trkpt lat="42.68159893150969" lon="11.867885603388173"><ele>483.0</ele><time>2026-04-18T07:19:24Z</time></trkpt><trkpt lat="42.681808138225556" lon="11.867861882254106"><ele>483.0</ele><time>2026-04-18T07:19:25Z</time></trkpt><trkpt lat="42.68202849796045" lon="11.867834037976639"><ele>480.66666666666663</ele><time>2026-04-18T07:19:26Z</time></trkpt><trkpt lat="42.68223184099892" lon="11.867819266842213"><ele>478.3333333333333</ele><time>2026-04-18T07:19:27Z</time></trkpt><trkpt lat="42.68241684267586" lon="11.867809684044186"><ele>476.0</ele><time>2026-04-18T07:19:28Z</time></trkpt><trkpt lat="42.68258729604329" lon="11.867784835407736"><ele>476.0</ele><time>2026-04-18T07:19:29Z</time></trkpt><trkpt lat="42.68274347621482" lon="11.867749108113586"><ele>476.0</ele><time>2026-04-18T07:19:30Z</time></trkpt><trkpt lat="42.68288676367344" lon="11.86771189449094"><ele>476.0</ele><time>2026-04-18T07:19:31Z</time></trkpt><trkpt lat="42.68302626868965" lon="11.867681386051215"><ele>476.0</ele><time>2026-04-18T07:19:32Z</time></trkpt><trkpt lat="42.6831657674441" lon="11.867663074854516"><ele>473.5</ele><time>2026-04-18T07:19:33Z</time></trkpt><trkpt lat="42.68330101422249" lon="11.867662128204863"><ele>471.0</ele><time>2026-04-18T07:19:34Z</time></trkpt><trkpt lat="42.683434364474095" lon="11.86767235666615"><ele>468.5</ele><time>2026-04-18T07:19:35.001Z</time></trkpt><trkpt lat="42.683551813270185" lon="11.867669775016916"><ele>466.0</ele><time>2026-04-18T07:19:36.001Z</time></trkpt><trkpt lat="42.683675209727696" lon="11.867634917440885"><ele>463.5</ele><time>2026-04-18T07:19:37.001Z</time></trkpt><trkpt lat="42.68379959015329" lon="11.867573771839915"><ele>461.0</ele><time>2026-04-18T07:19:38.001Z</time></trkpt><trkpt lat="42.6839052628285" lon="11.867500228612068"><ele>458.5</ele><time>2026-04-18T07:19:39.001Z</time></trkpt><trkpt lat="42.68398432604258" lon="11.867393390569548"><ele>456.0</ele><time>2026-04-18T07:19:40.001Z</time></trkpt><trkpt lat="42.684043213794645" lon="11.867240777665115"><ele>456.0</ele><time>2026-04-18T07:19:41.001Z</time></trkpt><trkpt lat="42.68408883352846" lon="11.86705864898686"><ele>456.0</ele><time>2026-04-18T07:19:42.001Z</time></trkpt><trkpt lat="42.6841443506424" lon="11.86688408656284"><ele>456.0</ele><time>2026-04-18T07:19:43.001Z</time></trkpt><trkpt lat="42.68420986741971" lon="11.866735443822806"><ele>456.0</ele><time>2026-04-18T07:19:44.001Z</time></trkpt><trkpt lat="42.684300572236566" lon="11.866586819190331"><ele>457.66666666666663</ele><time>2026-04-18T07:19:45.001Z</time></trkpt><trkpt lat="42.68442683902095" lon="11.86642649890573"><ele>459.3333333333333</ele><time>2026-04-18T07:19:46.001Z</time></trkpt><trkpt lat="42.68455816810228" lon="11.866276531533408"><ele>461.0</ele><time>2026-04-18T07:19:47.001Z</time></trkpt><trkpt lat="42.684668249376365" lon="11.866144609149583"><ele>461.25</ele><time>2026-04-18T07:19:48.001Z</time></trkpt><trkpt lat="42.684766701347705" lon="11.866018173762848"><ele>461.5</ele><time>2026-04-18T07:19:49.001Z</time></trkpt><trkpt lat="42.68484228001504" lon="11.865882581516816"><ele>461.75</ele><time>2026-04-18T07:19:50.001Z</time></trkpt><trkpt lat="42.684891179342536" lon="11.865729993773169"><ele>462.0</ele><time>2026-04-18T07:19:51Z</time></trkpt><trkpt lat="42.68491207787535" lon="11.865563745332905"><ele>463.0</ele><time>2026-04-18T07:19:52Z</time></trkpt><trkpt lat="42.6849203835052" lon="11.86538400628871"><ele>464.0</ele><time>2026-04-18T07:19:53Z</time></trkpt><trkpt lat="42.68495036592644" lon="11.865218197772137"><ele>465.0</ele><time>2026-04-18T07:19:54Z</time></trkpt><trkpt lat="42.68500802420006" lon="11.865076568693432"><ele>466.0</ele><time>2026-04-18T07:19:55Z</time></trkpt><trkpt lat="42.68509395062701" lon="11.864959410328881"><ele>467.20000000000005</ele><time>2026-04-18T07:19:56Z</time></trkpt><trkpt lat="42.685181790081735" lon="11.864891331530904"><ele>468.40000000000003</ele><time>2026-04-18T07:19:57Z</time></trkpt><trkpt lat="42.68526251545194" lon="11.864819989059866"><ele>469.6</ele><time>2026-04-18T07:19:58Z</time></trkpt><trkpt lat="42.685353139602945" lon="11.864725246641353"><ele>470.8</ele><time>2026-04-18T07:19:59Z</time></trkpt><trkpt lat="42.68546649207947" lon="11.864638061660745"><ele>472.0</ele><time>2026-04-18T07:20:00Z</time></trkpt><trkpt lat="42.685595293180945" lon="11.864561201884488"><ele>473.20000000000005</ele><time>2026-04-18T07:20:01Z</time></trkpt><trkpt lat="42.685689756901745" lon="11.864487706973655"><ele>474.40000000000003</ele><time>2026-04-18T07:20:02Z</time></trkpt><trkpt lat="42.68574952872443" lon="11.864399110212062"><ele>475.59999999999997</ele><time>2026-04-18T07:20:03Z</time></trkpt><trkpt lat="42.68577954860205" lon="11.86426370893734"><ele>476.79999999999995</ele><time>2026-04-18T07:20:04Z</time></trkpt><trkpt lat="42.68580077474991" lon="11.86410738603417"><ele>478.0</ele><time>2026-04-18T07:20:05Z</time></trkpt><trkpt lat="42.685817358362286" lon="11.863942906303738"><ele>479.25</ele><time>2026-04-18T07:20:06Z</time></trkpt><trkpt lat="42.68584739945132" lon="11.863761945321961"><ele>480.5</ele><time>2026-04-18T07:20:07Z</time></trkpt><trkpt lat="42.68588955737391" lon="11.863574518879236"><ele>481.75</ele><time>2026-04-18T07:20:08Z</time></trkpt><trkpt lat="42.685946458446" lon="11.863380433993305"><ele>483.0</ele><time>2026-04-18T07:20:09Z</time></trkpt><trkpt lat="42.68599090190761" lon="11.863175496763816"><ele>483.0</ele><time>2026-04-18T07:20:10Z</time></trkpt><trkpt lat="42.68604420360393" lon="11.86295712337173"><ele>483.0</ele><time>2026-04-18T07:20:11Z</time></trkpt><trkpt lat="42.68611823360686" lon="11.862753362383257"><ele>483.0</ele><time>2026-04-18T07:20:12Z</time></trkpt><trkpt lat="42.68619873860285" lon="11.862586001475428"><ele>481.25</ele><time>2026-04-18T07:20:13Z</time></trkpt><trkpt lat="42.68628507459362" lon="11.862446760199576"><ele>479.5</ele><time>2026-04-18T07:20:14Z</time></trkpt><trkpt lat="42.68638697592285" lon="11.862321329937505"><ele>477.75</ele><time>2026-04-18T07:20:15Z</time></trkpt><trkpt lat="42.68649947447889" lon="11.862199046512965"><ele>476.0</ele><time>2026-04-18T07:20:16Z</time></trkpt><trkpt lat="42.68660862902068" lon="11.86206737121401"><ele>476.0</ele><time>2026-04-18T07:20:17Z</time></trkpt><trkpt lat="42.68671486514153" lon="11.861924662946242"><ele>476.0</ele><time>2026-04-18T07:20:18Z</time></trkpt><trkpt lat="42.68681203747372" lon="11.861802439969669"><ele>476.0</ele><time>2026-04-18T07:20:19Z</time></trkpt><trkpt lat="42.68688027040664" lon="11.861706337154335"><ele>476.0</ele><time>2026-04-18T07:20:20Z</time></trkpt><trkpt lat="42.68692159380463" lon="11.86159275683085"><ele>477.5</ele><time>2026-04-18T07:20:21Z</time></trkpt><trkpt lat="42.686941668981284" lon="11.861429797000014"><ele>479.0</ele><time>2026-04-18T07:20:22Z</time></trkpt><trkpt lat="42.68698303668737" lon="11.861241058136786"><ele>480.5</ele><time>2026-04-18T07:20:23Z</time></trkpt><trkpt lat="42.68700644735481" lon="11.86104555007867"><ele>482.0</ele><time>2026-04-18T07:20:24Z</time></trkpt><trkpt lat="42.68702913331402" lon="11.860867094124796"><ele>482.0</ele><time>2026-04-18T07:20:25Z</time></trkpt><trkpt lat="42.68705820856066" lon="11.860705085587282"><ele>482.0</ele><time>2026-04-18T07:20:26Z</time></trkpt><trkpt lat="42.68710035155868" lon="11.860551489433657"><ele>482.0</ele><time>2026-04-18T07:20:27Z</time></trkpt><trkpt lat="42.68714701366879" lon="11.860412799776014"><ele>482.0</ele><time>2026-04-18T07:20:28Z</time></trkpt><trkpt lat="42.687216891684045" lon="11.860267836901311"><ele>478.0</ele><time>2026-04-18T07:20:29Z</time></trkpt><trkpt lat="42.68730216170256" lon="11.86009670636808"><ele>474.0</ele><time>2026-04-18T07:20:30Z</time></trkpt><trkpt lat="42.68740106459056" lon="11.859913587813562"><ele>470.0</ele><time>2026-04-18T07:20:31Z</time></trkpt><trkpt lat="42.687494654282624" lon="11.859750442527973"><ele>470.0</ele><time>2026-04-18T07:20:32Z</time></trkpt><trkpt lat="42.687572441494865" lon="11.859595564227053"><ele>470.0</ele><time>2026-04-18T07:20:33Z</time></trkpt><trkpt lat="42.68763815768742" lon="11.859455643441118"><ele>470.0</ele><time>2026-04-18T07:20:34Z</time></trkpt><trkpt lat="42.68767722554487" lon="11.85934245618943"><ele>470.0</ele><time>2026-04-18T07:20:35Z</time></trkpt><trkpt lat="42.68769062387271" lon="11.859232248293903"><ele>470.0</ele><time>2026-04-18T07:20:36Z</time></trkpt><trkpt lat="42.687682204712665" lon="11.85912131477267"><ele>469.8</ele><time>2026-04-18T07:20:37Z</time></trkpt><trkpt lat="42.68765234183714" lon="11.85902894320838"><ele>469.6</ele><time>2026-04-18T07:20:38Z</time></trkpt><trkpt lat="42.687591209901704" lon="11.858971594212916"><ele>469.4</ele><time>2026-04-18T07:20:39Z</time></trkpt><trkpt lat="42.68751085198541" lon="11.858946529418908"><ele>469.2</ele><time>2026-04-18T07:20:40Z</time></trkpt><trkpt lat="42.68741391313151" lon="11.858943905827381"><ele>469.0</ele><time>2026-04-18T07:20:41Z</time></trkpt><trkpt lat="42.68728388266992" lon="11.85895087433277"><ele>469.0</ele><time>2026-04-18T07:20:42Z</time></trkpt><trkpt lat="42.687130407085405" lon="11.858959574945446"><ele>469.0</ele><time>2026-04-18T07:20:43Z</time></trkpt><trkpt lat="42.68696558638491" lon="11.858956075719911"><ele>469.0</ele><time>2026-04-18T07:20:44Z</time></trkpt><trkpt lat="42.68679727834964" lon="11.858947855379451"><ele>468.5</ele><time>2026-04-18T07:20:45Z</time></trkpt><trkpt lat="42.68663889577702" lon="11.858920856850016"><ele>468.0</ele><time>2026-04-18T07:20:46Z</time></trkpt><trkpt lat="42.68649879681503" lon="11.85887008634535"><ele>467.5</ele><time>2026-04-18T07:20:47Z</time></trkpt><trkpt lat="42.68637362802517" lon="11.8588182067488"><ele>467.0</ele><time>2026-04-18T07:20:48Z</time></trkpt><trkpt lat="42.68626604085583" lon="11.858742993295339"><ele>467.0</ele><time>2026-04-18T07:20:49Z</time></trkpt><trkpt lat="42.686156554979874" lon="11.858619109058386"><ele>467.0</ele><time>2026-04-18T07:20:50Z</time></trkpt><trkpt lat="42.686017745583605" lon="11.858455971274477"><ele>467.0</ele><time>2026-04-18T07:20:51Z</time></trkpt><trkpt lat="42.68586840695785" lon="11.85825655577949"><ele>468.3333333333333</ele><time>2026-04-18T07:20:52Z</time></trkpt><trkpt lat="42.68570222590641" lon="11.8580597585344"><ele>469.66666666666663</ele><time>2026-04-18T07:20:53Z</time></trkpt><trkpt lat="42.68554006406798" lon="11.857884827381127"><ele>471.0</ele><time>2026-04-18T07:20:54Z</time></trkpt><trkpt lat="42.685408733592425" lon="11.857724066000094"><ele>471.25</ele><time>2026-04-18T07:20:55Z</time></trkpt><trkpt lat="42.68530320658474" lon="11.857580855754478"><ele>471.5</ele><time>2026-04-18T07:20:56Z</time></trkpt><trkpt lat="42.68520924863908" lon="11.857436150734687"><ele>471.75</ele><time>2026-04-18T07:20:57Z</time></trkpt><trkpt lat="42.68514105767943" lon="11.857284693733789"><ele>472.0</ele><time>2026-04-18T07:20:58Z</time></trkpt><trkpt lat="42.685092442757" lon="11.85711903443733"><ele>472.0</ele><time>2026-04-18T07:20:59Z</time></trkpt><trkpt lat="42.685056694856144" lon="11.856921564002658"><ele>472.0</ele><time>2026-04-18T07:21:00Z</time></trkpt><trkpt lat="42.68502546442819" lon="11.856682815794489"><ele>472.0</ele><time>2026-04-18T07:21:01Z</time></trkpt><trkpt lat="42.68497327045442" lon="11.85642828846969"><ele>474.33333333333337</ele><time>2026-04-18T07:21:02Z</time></trkpt><trkpt lat="42.68490100838774" lon="11.856162027038625"><ele>476.66666666666663</ele><time>2026-04-18T07:21:03Z</time></trkpt><trkpt lat="42.68481301599949" lon="11.85590325095071"><ele>479.0</ele><time>2026-04-18T07:21:04Z</time></trkpt><trkpt lat="42.684708798645076" lon="11.855671277250453"><ele>480.75</ele><time>2026-04-18T07:21:05Z</time></trkpt><trkpt lat="42.684609286763994" lon="11.85548343321827"><ele>482.5</ele><time>2026-04-18T07:21:06Z</time></trkpt><trkpt lat="42.68453040807799" lon="11.855323669091183"><ele>484.25</ele><time>2026-04-18T07:21:07Z</time></trkpt><trkpt lat="42.68448172726392" lon="11.855167273192121"><ele>486.0</ele><time>2026-04-18T07:21:08Z</time></trkpt><trkpt lat="42.684436417054414" lon="11.85499350302702"><ele>482.75</ele><time>2026-04-18T07:21:09Z</time></trkpt><trkpt lat="42.684392792784415" lon="11.854801377611597"><ele>479.5</ele><time>2026-04-18T07:21:10Z</time></trkpt><trkpt lat="42.68434664938911" lon="11.854628210823556"><ele>476.25</ele><time>2026-04-18T07:21:11Z</time></trkpt><trkpt lat="42.684248789277454" lon="11.854483338979794"><ele>473.0</ele><time>2026-04-18T07:21:12Z</time></trkpt><trkpt lat="42.684115608686845" lon="11.854341339803014"><ele>476.66666666666663</ele><time>2026-04-18T07:21:13Z</time></trkpt><trkpt lat="42.68397003819561" lon="11.85418701845125"><ele>480.33333333333337</ele><time>2026-04-18T07:21:14Z</time></trkpt><trkpt lat="42.68383311155357" lon="11.854024146867259"><ele>484.0</ele><time>2026-04-18T07:21:15Z</time></trkpt><trkpt lat="42.683714952575905" lon="11.853842989924312"><ele>484.0</ele><time>2026-04-18T07:21:16Z</time></trkpt><trkpt lat="42.683620559866675" lon="11.853677257750357"><ele>484.0</ele><time>2026-04-18T07:21:17Z</time></trkpt><trkpt lat="42.68352983658855" lon="11.853522646218797"><ele>484.0</ele><time>2026-04-18T07:21:18Z</time></trkpt><trkpt lat="42.683419889140715" lon="11.853369898616977"><ele>483.6666666666667</ele><time>2026-04-18T07:21:19Z</time></trkpt><trkpt lat="42.68328978569973" lon="11.853233588818846"><ele>483.33333333333337</ele><time>2026-04-18T07:21:20Z</time></trkpt><trkpt lat="42.68314634827453" lon="11.853106282414956"><ele>483.0</ele><time>2026-04-18T07:21:21Z</time></trkpt><trkpt lat="42.683014955554015" lon="11.852999899985534"><ele>483.0</ele><time>2026-04-18T07:21:22Z</time></trkpt><trkpt lat="42.682896535304266" lon="11.852890364284828"><ele>483.0</ele><time>2026-04-18T07:21:23Z</time></trkpt><trkpt lat="42.68276664602855" lon="11.852768332515943"><ele>483.0</ele><time>2026-04-18T07:21:24Z</time></trkpt><trkpt lat="42.682627193658625" lon="11.852633154581856"><ele>484.0</ele><time>2026-04-18T07:21:25Z</time></trkpt><trkpt lat="42.68247704006752" lon="11.852502856519646"><ele>485.0</ele><time>2026-04-18T07:21:26Z</time></trkpt><trkpt lat="42.68231745184077" lon="11.852379991006456"><ele>486.0</ele><time>2026-04-18T07:21:27Z</time></trkpt><trkpt lat="42.682133182898625" lon="11.852267713222487"><ele>486.0</ele><time>2026-04-18T07:21:28Z</time></trkpt><trkpt lat="42.68194048374873" lon="11.852177691090233"><ele>486.0</ele><time>2026-04-18T07:21:29Z</time></trkpt><trkpt lat="42.681750719567866" lon="11.852097690446325"><ele>486.0</ele><time>2026-04-18T07:21:30Z</time></trkpt><trkpt lat="42.68159452107766" lon="11.852031627179873"><ele>484.5</ele><time>2026-04-18T07:21:31Z</time></trkpt><trkpt lat="42.68146305745605" lon="11.851971986966877"><ele>483.0</ele><time>2026-04-18T07:21:32Z</time></trkpt><trkpt lat="42.681352161425785" lon="11.851913069911479"><ele>481.5</ele><time>2026-04-18T07:21:33Z</time></trkpt><trkpt lat="42.68124494684044" lon="11.851844951780624"><ele>480.0</ele><time>2026-04-18T07:21:34Z</time></trkpt><trkpt lat="42.681165007866525" lon="11.851754378187003"><ele>480.75</ele><time>2026-04-18T07:21:35Z</time></trkpt><trkpt lat="42.68107863769984" lon="11.851633240128098"><ele>481.5</ele><time>2026-04-18T07:21:36Z</time></trkpt><trkpt lat="42.680997815333185" lon="11.851448356422647"><ele>482.25</ele><time>2026-04-18T07:21:37.001Z</time></trkpt><trkpt lat="42.68092456888816" lon="11.851255099497253"><ele>483.0</ele><time>2026-04-18T07:21:38.001Z</time></trkpt><trkpt lat="42.68086984892132" lon="11.851094204674533"><ele>483.0</ele><time>2026-04-18T07:21:39.001Z</time></trkpt><trkpt lat="42.68083071308349" lon="11.850971638440681"><ele>483.0</ele><time>2026-04-18T07:21:40.001Z</time></trkpt><trkpt lat="42.68080232507171" lon="11.850893996863464"><ele>483.0</ele><time>2026-04-18T07:21:41.001Z</time></trkpt><trkpt lat="42.680794909162984" lon="11.850785449891434"><ele>483.0</ele><time>2026-04-18T07:21:43.001Z</time></trkpt><trkpt lat="42.68085334132183" lon="11.850674325823142"><ele>483.0</ele><time>2026-04-18T07:21:45.001Z</time></trkpt><trkpt lat="42.680929399613746" lon="11.850600204548456"><ele>483.0</ele><time>2026-04-18T07:21:46.001Z</time></trkpt><trkpt lat="42.68104451984939" lon="11.850500782756564"><ele>490.66666666666663</ele><time>2026-04-18T07:21:47.001Z</time></trkpt><trkpt lat="42.68118582899553" lon="11.85040097024242"><ele>498.3333333333333</ele><time>2026-04-18T07:21:48.001Z</time></trkpt><trkpt lat="42.681362656073375" lon="11.850298076642725"><ele>506.0</ele><time>2026-04-18T07:21:49.001Z</time></trkpt><trkpt lat="42.68155971154498" lon="11.850189938980167"><ele>506.0</ele><time>2026-04-18T07:21:50.001Z</time></trkpt><trkpt lat="42.68175706355292" lon="11.850087053740495"><ele>506.0</ele><time>2026-04-18T07:21:51.001Z</time></trkpt><trkpt lat="42.68198441367592" lon="11.849990762040704"><ele>506.0</ele><time>2026-04-18T07:21:52.001Z</time></trkpt><trkpt lat="42.68219262475749" lon="11.849928798275242"><ele>507.25</ele><time>2026-04-18T07:21:53.001Z</time></trkpt><trkpt lat="42.68236478136522" lon="11.849894242953042"><ele>508.5</ele><time>2026-04-18T07:21:54.001Z</time></trkpt><trkpt lat="42.68249419963276" lon="11.849846655337636"><ele>509.75</ele><time>2026-04-18T07:21:55.001Z</time></trkpt><trkpt lat="42.682612038588395" lon="11.849768595796311"><ele>511.0</ele><time>2026-04-18T07:21:56.001Z</time></trkpt><trkpt lat="42.6827242153656" lon="11.84961570200885"><ele>509.33333333333337</ele><time>2026-04-18T07:21:57Z</time></trkpt><trkpt lat="42.682831701209444" lon="11.84942315870108"><ele>507.66666666666663</ele><time>2026-04-18T07:21:58Z</time></trkpt><trkpt lat="42.68293236244517" lon="11.849216868043182"><ele>506.0</ele><time>2026-04-18T07:21:59Z</time></trkpt><trkpt lat="42.68302605813541" lon="11.849064139876015"><ele>506.0</ele><time>2026-04-18T07:22:00Z</time></trkpt><trkpt lat="42.683115918460686" lon="11.848930472792949"><ele>506.0</ele><time>2026-04-18T07:22:01Z</time></trkpt><trkpt lat="42.683229277764184" lon="11.848797957601024"><ele>506.0</ele><time>2026-04-18T07:22:02Z</time></trkpt><trkpt lat="42.68336609498953" lon="11.848662494276816"><ele>506.0</ele><time>2026-04-18T07:22:03Z</time></trkpt><trkpt lat="42.683529089082434" lon="11.84853113993719"><ele>506.0</ele><time>2026-04-18T07:22:04Z</time></trkpt><trkpt lat="42.6837082233538" lon="11.848377341538086"><ele>506.0</ele><time>2026-04-18T07:22:05Z</time></trkpt><trkpt lat="42.6838947145795" lon="11.848213286669468"><ele>506.5</ele><time>2026-04-18T07:22:06Z</time></trkpt><trkpt lat="42.684095372854756" lon="11.848032324132248"><ele>507.0</ele><time>2026-04-18T07:22:07Z</time></trkpt><trkpt lat="42.684306964807966" lon="11.847843166117382"><ele>507.0</ele><time>2026-04-18T07:22:08Z</time></trkpt><trkpt lat="42.684520778031036" lon="11.847649919407878"><ele>507.0</ele><time>2026-04-18T07:22:09Z</time></trkpt><trkpt lat="42.684715179992914" lon="11.847475936014524"><ele>509.33333333333337</ele><time>2026-04-18T07:22:10Z</time></trkpt><trkpt lat="42.68488989988668" lon="11.847323187206586"><ele>511.6666666666667</ele><time>2026-04-18T07:22:11Z</time></trkpt><trkpt lat="42.68505527057091" lon="11.847194110494225"><ele>514.0</ele><time>2026-04-18T07:22:12Z</time></trkpt><trkpt lat="42.685206935289834" lon="11.847084542193116"><ele>513.3333333333334</ele><time>2026-04-18T07:22:13Z</time></trkpt><trkpt lat="42.6853560551069" lon="11.846982052809862"><ele>512.6666666666666</ele><time>2026-04-18T07:22:14Z</time></trkpt><trkpt lat="42.68551201234254" lon="11.84687644081423"><ele>512.0</ele><time>2026-04-18T07:22:15Z</time></trkpt><trkpt lat="42.68568244098246" lon="11.84677073302136"><ele>513.0</ele><time>2026-04-18T07:22:16Z</time></trkpt><trkpt lat="42.685855680999154" lon="11.846667091698349"><ele>514.0</ele><time>2026-04-18T07:22:17Z</time></trkpt><trkpt lat="42.68603219303616" lon="11.846563818851944"><ele>515.0</ele><time>2026-04-18T07:22:18Z</time></trkpt><trkpt lat="42.686204407420504" lon="11.846461869380267"><ele>515.0</ele><time>2026-04-18T07:22:19Z</time></trkpt><trkpt lat="42.686374304580944" lon="11.846350448769853"><ele>515.0</ele><time>2026-04-18T07:22:20Z</time></trkpt><trkpt lat="42.68652291347335" lon="11.846251777472364"><ele>515.0</ele><time>2026-04-18T07:22:21Z</time></trkpt><trkpt lat="42.68666216255579" lon="11.846161438737086"><ele>515.0</ele><time>2026-04-18T07:22:22Z</time></trkpt><trkpt lat="42.68678149353341" lon="11.846081941769556"><ele>515.0</ele><time>2026-04-18T07:22:23Z</time></trkpt><trkpt lat="42.686898945867235" lon="11.846007294629711"><ele>515.0</ele><time>2026-04-18T07:22:24Z</time></trkpt><trkpt lat="42.687021291006715" lon="11.845953832063604"><ele>515.0</ele><time>2026-04-18T07:22:25Z</time></trkpt><trkpt lat="42.68715680007701" lon="11.845939417034018"><ele>515.0</ele><time>2026-04-18T07:22:26Z</time></trkpt><trkpt lat="42.68731929440743" lon="11.845967391335668"><ele>515.0</ele><time>2026-04-18T07:22:27Z</time></trkpt><trkpt lat="42.68749208638473" lon="11.84602659625808"><ele>515.0</ele><time>2026-04-18T07:22:28Z</time></trkpt><trkpt lat="42.68764312152244" lon="11.846091694864299"><ele>515.0</ele><time>2026-04-18T07:22:29Z</time></trkpt><trkpt lat="42.68774983553727" lon="11.846130022721166"><ele>515.0</ele><time>2026-04-18T07:22:30Z</time></trkpt><trkpt lat="42.68785496530086" lon="11.846134796007869"><ele>515.0</ele><time>2026-04-18T07:22:31Z</time></trkpt><trkpt lat="42.68795790063243" lon="11.846080452773444"><ele>515.0</ele><time>2026-04-18T07:22:32Z</time></trkpt><trkpt lat="42.68804582400429" lon="11.845982772376708"><ele>515.0</ele><time>2026-04-18T07:22:33Z</time></trkpt><trkpt lat="42.688115071128024" lon="11.845839809644044"><ele>511.0</ele><time>2026-04-18T07:22:34Z</time></trkpt><trkpt lat="42.688180465730255" lon="11.845678136577913"><ele>507.0</ele><time>2026-04-18T07:22:35Z</time></trkpt><trkpt lat="42.68825829450929" lon="11.845543152893422"><ele>503.0</ele><time>2026-04-18T07:22:36Z</time></trkpt><trkpt lat="42.68837632362198" lon="11.845434763650102"><ele>499.0</ele><time>2026-04-18T07:22:37Z</time></trkpt><trkpt lat="42.68853529370519" lon="11.845327471564586"><ele>502.0</ele><time>2026-04-18T07:22:38Z</time></trkpt><trkpt lat="42.688732335221964" lon="11.845209499801063"><ele>505.0</ele><time>2026-04-18T07:22:39Z</time></trkpt><trkpt lat="42.68895106055094" lon="11.84507817303587"><ele>500.33333333333337</ele><time>2026-04-18T07:22:40Z</time></trkpt><trkpt lat="42.68914796326095" lon="11.844960873915081"><ele>495.66666666666663</ele><time>2026-04-18T07:22:41Z</time></trkpt><trkpt lat="42.6893114143109" lon="11.84485979868644"><ele>491.0</ele><time>2026-04-18T07:22:42Z</time></trkpt><trkpt lat="42.6894583215131" lon="11.844771639610942"><ele>490.75</ele><time>2026-04-18T07:22:43Z</time></trkpt><trkpt lat="42.68958946507674" lon="11.844692959589231"><ele>490.5</ele><time>2026-04-18T07:22:44Z</time></trkpt><trkpt lat="42.6897153946367" lon="11.844613618448744"><ele>490.25</ele><time>2026-04-18T07:22:45Z</time></trkpt><trkpt lat="42.68983741150347" lon="11.844549606919102"><ele>490.0</ele><time>2026-04-18T07:22:46Z</time></trkpt><trkpt lat="42.689953711327746" lon="11.844498991610983"><ele>490.0</ele><time>2026-04-18T07:22:47Z</time></trkpt><trkpt lat="42.69007364374391" lon="11.844475154920415"><ele>490.0</ele><time>2026-04-18T07:22:48Z</time></trkpt><trkpt lat="42.69020707758809" lon="11.844463137751404"><ele>490.0</ele><time>2026-04-18T07:22:49Z</time></trkpt><trkpt lat="42.690323732265796" lon="11.844458724789344"><ele>490.0</ele><time>2026-04-18T07:22:50Z</time></trkpt><trkpt lat="42.69033177550916" lon="11.844366499017973"><ele>490.0</ele><time>2026-04-18T07:22:54Z</time></trkpt><trkpt lat="42.69018958972534" lon="11.844331216175775"><ele>490.0</ele><time>2026-04-18T07:22:56Z</time></trkpt><trkpt lat="42.690070746461934" lon="11.844324417586762"><ele>490.0</ele><time>2026-04-18T07:22:57Z</time></trkpt><trkpt lat="42.68992823381013" lon="11.844291181913967"><ele>490.0</ele><time>2026-04-18T07:22:58Z</time></trkpt><trkpt lat="42.68981449677465" lon="11.844245764635438"><ele>490.0</ele><time>2026-04-18T07:22:59Z</time></trkpt><trkpt lat="42.68971744469676" lon="11.844209369250082"><ele>490.2</ele><time>2026-04-18T07:23:00Z</time></trkpt><trkpt lat="42.689615066336074" lon="11.844189464917164"><ele>490.4</ele><time>2026-04-18T07:23:01Z</time></trkpt><trkpt lat="42.68951345679879" lon="11.844190954615506"><ele>490.6</ele><time>2026-04-18T07:23:02Z</time></trkpt><trkpt lat="42.68940198866849" lon="11.844227519435057"><ele>490.8</ele><time>2026-04-18T07:23:03Z</time></trkpt><trkpt lat="42.68929525053137" lon="11.844287496928805"><ele>491.0</ele><time>2026-04-18T07:23:04Z</time></trkpt><trkpt lat="42.68921161226113" lon="11.844355659702723"><ele>490.99999999999994</ele><time>2026-04-18T07:23:05Z</time></trkpt><trkpt lat="42.689133125435376" lon="11.844417818763572"><ele>491.0</ele><time>2026-04-18T07:23:06Z</time></trkpt><trkpt lat="42.68905330906689" lon="11.844469218315966"><ele>491.0</ele><time>2026-04-18T07:23:07Z</time></trkpt><trkpt lat="42.68897417671158" lon="11.844511077050965"><ele>491.0</ele><time>2026-04-18T07:23:08Z</time></trkpt><trkpt lat="42.6888927474552" lon="11.844553430179245"><ele>490.99999999999994</ele><time>2026-04-18T07:23:09Z</time></trkpt><trkpt lat="42.6888084672738" lon="11.844600471942213"><ele>491.0</ele><time>2026-04-18T07:23:10Z</time></trkpt><trkpt lat="42.68872621989435" lon="11.844654678049329"><ele>490.99999999999994</ele><time>2026-04-18T07:23:11Z</time></trkpt><trkpt lat="42.688648447420505" lon="11.844696621860502"><ele>491.0</ele><time>2026-04-18T07:23:12Z</time></trkpt><trkpt lat="42.6885796005373" lon="11.84474331608663"><ele>491.0</ele><time>2026-04-18T07:23:13Z</time></trkpt><trkpt lat="42.688504203026554" lon="11.844771902592448"><ele>491.0</ele><time>2026-04-18T07:23:14Z</time></trkpt><trkpt lat="42.68842564039326" lon="11.84477619486345"><ele>490.99999999999994</ele><time>2026-04-18T07:23:15Z</time></trkpt><trkpt lat="42.6883478921694" lon="11.844777226177742"><ele>491.0</ele><time>2026-04-18T07:23:16Z</time></trkpt><trkpt lat="42.688268933198806" lon="11.844782090038162"><ele>489.4</ele><time>2026-04-18T07:23:17Z</time></trkpt><trkpt lat="42.688196877012686" lon="11.844783885929035"><ele>487.8</ele><time>2026-04-18T07:23:18Z</time></trkpt><trkpt lat="42.68813215894627" lon="11.844789436444419"><ele>486.19999999999993</ele><time>2026-04-18T07:23:19Z</time></trkpt><trkpt lat="42.688011525000846" lon="11.844723663901291"><ele>484.59999999999997</ele><time>2026-04-18T07:23:21Z</time></trkpt><trkpt lat="42.68796469796256" lon="11.844622239700344"><ele>483.0</ele><time>2026-04-18T07:23:22Z</time></trkpt><trkpt lat="42.687927523167474" lon="11.844484042986378"><ele>483.0</ele><time>2026-04-18T07:23:23Z</time></trkpt><trkpt lat="42.68788246756537" lon="11.84431797325029"><ele>482.99999999999994</ele><time>2026-04-18T07:23:24Z</time></trkpt><trkpt lat="42.68786077267929" lon="11.844173165692997"><ele>482.99999999999994</ele><time>2026-04-18T07:23:25Z</time></trkpt><trkpt lat="42.687831478738225" lon="11.844050539712915"><ele>483.0</ele><time>2026-04-18T07:23:26Z</time></trkpt><trkpt lat="42.68781567783861" lon="11.843939599877444"><ele>483.0</ele><time>2026-04-18T07:23:27Z</time></trkpt><trkpt lat="42.68782268126626" lon="11.84384131212568"><ele>482.0</ele><time>2026-04-18T07:23:28Z</time></trkpt><trkpt lat="42.68786009071506" lon="11.843759834250823"><ele>480.99999999999994</ele><time>2026-04-18T07:23:29Z</time></trkpt><trkpt lat="42.68793817381087" lon="11.84368439531189"><ele>479.99999999999994</ele><time>2026-04-18T07:23:30Z</time></trkpt><trkpt lat="42.68803867989267" lon="11.843604284907158"><ele>479.0</ele><time>2026-04-18T07:23:31Z</time></trkpt><trkpt lat="42.68815583803598" lon="11.843505573387725"><ele>478.0</ele><time>2026-04-18T07:23:32Z</time></trkpt><trkpt lat="42.68825818906769" lon="11.843404073160983"><ele>478.0</ele><time>2026-04-18T07:23:33Z</time></trkpt><trkpt lat="42.68835730830959" lon="11.843331845009741"><ele>478.0</ele><time>2026-04-18T07:23:34Z</time></trkpt><trkpt lat="42.68848168073415" lon="11.843286120098046"><ele>478.0</ele><time>2026-04-18T07:23:35Z</time></trkpt><trkpt lat="42.68861535944046" lon="11.8432481681417"><ele>478.0</ele><time>2026-04-18T07:23:36Z</time></trkpt><trkpt lat="42.688739781193796" lon="11.8431986673294"><ele>476.0</ele><time>2026-04-18T07:23:37Z</time></trkpt><trkpt lat="42.688870133742604" lon="11.843126801696263"><ele>474.0</ele><time>2026-04-18T07:23:38Z</time></trkpt><trkpt lat="42.689008990734955" lon="11.843049114780502"><ele>472.0</ele><time>2026-04-18T07:23:39Z</time></trkpt><trkpt lat="42.68912236290525" lon="11.842980821243081"><ele>470.0</ele><time>2026-04-18T07:23:40Z</time></trkpt><trkpt lat="42.68922511055913" lon="11.842923939825095"><ele>469.99999999999994</ele><time>2026-04-18T07:23:41Z</time></trkpt><trkpt lat="42.689311390997965" lon="11.842864862096068"><ele>470.0</ele><time>2026-04-18T07:23:42Z</time></trkpt><trkpt lat="42.68939802407959" lon="11.842795733391416"><ele>470.0</ele><time>2026-04-18T07:23:43Z</time></trkpt><trkpt lat="42.68945839022657" lon="11.842704040902145"><ele>470.0</ele><time>2026-04-18T07:23:44Z</time></trkpt><trkpt lat="42.68948877207728" lon="11.842617308955097"><ele>469.99999999999994</ele><time>2026-04-18T07:23:45Z</time></trkpt><trkpt lat="42.68948872699077" lon="11.84252829934208"><ele>470.0</ele><time>2026-04-18T07:23:46Z</time></trkpt><trkpt lat="42.68945721013002" lon="11.842439423430834"><ele>471.4</ele><time>2026-04-18T07:23:47Z</time></trkpt><trkpt lat="42.68938407094491" lon="11.842364296624522"><ele>472.8</ele><time>2026-04-18T07:23:48Z</time></trkpt><trkpt lat="42.68929797695512" lon="11.842321057900074"><ele>474.20000000000005</ele><time>2026-04-18T07:23:49Z</time></trkpt><trkpt lat="42.689189069672814" lon="11.842301787043027"><ele>475.6</ele><time>2026-04-18T07:23:50Z</time></trkpt><trkpt lat="42.6890904921773" lon="11.842303744350211"><ele>477.0</ele><time>2026-04-18T07:23:51Z</time></trkpt><trkpt lat="42.688980996100774" lon="11.842292484192347"><ele>477.0</ele><time>2026-04-18T07:23:53Z</time></trkpt><trkpt lat="42.688920752015754" lon="11.842246430117758"><ele>477.00000000000006</ele><time>2026-04-18T07:23:54Z</time></trkpt><trkpt lat="42.688821650317045" lon="11.842172490649"><ele>477.00000000000006</ele><time>2026-04-18T07:23:55Z</time></trkpt><trkpt lat="42.68869218496671" lon="11.842095965989783"><ele>477.0</ele><time>2026-04-18T07:23:56Z</time></trkpt><trkpt lat="42.688581350931024" lon="11.84202731284385"><ele>477.0</ele><time>2026-04-18T07:23:57Z</time></trkpt><trkpt lat="42.68847753015903" lon="11.841966251731165"><ele>476.20000000000005</ele><time>2026-04-18T07:23:58Z</time></trkpt><trkpt lat="42.68837874226131" lon="11.841915695635823"><ele>475.40000000000003</ele><time>2026-04-18T07:23:59Z</time></trkpt><trkpt lat="42.688276367549854" lon="11.841877099033042"><ele>474.59999999999997</ele><time>2026-04-18T07:24:00Z</time></trkpt><trkpt lat="42.68818482213223" lon="11.841843085046067"><ele>473.79999999999995</ele><time>2026-04-18T07:24:01Z</time></trkpt><trkpt lat="42.68809251118747" lon="11.841809126645288"><ele>473.0</ele><time>2026-04-18T07:24:02Z</time></trkpt><trkpt lat="42.68798909139091" lon="11.841772061174042"><ele>473.0</ele><time>2026-04-18T07:24:03Z</time></trkpt><trkpt lat="42.68789684097073" lon="11.841733339010563"><ele>472.99999999999994</ele><time>2026-04-18T07:24:04Z</time></trkpt><trkpt lat="42.6878065440593" lon="11.84169954867987"><ele>472.99999999999994</ele><time>2026-04-18T07:24:05Z</time></trkpt><trkpt lat="42.68771055617646" lon="11.84166649802897"><ele>473.0</ele><time>2026-04-18T07:24:06Z</time></trkpt><trkpt lat="42.68760277324786" lon="11.841622734933123"><ele>473.0</ele><time>2026-04-18T07:24:07Z</time></trkpt><trkpt lat="42.68750219601884" lon="11.841565715218476"><ele>473.8333333333333</ele><time>2026-04-18T07:24:08Z</time></trkpt><trkpt lat="42.68742563722456" lon="11.841492564118719"><ele>474.66666666666663</ele><time>2026-04-18T07:24:09Z</time></trkpt><trkpt lat="42.687363103507316" lon="11.841386392432115"><ele>475.5</ele><time>2026-04-18T07:24:10Z</time></trkpt><trkpt lat="42.6873249867458" lon="11.841277410125226"><ele>476.33333333333337</ele><time>2026-04-18T07:24:11Z</time></trkpt><trkpt lat="42.68728869815396" lon="11.84117381534337"><ele>477.1666666666667</ele><time>2026-04-18T07:24:12Z</time></trkpt><trkpt lat="42.68724296908212" lon="11.841079936385537"><ele>478.0</ele><time>2026-04-18T07:24:13Z</time></trkpt><trkpt lat="42.687194679256635" lon="11.840998132855129"><ele>477.00000000000006</ele><time>2026-04-18T07:24:14Z</time></trkpt><trkpt lat="42.68715129759559" lon="11.840918803495063"><ele>476.0</ele><time>2026-04-18T07:24:15Z</time></trkpt><trkpt lat="42.68712887119867" lon="11.840838541051086"><ele>475.0</ele><time>2026-04-18T07:24:16Z</time></trkpt><trkpt lat="42.68712142748721" lon="11.840752294796863"><ele>474.0</ele><time>2026-04-18T07:24:17Z</time></trkpt><trkpt lat="42.68713982552081" lon="11.840580465657686"><ele>473.00000000000006</ele><time>2026-04-18T07:24:19Z</time></trkpt><trkpt lat="42.68714424712723" lon="11.840474654986986"><ele>472.0</ele><time>2026-04-18T07:24:20Z</time></trkpt><trkpt lat="42.68713474830384" lon="11.840358395872723"><ele>472.00000000000006</ele><time>2026-04-18T07:24:21Z</time></trkpt><trkpt lat="42.68711865716988" lon="11.84023750016334"><ele>472.0</ele><time>2026-04-18T07:24:22Z</time></trkpt><trkpt lat="42.687100497976886" lon="11.840121649062253"><ele>472.0</ele><time>2026-04-18T07:24:23Z</time></trkpt><trkpt lat="42.687084769094696" lon="11.840006500139964"><ele>472.0</ele><time>2026-04-18T07:24:24Z</time></trkpt><trkpt lat="42.68705993443736" lon="11.839888695802687"><ele>472.00000000000006</ele><time>2026-04-18T07:24:25Z</time></trkpt><trkpt lat="42.68702750849561" lon="11.839784586115853"><ele>472.0</ele><time>2026-04-18T07:24:26Z</time></trkpt><trkpt lat="42.6869906380089" lon="11.839670898041879"><ele>473.0</ele><time>2026-04-18T07:24:27Z</time></trkpt><trkpt lat="42.68694722428319" lon="11.83955174562777"><ele>474.00000000000006</ele><time>2026-04-18T07:24:28Z</time></trkpt><trkpt lat="42.686898661948184" lon="11.839428900058573"><ele>475.00000000000006</ele><time>2026-04-18T07:24:29Z</time></trkpt><trkpt lat="42.68685002074611" lon="11.839299149171278"><ele>476.0</ele><time>2026-04-18T07:24:30Z</time></trkpt><trkpt lat="42.68681381538378" lon="11.83917405012865"><ele>477.0</ele><time>2026-04-18T07:24:31Z</time></trkpt><trkpt lat="42.686772627255955" lon="11.839077057880319"><ele>480.0</ele><time>2026-04-18T07:24:32Z</time></trkpt><trkpt lat="42.6867187205809" lon="11.838981414425584"><ele>483.00000000000006</ele><time>2026-04-18T07:24:33Z</time></trkpt><trkpt lat="42.68666190398545" lon="11.838880801010378"><ele>486.00000000000006</ele><time>2026-04-18T07:24:34Z</time></trkpt><trkpt lat="42.68660689825076" lon="11.838775607619795"><ele>489.0</ele><time>2026-04-18T07:24:35Z</time></trkpt><trkpt lat="42.686547147751796" lon="11.83867356825918"><ele>492.0</ele><time>2026-04-18T07:24:36Z</time></trkpt><trkpt lat="42.6864833146403" lon="11.838572330326336"><ele>492.0</ele><time>2026-04-18T07:24:37Z</time></trkpt><trkpt lat="42.68642756325105" lon="11.838477274221248"><ele>492.0</ele><time>2026-04-18T07:24:38Z</time></trkpt><trkpt lat="42.686371074233385" lon="11.838392174712498"><ele>492.0</ele><time>2026-04-18T07:24:39Z</time></trkpt><trkpt lat="42.68633361103469" lon="11.838279770792072"><ele>492.0</ele><time>2026-04-18T07:24:40Z</time></trkpt><trkpt lat="42.686293730097276" lon="11.838193395272315"><ele>492.0</ele><time>2026-04-18T07:24:41Z</time></trkpt><trkpt lat="42.68624025350433" lon="11.838117347110794"><ele>492.0</ele><time>2026-04-18T07:24:42Z</time></trkpt><trkpt lat="42.68618614759976" lon="11.838027022466283"><ele>492.20000000000005</ele><time>2026-04-18T07:24:43Z</time></trkpt><trkpt lat="42.68613459796798" lon="11.837928365572452"><ele>492.40000000000003</ele><time>2026-04-18T07:24:44Z</time></trkpt><trkpt lat="42.68610421683437" lon="11.837824245068402"><ele>492.59999999999997</ele><time>2026-04-18T07:24:45Z</time></trkpt><trkpt lat="42.6860742666789" lon="11.83772877997656"><ele>492.79999999999995</ele><time>2026-04-18T07:24:46Z</time></trkpt><trkpt lat="42.685971432189035" lon="11.837618361090875"><ele>493.0</ele><time>2026-04-18T07:24:48Z</time></trkpt><trkpt lat="42.685875707611295" lon="11.837568377426866"><ele>495.59999999999997</ele><time>2026-04-18T07:24:49Z</time></trkpt><trkpt lat="42.68578831821232" lon="11.837519115125287"><ele>498.19999999999993</ele><time>2026-04-18T07:24:50Z</time></trkpt><trkpt lat="42.68571287043157" lon="11.837464237646175"><ele>500.8</ele><time>2026-04-18T07:24:51Z</time></trkpt><trkpt lat="42.68562862140792" lon="11.837412174709765"><ele>503.4</ele><time>2026-04-18T07:24:52Z</time></trkpt><trkpt lat="42.68554293025571" lon="11.837355490831257"><ele>506.0</ele><time>2026-04-18T07:24:53Z</time></trkpt><trkpt lat="42.685447169914404" lon="11.837286818213308"><ele>506.0</ele><time>2026-04-18T07:24:54Z</time></trkpt><trkpt lat="42.68535191295809" lon="11.837212484749736"><ele>506.0</ele><time>2026-04-18T07:24:55Z</time></trkpt><trkpt lat="42.68525390018921" lon="11.837113582663482"><ele>506.0</ele><time>2026-04-18T07:24:56Z</time></trkpt><trkpt lat="42.68517806781275" lon="11.837028189771654"><ele>506.0</ele><time>2026-04-18T07:24:57Z</time></trkpt><trkpt lat="42.68511607635196" lon="11.836979819153852"><ele>506.0</ele><time>2026-04-18T07:24:58Z</time></trkpt><trkpt lat="42.684993764575985" lon="11.836935376846533"><ele>506.7142857142858</ele><time>2026-04-18T07:25:00Z</time></trkpt><trkpt lat="42.68492195112379" lon="11.836901945520083"><ele>507.42857142857144</ele><time>2026-04-18T07:25:01Z</time></trkpt><trkpt lat="42.68485457470815" lon="11.83685534927242"><ele>508.14285714285717</ele><time>2026-04-18T07:25:02Z</time></trkpt><trkpt lat="42.68479856052916" lon="11.83680663217024"><ele>508.8571428571429</ele><time>2026-04-18T07:25:03Z</time></trkpt><trkpt lat="42.684735801568934" lon="11.83676547628198"><ele>509.57142857142856</ele><time>2026-04-18T07:25:04Z</time></trkpt><trkpt lat="42.684664981314974" lon="11.83672304616676"><ele>510.2857142857143</ele><time>2026-04-18T07:25:05Z</time></trkpt><trkpt lat="42.68458559917389" lon="11.836692309288013"><ele>511.0</ele><time>2026-04-18T07:25:06Z</time></trkpt><trkpt lat="42.684498111946006" lon="11.836661117024123"><ele>510.6666666666667</ele><time>2026-04-18T07:25:07Z</time></trkpt><trkpt lat="42.68442094273551" lon="11.836635145132197"><ele>510.33333333333337</ele><time>2026-04-18T07:25:08Z</time></trkpt><trkpt lat="42.68435007430909" lon="11.836583159201691"><ele>510.0</ele><time>2026-04-18T07:25:09Z</time></trkpt><trkpt lat="42.68427945540961" lon="11.836548057135772"><ele>509.66666666666663</ele><time>2026-04-18T07:25:10Z</time></trkpt><trkpt lat="42.684188040557714" lon="11.836521461905246"><ele>509.3333333333333</ele><time>2026-04-18T07:25:11Z</time></trkpt><trkpt lat="42.68409932334664" lon="11.836502606646349"><ele>509.0</ele><time>2026-04-18T07:25:12Z</time></trkpt><trkpt lat="42.68401664329171" lon="11.836473159422134"><ele>509.0</ele><time>2026-04-18T07:25:13Z</time></trkpt><trkpt lat="42.68393382949805" lon="11.836443371641233"><ele>509.0</ele><time>2026-04-18T07:25:14Z</time></trkpt><trkpt lat="42.68383851946456" lon="11.836407159799366"><ele>509.0</ele><time>2026-04-18T07:25:15Z</time></trkpt><trkpt lat="42.68373546629051" lon="11.836370001220056"><ele>509.0</ele><time>2026-04-18T07:25:16Z</time></trkpt><trkpt lat="42.68364127293412" lon="11.836339231587974"><ele>509.0</ele><time>2026-04-18T07:25:17Z</time></trkpt><trkpt lat="42.68355727624385" lon="11.836312112990186"><ele>507.4</ele><time>2026-04-18T07:25:18Z</time></trkpt><trkpt lat="42.68347818121689" lon="11.83627838803272"><ele>505.79999999999995</ele><time>2026-04-18T07:25:19Z</time></trkpt><trkpt lat="42.68339433913428" lon="11.83622832601407"><ele>504.20000000000005</ele><time>2026-04-18T07:25:20Z</time></trkpt><trkpt lat="42.6833000826489" lon="11.836170677923082"><ele>502.6</ele><time>2026-04-18T07:25:21Z</time></trkpt><trkpt lat="42.68321760484371" lon="11.83611310566556"><ele>501.0</ele><time>2026-04-18T07:25:22Z</time></trkpt><trkpt lat="42.68314272150659" lon="11.836062029545406"><ele>501.0</ele><time>2026-04-18T07:25:23Z</time></trkpt><trkpt lat="42.683064774108566" lon="11.83600540462285"><ele>501.0</ele><time>2026-04-18T07:25:24Z</time></trkpt><trkpt lat="42.682978308253155" lon="11.835943160882781"><ele>501.0</ele><time>2026-04-18T07:25:25Z</time></trkpt><trkpt lat="42.682882950796255" lon="11.835879858479915"><ele>501.0</ele><time>2026-04-18T07:25:26Z</time></trkpt><trkpt lat="42.68278391227574" lon="11.835819302642195"><ele>501.0</ele><time>2026-04-18T07:25:27Z</time></trkpt><trkpt lat="42.68267949148106" lon="11.835754044933145"><ele>502.6</ele><time>2026-04-18T07:25:28Z</time></trkpt><trkpt lat="42.68256211319999" lon="11.835695752321824"><ele>504.20000000000005</ele><time>2026-04-18T07:25:29Z</time></trkpt><trkpt lat="42.68245184053972" lon="11.83565846629331"><ele>505.79999999999995</ele><time>2026-04-18T07:25:30Z</time></trkpt><trkpt lat="42.68234613778784" lon="11.835642315386705"><ele>507.4</ele><time>2026-04-18T07:25:31Z</time></trkpt><trkpt lat="42.68224649867844" lon="11.83562842307661"><ele>509.0</ele><time>2026-04-18T07:25:32Z</time></trkpt><trkpt lat="42.682144629770015" lon="11.835629226806"><ele>509.0</ele><time>2026-04-18T07:25:33Z</time></trkpt><trkpt lat="42.68203828000338" lon="11.835624823236467"><ele>509.0</ele><time>2026-04-18T07:25:34Z</time></trkpt><trkpt lat="42.68193939536144" lon="11.835614401939779"><ele>509.0</ele><time>2026-04-18T07:25:35Z</time></trkpt><trkpt lat="42.681836203859966" lon="11.835600440363594"><ele>509.0</ele><time>2026-04-18T07:25:36Z</time></trkpt><trkpt lat="42.68173480774002" lon="11.835587088939857"><ele>509.0</ele><time>2026-04-18T07:25:37Z</time></trkpt><trkpt lat="42.68162785145058" lon="11.83556780579432"><ele>508.75</ele><time>2026-04-18T07:25:38Z</time></trkpt><trkpt lat="42.68152097251784" lon="11.835555077535064"><ele>508.5</ele><time>2026-04-18T07:25:39Z</time></trkpt><trkpt lat="42.68141251064825" lon="11.835544901872844"><ele>508.25</ele><time>2026-04-18T07:25:40Z</time></trkpt><trkpt lat="42.681294037783296" lon="11.835532473364838"><ele>508.0</ele><time>2026-04-18T07:25:41Z</time></trkpt><trkpt lat="42.6811698504112" lon="11.83551462011364"><ele>508.0</ele><time>2026-04-18T07:25:42Z</time></trkpt><trkpt lat="42.68104471474398" lon="11.835493375543411"><ele>508.0</ele><time>2026-04-18T07:25:43Z</time></trkpt><trkpt lat="42.68092972004819" lon="11.83547582468385"><ele>508.0</ele><time>2026-04-18T07:25:44Z</time></trkpt><trkpt lat="42.68082170807235" lon="11.835455444288685"><ele>508.0</ele><time>2026-04-18T07:25:45Z</time></trkpt><trkpt lat="42.68071746292135" lon="11.835427207494533"><ele>508.0</ele><time>2026-04-18T07:25:46Z</time></trkpt><trkpt lat="42.68060871359372" lon="11.83539912062936"><ele>507.99999999999994</ele><time>2026-04-18T07:25:47Z</time></trkpt><trkpt lat="42.68050141175753" lon="11.835363899679832"><ele>507.99999999999994</ele><time>2026-04-18T07:25:48Z</time></trkpt><trkpt lat="42.68041477206344" lon="11.835328409538988"><ele>508.0</ele><time>2026-04-18T07:25:49Z</time></trkpt><trkpt lat="42.680335838792686" lon="11.835283603795174"><ele>508.0</ele><time>2026-04-18T07:25:50Z</time></trkpt><trkpt lat="42.68026585469925" lon="11.83524282383518"><ele>508.59999999999997</ele><time>2026-04-18T07:25:51Z</time></trkpt><trkpt lat="42.6801792838055" lon="11.835190516387927"><ele>509.19999999999993</ele><time>2026-04-18T07:25:53Z</time></trkpt><trkpt lat="42.68011717340415" lon="11.835161238969986"><ele>509.8</ele><time>2026-04-18T07:25:55Z</time></trkpt><trkpt lat="42.68003111971407" lon="11.835116073688933"><ele>510.4</ele><time>2026-04-18T07:25:57Z</time></trkpt><trkpt lat="42.679908428380585" lon="11.835057801005302"><ele>511.0</ele><time>2026-04-18T07:25:59Z</time></trkpt><trkpt lat="42.67981892878631" lon="11.835016936556743"><ele>511.0</ele><time>2026-04-18T07:26:00Z</time></trkpt><trkpt lat="42.679720962858674" lon="11.834966517314914"><ele>511.0</ele><time>2026-04-18T07:26:01Z</time></trkpt><trkpt lat="42.67962608555966" lon="11.834908894799042"><ele>511.0</ele><time>2026-04-18T07:26:02Z</time></trkpt><trkpt lat="42.67954312463734" lon="11.834847730468294"><ele>511.0</ele><time>2026-04-18T07:26:03Z</time></trkpt><trkpt lat="42.67945063697826" lon="11.834781118938853"><ele>511.0</ele><time>2026-04-18T07:26:04Z</time></trkpt><trkpt lat="42.67934299646781" lon="11.834708499861955"><ele>510.75</ele><time>2026-04-18T07:26:05Z</time></trkpt><trkpt lat="42.67923250681138" lon="11.834626678467979"><ele>510.5</ele><time>2026-04-18T07:26:06Z</time></trkpt><trkpt lat="42.67912112775809" lon="11.834545145817023"><ele>510.25</ele><time>2026-04-18T07:26:07Z</time></trkpt><trkpt lat="42.6790144155554" lon="11.834470984817937"><ele>510.0</ele><time>2026-04-18T07:26:08Z</time></trkpt><trkpt lat="42.678913286366765" lon="11.834391884245257"><ele>510.0</ele><time>2026-04-18T07:26:09Z</time></trkpt><trkpt lat="42.678831501043106" lon="11.834317236358222"><ele>510.0</ele><time>2026-04-18T07:26:10Z</time></trkpt><trkpt lat="42.678736777943925" lon="11.834287921019172"><ele>510.0</ele><time>2026-04-18T07:26:11Z</time></trkpt><trkpt lat="42.67863945534169" lon="11.834245121634744"><ele>510.0</ele><time>2026-04-18T07:26:12Z</time></trkpt><trkpt lat="42.678542829629976" lon="11.834200828129358"><ele>510.0</ele><time>2026-04-18T07:26:13Z</time></trkpt><trkpt lat="42.67844311989898" lon="11.834149559656488"><ele>510.6</ele><time>2026-04-18T07:26:14Z</time></trkpt><trkpt lat="42.678338739122076" lon="11.834101173333625"><ele>511.2</ele><time>2026-04-18T07:26:15Z</time></trkpt><trkpt lat="42.67823216026782" lon="11.834049442140264"><ele>511.79999999999995</ele><time>2026-04-18T07:26:16Z</time></trkpt><trkpt lat="42.678128844871125" lon="11.834002935115285"><ele>512.4</ele><time>2026-04-18T07:26:17Z</time></trkpt><trkpt lat="42.67802636597843" lon="11.833956602672957"><ele>513.0</ele><time>2026-04-18T07:26:18Z</time></trkpt><trkpt lat="42.67792265499237" lon="11.833891048212962"><ele>513.0</ele><time>2026-04-18T07:26:19Z</time></trkpt><trkpt lat="42.67782649063735" lon="11.833827342235013"><ele>513.0</ele><time>2026-04-18T07:26:20Z</time></trkpt><trkpt lat="42.67774379837448" lon="11.833764763963956"><ele>513.0</ele><time>2026-04-18T07:26:21Z</time></trkpt><trkpt lat="42.67765364424798" lon="11.83370571431103"><ele>513.0</ele><time>2026-04-18T07:26:22Z</time></trkpt><trkpt lat="42.677559357817216" lon="11.833650774399034"><ele>513.0</ele><time>2026-04-18T07:26:23Z</time></trkpt><trkpt lat="42.67747198959336" lon="11.83359221396696"><ele>512.4</ele><time>2026-04-18T07:26:24Z</time></trkpt><trkpt lat="42.67737503465729" lon="11.83353808910197"><ele>511.79999999999995</ele><time>2026-04-18T07:26:25Z</time></trkpt><trkpt lat="42.67727485132019" lon="11.833498245964934"><ele>511.2</ele><time>2026-04-18T07:26:26Z</time></trkpt><trkpt lat="42.67716738542604" lon="11.833468019463261"><ele>510.6</ele><time>2026-04-18T07:26:27Z</time></trkpt><trkpt lat="42.67705740408494" lon="11.833445471331405"><ele>510.0</ele><time>2026-04-18T07:26:28Z</time></trkpt><trkpt lat="42.67696433395287" lon="11.83342233764923"><ele>511.0</ele><time>2026-04-18T07:26:29Z</time></trkpt><trkpt lat="42.67688409981312" lon="11.833391509552188"><ele>512.0</ele><time>2026-04-18T07:26:30Z</time></trkpt><trkpt lat="42.67679479679782" lon="11.833354073934823"><ele>513.0</ele><time>2026-04-18T07:26:31Z</time></trkpt><trkpt lat="42.67669856314136" lon="11.833306655367732"><ele>514.0</ele><time>2026-04-18T07:26:32Z</time></trkpt><trkpt lat="42.67661275468983" lon="11.83326046646905"><ele>515.0</ele><time>2026-04-18T07:26:33Z</time></trkpt><trkpt lat="42.676526892969235" lon="11.833205898176846"><ele>515.0</ele><time>2026-04-18T07:26:34Z</time></trkpt><trkpt lat="42.67643688850769" lon="11.83315926204703"><ele>515.0</ele><time>2026-04-18T07:26:35Z</time></trkpt><trkpt lat="42.676340521991484" lon="11.833125883542603"><ele>515.0</ele><time>2026-04-18T07:26:36Z</time></trkpt><trkpt lat="42.67623580660051" lon="11.833103719055087"><ele>515.0</ele><time>2026-04-18T07:26:37Z</time></trkpt><trkpt lat="42.67611720190663" lon="11.833093818308006"><ele>515.0</ele><time>2026-04-18T07:26:38Z</time></trkpt><trkpt lat="42.67600153004445" lon="11.833073436505881"><ele>515.0</ele><time>2026-04-18T07:26:39Z</time></trkpt><trkpt lat="42.67589561229994" lon="11.833055112486214"><ele>515.0</ele><time>2026-04-18T07:26:40Z</time></trkpt><trkpt lat="42.67580105745294" lon="11.83304107117427"><ele>515.0</ele><time>2026-04-18T07:26:41Z</time></trkpt><trkpt lat="42.67570602834422" lon="11.833025046924432"><ele>515.0</ele><time>2026-04-18T07:26:42Z</time></trkpt><trkpt lat="42.67560521175137" lon="11.83300283085014"><ele>515.0</ele><time>2026-04-18T07:26:43Z</time></trkpt><trkpt lat="42.67550927256326" lon="11.832980431288844"><ele>515.0</ele><time>2026-04-18T07:26:44Z</time></trkpt><trkpt lat="42.67541359964113" lon="11.832958190175754"><ele>515.0</ele><time>2026-04-18T07:26:45Z</time></trkpt><trkpt lat="42.67531993135155" lon="11.832926739064051"><ele>515.0</ele><time>2026-04-18T07:26:46Z</time></trkpt><trkpt lat="42.67522685955381" lon="11.832890109388478"><ele>515.0</ele><time>2026-04-18T07:26:47Z</time></trkpt><trkpt lat="42.67513453946445" lon="11.83284862329651"><ele>515.0</ele><time>2026-04-18T07:26:48Z</time></trkpt><trkpt lat="42.67502317288258" lon="11.832794870590785"><ele>514.5</ele><time>2026-04-18T07:26:49Z</time></trkpt><trkpt lat="42.67492048963612" lon="11.83274651019705"><ele>514.0</ele><time>2026-04-18T07:26:50Z</time></trkpt><trkpt lat="42.67482715202395" lon="11.832701880800691"><ele>513.5</ele><time>2026-04-18T07:26:51Z</time></trkpt><trkpt lat="42.67475700513528" lon="11.832660270064697"><ele>513.0</ele><time>2026-04-18T07:26:52Z</time></trkpt><trkpt lat="42.674688741120036" lon="11.83262607115868"><ele>512.5</ele><time>2026-04-18T07:26:53Z</time></trkpt><trkpt lat="42.67460610056545" lon="11.83257219693264"><ele>512.0</ele><time>2026-04-18T07:26:55Z</time></trkpt><trkpt lat="42.67453074721898" lon="11.832522385938853"><ele>513.0</ele><time>2026-04-18T07:26:57Z</time></trkpt><trkpt lat="42.674463055736524" lon="11.832475148840864"><ele>514.0</ele><time>2026-04-18T07:26:59Z</time></trkpt><trkpt lat="42.674445164868665" lon="11.832373411481145"><ele>515.0</ele><time>2026-04-18T07:27:02Z</time></trkpt><trkpt lat="42.67451261791667" lon="11.83232280029647"><ele>516.0</ele><time>2026-04-18T07:27:04Z</time></trkpt><trkpt lat="42.67458685639709" lon="11.832317775307306"><ele>517.0</ele><time>2026-04-18T07:27:05Z</time></trkpt><trkpt lat="42.674668174881376" lon="11.832320001380713"><ele>518.0</ele><time>2026-04-18T07:27:06Z</time></trkpt><trkpt lat="42.67473965195381" lon="11.832322525876156"><ele>518.0</ele><time>2026-04-18T07:27:07Z</time></trkpt><trkpt lat="42.67481881166767" lon="11.832296794702213"><ele>518.0</ele><time>2026-04-18T07:27:08Z</time></trkpt><trkpt lat="42.6749064506719" lon="11.832238838279563"><ele>518.0</ele><time>2026-04-18T07:27:09Z</time></trkpt><trkpt lat="42.6749746502026" lon="11.832155690315867"><ele>518.0</ele><time>2026-04-18T07:27:10Z</time></trkpt><trkpt lat="42.67502414643868" lon="11.832058384871038"><ele>518.0</ele><time>2026-04-18T07:27:11Z</time></trkpt><trkpt lat="42.675054784004196" lon="11.831959456450786"><ele>518.0</ele><time>2026-04-18T07:27:12Z</time></trkpt><trkpt lat="42.67507564342742" lon="11.831854019866338"><ele>518.0</ele><time>2026-04-18T07:27:13Z</time></trkpt><trkpt lat="42.67508789744558" lon="11.831753438173687"><ele>518.0</ele><time>2026-04-18T07:27:14Z</time></trkpt><trkpt lat="42.6750895937088" lon="11.831659064265436"><ele>518.0</ele><time>2026-04-18T07:27:15Z</time></trkpt><trkpt lat="42.67507141919677" lon="11.831545052251204"><ele>518.0</ele><time>2026-04-18T07:27:16Z</time></trkpt><trkpt lat="42.67505564617122" lon="11.831425555514276"><ele>518.0</ele><time>2026-04-18T07:27:17Z</time></trkpt><trkpt lat="42.67502784276596" lon="11.831294888217068"><ele>518.0</ele><time>2026-04-18T07:27:18Z</time></trkpt><trkpt lat="42.675017598688115" lon="11.831187842277865"><ele>518.0</ele><time>2026-04-18T07:27:19Z</time></trkpt><trkpt lat="42.6750026406116" lon="11.831101233381087"><ele>518.0</ele><time>2026-04-18T07:27:20Z</time></trkpt><trkpt lat="42.6749816329236" lon="11.830945466712338"><ele>518.0</ele><time>2026-04-18T07:27:22Z</time></trkpt><trkpt lat="42.67496750187727" lon="11.830802982728105"><ele>518.0</ele><time>2026-04-18T07:27:24Z</time></trkpt><trkpt lat="42.67496191550413" lon="11.83065636495886"><ele>518.0</ele><time>2026-04-18T07:27:26Z</time></trkpt><trkpt lat="42.67495377602915" lon="11.830505831785477"><ele>517.8333333333333</ele><time>2026-04-18T07:27:28Z</time></trkpt><trkpt lat="42.67493917384299" lon="11.830420529986595"><ele>517.6666666666666</ele><time>2026-04-18T07:27:29Z</time></trkpt><trkpt lat="42.67491317335779" lon="11.83034171214678"><ele>517.5</ele><time>2026-04-18T07:27:30Z</time></trkpt><trkpt lat="42.67482404138631" lon="11.830223778725136"><ele>517.3333333333334</ele><time>2026-04-18T07:27:32Z</time></trkpt><trkpt lat="42.67475053787108" lon="11.830183683159289"><ele>517.1666666666667</ele><time>2026-04-18T07:27:33Z</time></trkpt><trkpt lat="42.67467679643115" lon="11.830173931397642"><ele>517.0</ele><time>2026-04-18T07:27:34Z</time></trkpt><trkpt lat="42.67460674820618" lon="11.830166938294285"><ele>517.0</ele><time>2026-04-18T07:27:35Z</time></trkpt><trkpt lat="42.67454099973134" lon="11.830157227926268"><ele>517.0</ele><time>2026-04-18T07:27:36Z</time></trkpt><trkpt lat="42.67441331319384" lon="11.83012812926577"><ele>517.0</ele><time>2026-04-18T07:27:38Z</time></trkpt><trkpt lat="42.67433735656544" lon="11.830107150916097"><ele>517.0</ele><time>2026-04-18T07:27:39Z</time></trkpt><trkpt lat="42.67426950258471" lon="11.830093403958491"><ele>517.0</ele><time>2026-04-18T07:27:40Z</time></trkpt><trkpt lat="42.674199232789825" lon="11.830068225757907"><ele>517.0</ele><time>2026-04-18T07:27:41Z</time></trkpt><trkpt lat="42.67413686498378" lon="11.830028863797027"><ele>517.0</ele><time>2026-04-18T07:27:42Z</time></trkpt><trkpt lat="42.67403450667779" lon="11.829965161720697"><ele>517.0</ele><time>2026-04-18T07:27:44Z</time></trkpt><trkpt lat="42.673951270657625" lon="11.829867695016645"><ele>517.0</ele><time>2026-04-18T07:27:46Z</time></trkpt><trkpt lat="42.673904232222476" lon="11.829810626122672"><ele>517.0</ele><time>2026-04-18T07:27:47Z</time></trkpt><trkpt lat="42.67381614759525" lon="11.829688992676788"><ele>517.0</ele><time>2026-04-18T07:27:49Z</time></trkpt><trkpt lat="42.67377063439874" lon="11.829607933276526"><ele>517.0</ele><time>2026-04-18T07:27:50Z</time></trkpt><trkpt lat="42.673737412076484" lon="11.8295126307057"><ele>517.0</ele><time>2026-04-18T07:27:51Z</time></trkpt><trkpt lat="42.67371350653694" lon="11.829417701958295"><ele>517.0</ele><time>2026-04-18T07:27:52Z</time></trkpt><trkpt lat="42.6737046151928" lon="11.829263097900935"><ele>517.0</ele><time>2026-04-18T07:27:54Z</time></trkpt><trkpt lat="42.67370563639283" lon="11.829104482454039"><ele>517.0</ele><time>2026-04-18T07:27:56Z</time></trkpt><trkpt lat="42.67373802979644" lon="11.829025683838077"><ele>517.0</ele><time>2026-04-18T07:27:57Z</time></trkpt><trkpt lat="42.67378258658729" lon="11.828959613999775"><ele>517.0</ele><time>2026-04-18T07:27:58Z</time></trkpt><trkpt lat="42.6738855762828" lon="11.82885723156616"><ele>517.0</ele><time>2026-04-18T07:28:00Z</time></trkpt><trkpt lat="42.67394689574989" lon="11.828804960364645"><ele>517.0</ele><time>2026-04-18T07:28:01Z</time></trkpt><trkpt lat="42.67402644870282" lon="11.828768916951946"><ele>517.0</ele><time>2026-04-18T07:28:02Z</time></trkpt><trkpt lat="42.67409743185307" lon="11.828737390193659"><ele>517.0</ele><time>2026-04-18T07:28:03Z</time></trkpt><trkpt lat="42.67417089378109" lon="11.828701125352437"><ele>517.0</ele><time>2026-04-18T07:28:04Z</time></trkpt><trkpt lat="42.674253646397275" lon="11.828672536894286"><ele>517.0</ele><time>2026-04-18T07:28:05Z</time></trkpt><trkpt lat="42.67433523318313" lon="11.828645824602855"><ele>517.0</ele><time>2026-04-18T07:28:06Z</time></trkpt><trkpt lat="42.67441682570055" lon="11.828620751573345"><ele>517.0</ele><time>2026-04-18T07:28:07Z</time></trkpt><trkpt lat="42.67449864560309" lon="11.828594498634484"><ele>517.0</ele><time>2026-04-18T07:28:08Z</time></trkpt><trkpt lat="42.67457197592138" lon="11.82856831242394"><ele>517.0</ele><time>2026-04-18T07:28:09Z</time></trkpt><trkpt lat="42.6746579313431" lon="11.828543119573277"><ele>517.0</ele><time>2026-04-18T07:28:10Z</time></trkpt><trkpt lat="42.67474293819279" lon="11.828518067212057"><ele>517.8333333333334</ele><time>2026-04-18T07:28:11Z</time></trkpt><trkpt lat="42.67482926001956" lon="11.828495366761302"><ele>518.6666666666667</ele><time>2026-04-18T07:28:12Z</time></trkpt><trkpt lat="42.67491527788848" lon="11.828461975247881"><ele>519.5</ele><time>2026-04-18T07:28:13Z</time></trkpt><trkpt lat="42.67500622682708" lon="11.828435044124294"><ele>520.3333333333334</ele><time>2026-04-18T07:28:14Z</time></trkpt><trkpt lat="42.67508615731649" lon="11.828404260511917"><ele>521.1666666666666</ele><time>2026-04-18T07:28:15Z</time></trkpt><trkpt lat="42.6751608887323" lon="11.8283780211579"><ele>522.0</ele><time>2026-04-18T07:28:16Z</time></trkpt><trkpt lat="42.67524273481278" lon="11.828338136668851"><ele>518.5</ele><time>2026-04-18T07:28:17Z</time></trkpt><trkpt lat="42.67533647595487" lon="11.828295639155021"><ele>515.0</ele><time>2026-04-18T07:28:18Z</time></trkpt><trkpt lat="42.67542743918751" lon="11.828268029261995"><ele>511.5</ele><time>2026-04-18T07:28:19Z</time></trkpt><trkpt lat="42.675508135367316" lon="11.82824963313975"><ele>508.0</ele><time>2026-04-18T07:28:20Z</time></trkpt><trkpt lat="42.67558126652143" lon="11.828237359618367"><ele>504.5</ele><time>2026-04-18T07:28:21Z</time></trkpt><trkpt lat="42.675659374448806" lon="11.828234694377503"><ele>501.0</ele><time>2026-04-18T07:28:22Z</time></trkpt><trkpt lat="42.675733905176784" lon="11.828237211331638"><ele>501.0</ele><time>2026-04-18T07:28:23Z</time></trkpt><trkpt lat="42.675806050391806" lon="11.828247504731799"><ele>501.0</ele><time>2026-04-18T07:28:24Z</time></trkpt><trkpt lat="42.675894397824756" lon="11.828263937615157"><ele>501.0</ele><time>2026-04-18T07:28:25Z</time></trkpt><trkpt lat="42.67599243716389" lon="11.828279952445898"><ele>501.0</ele><time>2026-04-18T07:28:26Z</time></trkpt><trkpt lat="42.676091760753344" lon="11.828295217754643"><ele>501.0</ele><time>2026-04-18T07:28:27Z</time></trkpt><trkpt lat="42.6761880338383" lon="11.828307302820662"><ele>500.6666666666667</ele><time>2026-04-18T07:28:28Z</time></trkpt><trkpt lat="42.67628375801753" lon="11.828319049963241"><ele>500.33333333333337</ele><time>2026-04-18T07:28:29Z</time></trkpt><trkpt lat="42.67637154541322" lon="11.828330653822592"><ele>500.0</ele><time>2026-04-18T07:28:30Z</time></trkpt><trkpt lat="42.67645226577869" lon="11.828329337655541"><ele>499.6666666666667</ele><time>2026-04-18T07:28:31Z</time></trkpt><trkpt lat="42.67652963635678" lon="11.828300758172153"><ele>499.33333333333337</ele><time>2026-04-18T07:28:32Z</time></trkpt><trkpt lat="42.676586827462266" lon="11.82822088600101"><ele>499.0</ele><time>2026-04-18T07:28:33Z</time></trkpt><trkpt lat="42.67662108852903" lon="11.828109919749906"><ele>499.0</ele><time>2026-04-18T07:28:34Z</time></trkpt><trkpt lat="42.6766353306793" lon="11.827992588895034"><ele>499.0</ele><time>2026-04-18T07:28:35Z</time></trkpt><trkpt lat="42.676640115430665" lon="11.827867816238415"><ele>499.0</ele><time>2026-04-18T07:28:36Z</time></trkpt><trkpt lat="42.67664891236143" lon="11.82770291896373"><ele>499.0</ele><time>2026-04-18T07:28:37Z</time></trkpt><trkpt lat="42.676664762086716" lon="11.827560985560098"><ele>499.0</ele><time>2026-04-18T07:28:38Z</time></trkpt><trkpt lat="42.67667677330838" lon="11.827438359739467"><ele>498.1666666666667</ele><time>2026-04-18T07:28:39Z</time></trkpt><trkpt lat="42.67669015805817" lon="11.827332415108101"><ele>497.33333333333337</ele><time>2026-04-18T07:28:40Z</time></trkpt><trkpt lat="42.676705972831165" lon="11.827225752706731"><ele>496.5</ele><time>2026-04-18T07:28:41Z</time></trkpt><trkpt lat="42.67670504378413" lon="11.82710494319022"><ele>495.66666666666663</ele><time>2026-04-18T07:28:42Z</time></trkpt><trkpt lat="42.676689207813425" lon="11.826975505593978"><ele>494.8333333333333</ele><time>2026-04-18T07:28:43Z</time></trkpt><trkpt lat="42.67665886679748" lon="11.826856208010309"><ele>494.0</ele><time>2026-04-18T07:28:44Z</time></trkpt><trkpt lat="42.676623157831074" lon="11.826746048468044"><ele>493.99999999999994</ele><time>2026-04-18T07:28:45Z</time></trkpt><trkpt lat="42.67658949503384" lon="11.826627806215043"><ele>494.0</ele><time>2026-04-18T07:28:46Z</time></trkpt><trkpt lat="42.67656728504318" lon="11.82651891903619"><ele>494.0</ele><time>2026-04-18T07:28:47Z</time></trkpt><trkpt lat="42.67655271847237" lon="11.82641242197097"><ele>494.0</ele><time>2026-04-18T07:28:48Z</time></trkpt><trkpt lat="42.67653575960586" lon="11.826295625023256"><ele>493.99999999999994</ele><time>2026-04-18T07:28:49Z</time></trkpt><trkpt lat="42.67651483840553" lon="11.826169931254856"><ele>494.0</ele><time>2026-04-18T07:28:50Z</time></trkpt><trkpt lat="42.6764758035711" lon="11.826049398612538"><ele>495.8333333333333</ele><time>2026-04-18T07:28:51Z</time></trkpt><trkpt lat="42.67642182243169" lon="11.825950383825152"><ele>497.66666666666663</ele><time>2026-04-18T07:28:52Z</time></trkpt><trkpt lat="42.67636573085724" lon="11.825875352288014"><ele>499.5</ele><time>2026-04-18T07:28:53Z</time></trkpt><trkpt lat="42.67630987014342" lon="11.825794565633231"><ele>501.33333333333337</ele><time>2026-04-18T07:28:54Z</time></trkpt><trkpt lat="42.67626327958255" lon="11.825703483465777"><ele>503.1666666666667</ele><time>2026-04-18T07:28:55Z</time></trkpt><trkpt lat="42.676211772165765" lon="11.825603708825017"><ele>505.0</ele><time>2026-04-18T07:28:56Z</time></trkpt><trkpt lat="42.67615927750765" lon="11.825491703873164"><ele>505.0</ele><time>2026-04-18T07:28:57Z</time></trkpt><trkpt lat="42.676110200680746" lon="11.825383340105057"><ele>505.0</ele><time>2026-04-18T07:28:58Z</time></trkpt><trkpt lat="42.67606511800487" lon="11.825266324020653"><ele>505.0</ele><time>2026-04-18T07:28:59Z</time></trkpt><trkpt lat="42.67601262943744" lon="11.825164630310121"><ele>505.0</ele><time>2026-04-18T07:29:00Z</time></trkpt><trkpt lat="42.67597759853278" lon="11.825059737428669"><ele>505.0</ele><time>2026-04-18T07:29:01Z</time></trkpt><trkpt lat="42.67592254867274" lon="11.824930358660557"><ele>505.0</ele><time>2026-04-18T07:29:02Z</time></trkpt><trkpt lat="42.67586758610079" lon="11.824808913218721"><ele>505.0</ele><time>2026-04-18T07:29:03Z</time></trkpt><trkpt lat="42.67582565810933" lon="11.824705350111998"><ele>505.0</ele><time>2026-04-18T07:29:04Z</time></trkpt><trkpt lat="42.675783786279844" lon="11.824588388895275"><ele>505.0</ele><time>2026-04-18T07:29:05Z</time></trkpt><trkpt lat="42.67574309169598" lon="11.824455574099124"><ele>505.0</ele><time>2026-04-18T07:29:06Z</time></trkpt><trkpt lat="42.67570578163746" lon="11.824311208898678"><ele>506.2</ele><time>2026-04-18T07:29:07Z</time></trkpt><trkpt lat="42.67564870935139" lon="11.824169226386234"><ele>507.4</ele><time>2026-04-18T07:29:08Z</time></trkpt><trkpt lat="42.67559108065672" lon="11.824051719986437"><ele>508.6</ele><time>2026-04-18T07:29:09Z</time></trkpt><trkpt lat="42.67551498843417" lon="11.823951104913471"><ele>509.8</ele><time>2026-04-18T07:29:10Z</time></trkpt><trkpt lat="42.67542458567035" lon="11.823858028977016"><ele>511.0</ele><time>2026-04-18T07:29:11Z</time></trkpt><trkpt lat="42.67532127716065" lon="11.823781613177825"><ele>511.1666666666667</ele><time>2026-04-18T07:29:12Z</time></trkpt><trkpt lat="42.675249485980814" lon="11.823727836158746"><ele>511.33333333333337</ele><time>2026-04-18T07:29:13Z</time></trkpt><trkpt lat="42.67517823320881" lon="11.823667991694574"><ele>511.5</ele><time>2026-04-18T07:29:14Z</time></trkpt><trkpt lat="42.67510000221236" lon="11.823613198467179"><ele>511.66666666666663</ele><time>2026-04-18T07:29:15Z</time></trkpt><trkpt lat="42.67502999561762" lon="11.823554679156825"><ele>511.8333333333333</ele><time>2026-04-18T07:29:16Z</time></trkpt><trkpt lat="42.67495689010259" lon="11.823498805993726"><ele>512.0</ele><time>2026-04-18T07:29:17Z</time></trkpt><trkpt lat="42.674910734485564" lon="11.823434589736879"><ele>512.7142857142857</ele><time>2026-04-18T07:29:18Z</time></trkpt><trkpt lat="42.67488635468187" lon="11.823349784061925"><ele>513.4285714285713</ele><time>2026-04-18T07:29:19Z</time></trkpt><trkpt lat="42.67487377768937" lon="11.823254986650367"><ele>514.1428571428571</ele><time>2026-04-18T07:29:20Z</time></trkpt><trkpt lat="42.67487302732292" lon="11.823158042133816"><ele>514.8571428571429</ele><time>2026-04-18T07:29:21Z</time></trkpt><trkpt lat="42.67488503216574" lon="11.823064226810589"><ele>515.5714285714287</ele><time>2026-04-18T07:29:22Z</time></trkpt><trkpt lat="42.67489116079059" lon="11.8229641979771"><ele>516.2857142857143</ele><time>2026-04-18T07:29:23Z</time></trkpt><trkpt lat="42.674901189247535" lon="11.822856120762435"><ele>517.0</ele><time>2026-04-18T07:29:24Z</time></trkpt><trkpt lat="42.67491477746955" lon="11.822756901032735"><ele>515.6666666666667</ele><time>2026-04-18T07:29:25Z</time></trkpt><trkpt lat="42.674948992006264" lon="11.822617300262731"><ele>514.3333333333334</ele><time>2026-04-18T07:29:27Z</time></trkpt><trkpt lat="42.674978382182566" lon="11.822532858446372"><ele>513.0</ele><time>2026-04-18T07:29:28Z</time></trkpt><trkpt lat="42.675017548898104" lon="11.82244530681034"><ele>511.66666666666663</ele><time>2026-04-18T07:29:29Z</time></trkpt><trkpt lat="42.67505601512419" lon="11.82233425749498"><ele>510.3333333333333</ele><time>2026-04-18T07:29:30Z</time></trkpt><trkpt lat="42.67509837450274" lon="11.822209360264917"><ele>509.0</ele><time>2026-04-18T07:29:31Z</time></trkpt><trkpt lat="42.67514232816385" lon="11.822092346207597"><ele>509.0</ele><time>2026-04-18T07:29:32Z</time></trkpt><trkpt lat="42.67518347506577" lon="11.821970456183298"><ele>509.0</ele><time>2026-04-18T07:29:33Z</time></trkpt><trkpt lat="42.67523475111435" lon="11.821840495084468"><ele>509.0</ele><time>2026-04-18T07:29:34Z</time></trkpt><trkpt lat="42.67527998288326" lon="11.821721050551838"><ele>509.0</ele><time>2026-04-18T07:29:35Z</time></trkpt><trkpt lat="42.6753225216176" lon="11.821601073837641"><ele>509.0</ele><time>2026-04-18T07:29:36Z</time></trkpt><trkpt lat="42.67536104410606" lon="11.821482591411362"><ele>509.0</ele><time>2026-04-18T07:29:37Z</time></trkpt><trkpt lat="42.67540185197663" lon="11.821380412412834"><ele>509.0</ele><time>2026-04-18T07:29:38Z</time></trkpt><trkpt lat="42.675445667760556" lon="11.82128490387137"><ele>509.0</ele><time>2026-04-18T07:29:39Z</time></trkpt><trkpt lat="42.67550760566425" lon="11.82118755147449"><ele>509.0</ele><time>2026-04-18T07:29:40Z</time></trkpt><trkpt lat="42.675563686656766" lon="11.821059567617981"><ele>509.0</ele><time>2026-04-18T07:29:41Z</time></trkpt><trkpt lat="42.67561874242876" lon="11.820960324163192"><ele>509.3333333333333</ele><time>2026-04-18T07:29:42Z</time></trkpt><trkpt lat="42.67565932187213" lon="11.820881837950894"><ele>509.66666666666663</ele><time>2026-04-18T07:29:43Z</time></trkpt><trkpt lat="42.67573524945544" lon="11.820782658047348"><ele>510.0</ele><time>2026-04-18T07:29:45Z</time></trkpt><trkpt lat="42.675778412700765" lon="11.820705577356103"><ele>510.33333333333337</ele><time>2026-04-18T07:29:48Z</time></trkpt><trkpt lat="42.67573359267324" lon="11.82059766982136"><ele>510.6666666666667</ele><time>2026-04-18T07:29:50Z</time></trkpt><trkpt lat="42.67563760374334" lon="11.820529387179219"><ele>511.0</ele><time>2026-04-18T07:29:51Z</time></trkpt><trkpt lat="42.67549397903424" lon="11.820484714925659"><ele>511.0</ele><time>2026-04-18T07:29:52Z</time></trkpt><trkpt lat="42.67536481597961" lon="11.820428143635503"><ele>511.0</ele><time>2026-04-18T07:29:53Z</time></trkpt><trkpt lat="42.675245115027245" lon="11.820370549785933"><ele>511.0</ele><time>2026-04-18T07:29:54Z</time></trkpt><trkpt lat="42.675121038128125" lon="11.820322751745694"><ele>511.0</ele><time>2026-04-18T07:29:55Z</time></trkpt><trkpt lat="42.674997188157924" lon="11.820265468674956"><ele>511.25</ele><time>2026-04-18T07:29:56Z</time></trkpt><trkpt lat="42.67487867320056" lon="11.820219745354033"><ele>511.5</ele><time>2026-04-18T07:29:57Z</time></trkpt><trkpt lat="42.67475994305863" lon="11.820177868202597"><ele>511.75</ele><time>2026-04-18T07:29:58Z</time></trkpt><trkpt lat="42.6746370646508" lon="11.820148362500236"><ele>512.0</ele><time>2026-04-18T07:29:59Z</time></trkpt><trkpt lat="42.674499494084664" lon="11.820130666710853"><ele>512.5</ele><time>2026-04-18T07:30:00Z</time></trkpt><trkpt lat="42.67435810549145" lon="11.820120050604288"><ele>513.0</ele><time>2026-04-18T07:30:01Z</time></trkpt><trkpt lat="42.6742259888866" lon="11.820109102150047"><ele>513.5</ele><time>2026-04-18T07:30:02Z</time></trkpt><trkpt lat="42.67410143502705" lon="11.820093758663754"><ele>514.0</ele><time>2026-04-18T07:30:03Z</time></trkpt><trkpt lat="42.67397817408513" lon="11.820078603904895"><ele>514.0</ele><time>2026-04-18T07:30:04Z</time></trkpt><trkpt lat="42.673845717965335" lon="11.820063976677739"><ele>514.0</ele><time>2026-04-18T07:30:05Z</time></trkpt><trkpt lat="42.67371068634869" lon="11.82004972212164"><ele>514.0</ele><time>2026-04-18T07:30:06Z</time></trkpt><trkpt lat="42.67358069343784" lon="11.820031872865558"><ele>514.0</ele><time>2026-04-18T07:30:07Z</time></trkpt><trkpt lat="42.67345258924601" lon="11.820014157185833"><ele>514.75</ele><time>2026-04-18T07:30:08Z</time></trkpt><trkpt lat="42.67332411519562" lon="11.819993852145773"><ele>515.5</ele><time>2026-04-18T07:30:09Z</time></trkpt><trkpt lat="42.673192442541136" lon="11.819972038417662"><ele>516.25</ele><time>2026-04-18T07:30:10Z</time></trkpt><trkpt lat="42.673070095619856" lon="11.819947263669668"><ele>517.0</ele><time>2026-04-18T07:30:11Z</time></trkpt><trkpt lat="42.672958067931084" lon="11.819932630160487"><ele>517.0</ele><time>2026-04-18T07:30:12Z</time></trkpt><trkpt lat="42.672849205286326" lon="11.819909621586751"><ele>517.0</ele><time>2026-04-18T07:30:13Z</time></trkpt><trkpt lat="42.67273474005945" lon="11.819864067348728"><ele>517.0</ele><time>2026-04-18T07:30:14Z</time></trkpt><trkpt lat="42.67261880952971" lon="11.819787308386799"><ele>517.0</ele><time>2026-04-18T07:30:15Z</time></trkpt><trkpt lat="42.672509283660396" lon="11.819692912820427"><ele>517.25</ele><time>2026-04-18T07:30:16Z</time></trkpt><trkpt lat="42.672409842720086" lon="11.81957761728501"><ele>517.5</ele><time>2026-04-18T07:30:17Z</time></trkpt><trkpt lat="42.67232168474627" lon="11.819435539637702"><ele>517.75</ele><time>2026-04-18T07:30:18Z</time></trkpt><trkpt lat="42.67224597102606" lon="11.81927538856031"><ele>518.0</ele><time>2026-04-18T07:30:19Z</time></trkpt><trkpt lat="42.67218264811271" lon="11.819089422946943"><ele>518.0</ele><time>2026-04-18T07:30:20Z</time></trkpt><trkpt lat="42.6721266253777" lon="11.818884560769739"><ele>518.0</ele><time>2026-04-18T07:30:21Z</time></trkpt><trkpt lat="42.672079802675704" lon="11.818685345256167"><ele>518.0</ele><time>2026-04-18T07:30:22Z</time></trkpt><trkpt lat="42.67203584481014" lon="11.818508626705718"><ele>518.0</ele><time>2026-04-18T07:30:23Z</time></trkpt><trkpt lat="42.671985759409736" lon="11.818345126189394"><ele>518.0</ele><time>2026-04-18T07:30:24Z</time></trkpt><trkpt lat="42.67192736376697" lon="11.818192102953278"><ele>518.0</ele><time>2026-04-18T07:30:25Z</time></trkpt><trkpt lat="42.67185371040634" lon="11.818060540007954"><ele>518.0</ele><time>2026-04-18T07:30:26Z</time></trkpt><trkpt lat="42.671762397762556" lon="11.8179373556271"><ele>518.25</ele><time>2026-04-18T07:30:27Z</time></trkpt><trkpt lat="42.67165847374198" lon="11.817816140048489"><ele>518.5</ele><time>2026-04-18T07:30:28Z</time></trkpt><trkpt lat="42.671552294915706" lon="11.817698543497547"><ele>518.75</ele><time>2026-04-18T07:30:29Z</time></trkpt><trkpt lat="42.67145251909937" lon="11.817574715352384"><ele>519.0</ele><time>2026-04-18T07:30:30Z</time></trkpt><trkpt lat="42.67136746376662" lon="11.817446121723231"><ele>519.0</ele><time>2026-04-18T07:30:31Z</time></trkpt><trkpt lat="42.671307856441956" lon="11.817311677226574"><ele>519.0</ele><time>2026-04-18T07:30:32Z</time></trkpt><trkpt lat="42.671275214903" lon="11.817187535553405"><ele>519.0</ele><time>2026-04-18T07:30:33Z</time></trkpt><trkpt lat="42.671267038812275" lon="11.817098635536501"><ele>519.0</ele><time>2026-04-18T07:30:34Z</time></trkpt><trkpt lat="42.671260986628305" lon="11.816945250864"><ele>519.0</ele><time>2026-04-18T07:30:36Z</time></trkpt><trkpt lat="42.6712945286619" lon="11.816857632473765"><ele>518.6666666666666</ele><time>2026-04-18T07:30:38Z</time></trkpt><trkpt lat="42.671360942157506" lon="11.816806018095233"><ele>518.3333333333334</ele><time>2026-04-18T07:30:40Z</time></trkpt><trkpt lat="42.67142864581841" lon="11.816784397470279"><ele>518.0</ele><time>2026-04-18T07:30:41Z</time></trkpt><trkpt lat="42.67151244010975" lon="11.81676831360046"><ele>517.6666666666667</ele><time>2026-04-18T07:30:42Z</time></trkpt><trkpt lat="42.671610674932005" lon="11.816754877939935"><ele>517.3333333333334</ele><time>2026-04-18T07:30:43Z</time></trkpt><trkpt lat="42.67172644817422" lon="11.816736081912337"><ele>517.0</ele><time>2026-04-18T07:30:44Z</time></trkpt><trkpt lat="42.67185957225466" lon="11.81671415628238"><ele>516.6</ele><time>2026-04-18T07:30:45Z</time></trkpt><trkpt lat="42.6719829640245" lon="11.816695218462447"><ele>516.2</ele><time>2026-04-18T07:30:46Z</time></trkpt><trkpt lat="42.67209510832345" lon="11.81667722765934"><ele>515.8</ele><time>2026-04-18T07:30:47Z</time></trkpt><trkpt lat="42.672195148855444" lon="11.816667705741352"><ele>515.4</ele><time>2026-04-18T07:30:48Z</time></trkpt><trkpt lat="42.67227937566799" lon="11.816658447701828"><ele>515.0</ele><time>2026-04-18T07:30:49Z</time></trkpt><trkpt lat="42.67235243177114" lon="11.816650343665017"><ele>515.0</ele><time>2026-04-18T07:30:50Z</time></trkpt><trkpt lat="42.672458048010576" lon="11.816623904778087"><ele>515.0</ele><time>2026-04-18T07:30:52Z</time></trkpt><trkpt lat="42.67248639254655" lon="11.816536692149414"><ele>515.0</ele><time>2026-04-18T07:30:55Z</time></trkpt><trkpt lat="42.6723814135812" lon="11.816465876606058"><ele>515.0</ele><time>2026-04-18T07:30:58Z</time></trkpt><trkpt lat="42.67229326103142" lon="11.816490896617074"><ele>515.0</ele><time>2026-04-18T07:30:59Z</time></trkpt><trkpt lat="42.67216952042012" lon="11.816430238797638"><ele>515.0</ele><time>2026-04-18T07:31:01Z</time></trkpt><trkpt lat="42.67208948432624" lon="11.816358098772483"><ele>515.0</ele><time>2026-04-18T07:31:02Z</time></trkpt><trkpt lat="42.67202374403313" lon="11.816281897809398"><ele>515.0</ele><time>2026-04-18T07:31:03Z</time></trkpt><trkpt lat="42.67196735305682" lon="11.816218443332602"><ele>515.0</ele><time>2026-04-18T07:31:04Z</time></trkpt><trkpt lat="42.67191742966102" lon="11.816149688076681"><ele>515.0</ele><time>2026-04-18T07:31:05Z</time></trkpt><trkpt lat="42.6718738545718" lon="11.81606899901066"><ele>515.0</ele><time>2026-04-18T07:31:06Z</time></trkpt><trkpt lat="42.67185800716113" lon="11.815955941052263"><ele>513.5</ele><time>2026-04-18T07:31:07Z</time></trkpt><trkpt lat="42.67183601008921" lon="11.815828955511563"><ele>512.0</ele><time>2026-04-18T07:31:08Z</time></trkpt><trkpt lat="42.67181751268319" lon="11.815702838736987"><ele>510.5</ele><time>2026-04-18T07:31:09Z</time></trkpt><trkpt lat="42.67180001890438" lon="11.815589609586594"><ele>509.0</ele><time>2026-04-18T07:31:10Z</time></trkpt><trkpt lat="42.67178545658152" lon="11.815480126997606"><ele>507.49999999999994</ele><time>2026-04-18T07:31:11Z</time></trkpt><trkpt lat="42.67177520091242" lon="11.815380160447566"><ele>506.0</ele><time>2026-04-18T07:31:12Z</time></trkpt><trkpt lat="42.67176886357454" lon="11.815286094947794"><ele>505.99999999999994</ele><time>2026-04-18T07:31:13Z</time></trkpt><trkpt lat="42.671783708296864" lon="11.815200944142097"><ele>506.0</ele><time>2026-04-18T07:31:14Z</time></trkpt><trkpt lat="42.67186687933042" lon="11.815081716974408"><ele>506.0</ele><time>2026-04-18T07:31:16Z</time></trkpt><trkpt lat="42.671937134895074" lon="11.815054748627874"><ele>506.0</ele><time>2026-04-18T07:31:17Z</time></trkpt><trkpt lat="42.67201995138676" lon="11.815044732521512"><ele>505.99999999999994</ele><time>2026-04-18T07:31:18Z</time></trkpt><trkpt lat="42.67212262047011" lon="11.815022952909954"><ele>506.0</ele><time>2026-04-18T07:31:19Z</time></trkpt><trkpt lat="42.67222470919438" lon="11.815005878256214"><ele>506.0</ele><time>2026-04-18T07:31:20Z</time></trkpt><trkpt lat="42.67232500435185" lon="11.814970864776434"><ele>506.0</ele><time>2026-04-18T07:31:21Z</time></trkpt><trkpt lat="42.672427092955566" lon="11.81492560363377"><ele>506.0</ele><time>2026-04-18T07:31:22Z</time></trkpt><trkpt lat="42.67252171506318" lon="11.814856926496091"><ele>506.0</ele><time>2026-04-18T07:31:23Z</time></trkpt><trkpt lat="42.672601974107046" lon="11.814771339122098"><ele>506.0</ele><time>2026-04-18T07:31:24Z</time></trkpt><trkpt lat="42.67266932082604" lon="11.814687822659183"><ele>506.0</ele><time>2026-04-18T07:31:25Z</time></trkpt><trkpt lat="42.67271738438271" lon="11.814595703100848"><ele>506.0</ele><time>2026-04-18T07:31:26Z</time></trkpt><trkpt lat="42.67271975322393" lon="11.814500928415972"><ele>506.0</ele><time>2026-04-18T07:31:27Z</time></trkpt><trkpt lat="42.672710476985685" lon="11.814405831006809"><ele>506.0</ele><time>2026-04-18T07:31:28Z</time></trkpt><trkpt lat="42.67263464670579" lon="11.814244619143468"><ele>506.0</ele><time>2026-04-18T07:31:30Z</time></trkpt><trkpt lat="42.67256656379989" lon="11.814142097949818"><ele>506.66666666666663</ele><time>2026-04-18T07:31:31Z</time></trkpt><trkpt lat="42.6725012304556" lon="11.814037866452434"><ele>507.3333333333333</ele><time>2026-04-18T07:31:32Z</time></trkpt><trkpt lat="42.67245141816038" lon="11.813934354252362"><ele>508.0</ele><time>2026-04-18T07:31:33Z</time></trkpt><trkpt lat="42.67242286037594" lon="11.813829180290673"><ele>508.66666666666663</ele><time>2026-04-18T07:31:34Z</time></trkpt><trkpt lat="42.6724143243803" lon="11.813726351623718"><ele>509.3333333333333</ele><time>2026-04-18T07:31:35Z</time></trkpt><trkpt lat="42.672428420305074" lon="11.813623116751362"><ele>510.0</ele><time>2026-04-18T07:31:36Z</time></trkpt><trkpt lat="42.672446100152456" lon="11.813529158162906"><ele>508.6</ele><time>2026-04-18T07:31:37Z</time></trkpt><trkpt lat="42.67242208146483" lon="11.813370458612868"><ele>507.2</ele><time>2026-04-18T07:31:39Z</time></trkpt><trkpt lat="42.67234936494714" lon="11.813261301166518"><ele>505.79999999999995</ele><time>2026-04-18T07:31:41Z</time></trkpt><trkpt lat="42.67228830826684" lon="11.8132160862944"><ele>504.4</ele><time>2026-04-18T07:31:42Z</time></trkpt><trkpt lat="42.67221250365319" lon="11.813170651393788"><ele>503.0</ele><time>2026-04-18T07:31:43Z</time></trkpt><trkpt lat="42.672129145752756" lon="11.813128014687221"><ele>502.99999999999994</ele><time>2026-04-18T07:31:44Z</time></trkpt><trkpt lat="42.67204451982779" lon="11.81310246542076"><ele>503.0</ele><time>2026-04-18T07:31:45Z</time></trkpt><trkpt lat="42.671970535800824" lon="11.813089550922339"><ele>503.0</ele><time>2026-04-18T07:31:46Z</time></trkpt><trkpt lat="42.67189140360586" lon="11.81309269080145"><ele>503.0</ele><time>2026-04-18T07:31:47Z</time></trkpt><trkpt lat="42.67180603795397" lon="11.813099709895603"><ele>502.99999999999994</ele><time>2026-04-18T07:31:48Z</time></trkpt><trkpt lat="42.67171137554181" lon="11.813099643475521"><ele>503.0</ele><time>2026-04-18T07:31:49Z</time></trkpt><trkpt lat="42.67162432047659" lon="11.813093917371866"><ele>503.79999999999995</ele><time>2026-04-18T07:31:50Z</time></trkpt><trkpt lat="42.67155883961786" lon="11.813073669170977"><ele>504.59999999999997</ele><time>2026-04-18T07:31:51Z</time></trkpt><trkpt lat="42.67146940948864" lon="11.812960861995974"><ele>505.40000000000003</ele><time>2026-04-18T07:31:53Z</time></trkpt><trkpt lat="42.67143284610771" lon="11.812786963117611"><ele>506.20000000000005</ele><time>2026-04-18T07:31:55Z</time></trkpt><trkpt lat="42.67143063359108" lon="11.812672241228084"><ele>507.0</ele><time>2026-04-18T07:31:56Z</time></trkpt><trkpt lat="42.67142925709008" lon="11.812568197647158"><ele>505.6666666666667</ele><time>2026-04-18T07:31:57Z</time></trkpt><trkpt lat="42.6714027816382" lon="11.812477892768197"><ele>504.33333333333337</ele><time>2026-04-18T07:31:58Z</time></trkpt><trkpt lat="42.67134439835291" lon="11.812382898161998"><ele>503.0</ele><time>2026-04-18T07:31:59Z</time></trkpt><trkpt lat="42.67127379211826" lon="11.812290087308282"><ele>501.6666666666667</ele><time>2026-04-18T07:32:00Z</time></trkpt><trkpt lat="42.67121787447398" lon="11.812200157750599"><ele>500.33333333333337</ele><time>2026-04-18T07:32:01Z</time></trkpt><trkpt lat="42.67120014020562" lon="11.812104291996091"><ele>499.0</ele><time>2026-04-18T07:32:02Z</time></trkpt><trkpt lat="42.671198835180775" lon="11.81200622329033"><ele>499.00000000000006</ele><time>2026-04-18T07:32:03Z</time></trkpt><trkpt lat="42.671210423692294" lon="11.811905506327934"><ele>499.0</ele><time>2026-04-18T07:32:04Z</time></trkpt><trkpt lat="42.671214677258064" lon="11.811811621093359"><ele>499.0</ele><time>2026-04-18T07:32:05Z</time></trkpt><trkpt lat="42.67117332997343" lon="11.811680607195617"><ele>499.0</ele><time>2026-04-18T07:32:07Z</time></trkpt><trkpt lat="42.67106684960167" lon="11.811626930603882"><ele>499.00000000000006</ele><time>2026-04-18T07:32:09Z</time></trkpt><trkpt lat="42.67098571865666" lon="11.811605153544566"><ele>499.0</ele><time>2026-04-18T07:32:10Z</time></trkpt><trkpt lat="42.67089825651526" lon="11.811583895259057"><ele>500.50000000000006</ele><time>2026-04-18T07:32:11Z</time></trkpt><trkpt lat="42.67081173444043" lon="11.811551710994145"><ele>502.0</ele><time>2026-04-18T07:32:12Z</time></trkpt><trkpt lat="42.67074665148976" lon="11.811515523807294"><ele>503.5</ele><time>2026-04-18T07:32:13Z</time></trkpt><trkpt lat="42.67069098076931" lon="11.811465417258715"><ele>505.0</ele><time>2026-04-18T07:32:14Z</time></trkpt><trkpt lat="42.67059327619778" lon="11.811352686702508"><ele>506.50000000000006</ele><time>2026-04-18T07:32:16Z</time></trkpt><trkpt lat="42.67054639121168" lon="11.811248239775127"><ele>508.0</ele><time>2026-04-18T07:32:18Z</time></trkpt><trkpt lat="42.6705786107928" lon="11.811107675344292"><ele>508.00000000000006</ele><time>2026-04-18T07:32:20Z</time></trkpt><trkpt lat="42.67062913794579" lon="11.81104634896754"><ele>508.0</ele><time>2026-04-18T07:32:21Z</time></trkpt><trkpt lat="42.670705504526055" lon="11.811002703901567"><ele>508.0</ele><time>2026-04-18T07:32:22Z</time></trkpt><trkpt lat="42.67079482267332" lon="11.810969789025437"><ele>508.0</ele><time>2026-04-18T07:32:23Z</time></trkpt><trkpt lat="42.67087051566895" lon="11.81093180179004"><ele>508.00000000000006</ele><time>2026-04-18T07:32:24Z</time></trkpt><trkpt lat="42.67096172466622" lon="11.810852570853221"><ele>508.0</ele><time>2026-04-18T07:32:26Z</time></trkpt><trkpt lat="42.670987930049655" lon="11.810759058381594"><ele>507.50000000000006</ele><time>2026-04-18T07:32:27.999Z</time></trkpt><trkpt lat="42.67091488953956" lon="11.810637021479613"><ele>507.0</ele><time>2026-04-18T07:32:30Z</time></trkpt><trkpt lat="42.67084689015205" lon="11.810614321919044"><ele>506.5</ele><time>2026-04-18T07:32:31Z</time></trkpt><trkpt lat="42.67076798584725" lon="11.810642683762918"><ele>506.0</ele><time>2026-04-18T07:32:32Z</time></trkpt><trkpt lat="42.670686659917045" lon="11.810707686416668"><ele>505.50000000000006</ele><time>2026-04-18T07:32:33Z</time></trkpt><trkpt lat="42.67060897032449" lon="11.81074677244016"><ele>505.0</ele><time>2026-04-18T07:32:34Z</time></trkpt><trkpt lat="42.67053613733048" lon="11.810774782420928"><ele>505.0</ele><time>2026-04-18T07:32:35Z</time></trkpt><trkpt lat="42.67044569477743" lon="11.810770239227294"><ele>505.0</ele><time>2026-04-18T07:32:36Z</time></trkpt><trkpt lat="42.67035733585536" lon="11.81076077316208"><ele>505.0</ele><time>2026-04-18T07:32:37Z</time></trkpt><trkpt lat="42.67027223771599" lon="11.810742091193513"><ele>505.0</ele><time>2026-04-18T07:32:38Z</time></trkpt><trkpt lat="42.67016475013181" lon="11.81063434084921"><ele>505.0</ele><time>2026-04-18T07:32:40Z</time></trkpt><trkpt lat="42.67012810762303" lon="11.810538045771397"><ele>504.00000000000006</ele><time>2026-04-18T07:32:41Z</time></trkpt><trkpt lat="42.67011162336256" lon="11.810443086320836"><ele>503.0</ele><time>2026-04-18T07:32:42Z</time></trkpt><trkpt lat="42.670076331738414" lon="11.810283358059117"><ele>502.0</ele><time>2026-04-18T07:32:44Z</time></trkpt><trkpt lat="42.67007438888295" lon="11.810195797455096"><ele>501.0</ele><time>2026-04-18T07:32:45Z</time></trkpt><trkpt lat="42.67007594410587" lon="11.810102016523471"><ele>500.00000000000006</ele><time>2026-04-18T07:32:46Z</time></trkpt><trkpt lat="42.67006961695375" lon="11.81001059504626"><ele>499.0</ele><time>2026-04-18T07:32:47Z</time></trkpt><trkpt lat="42.670078563570584" lon="11.809916900348506"><ele>498.00000000000006</ele><time>2026-04-18T07:32:48Z</time></trkpt><trkpt lat="42.670125905692096" lon="11.809828855571048"><ele>497.0</ele><time>2026-04-18T07:32:49Z</time></trkpt><trkpt lat="42.67015705344289" lon="11.809717155968693"><ele>496.0</ele><time>2026-04-18T07:32:50Z</time></trkpt><trkpt lat="42.67019423485696" lon="11.809603597722623"><ele>495.0</ele><time>2026-04-18T07:32:51Z</time></trkpt><trkpt lat="42.6702404220819" lon="11.809497281095364"><ele>494.00000000000006</ele><time>2026-04-18T07:32:52Z</time></trkpt><trkpt lat="42.67029161681736" lon="11.809404194421477"><ele>493.0</ele><time>2026-04-18T07:32:53Z</time></trkpt><trkpt lat="42.670353854759824" lon="11.809320691198993"><ele>493.0</ele><time>2026-04-18T07:32:54Z</time></trkpt><trkpt lat="42.6704378301419" lon="11.809254912619803"><ele>493.0</ele><time>2026-04-18T07:32:55Z</time></trkpt><trkpt lat="42.670545899457636" lon="11.809181347930188"><ele>493.0</ele><time>2026-04-18T07:32:56Z</time></trkpt><trkpt lat="42.67066182407465" lon="11.809080524911725"><ele>493.0</ele><time>2026-04-18T07:32:57Z</time></trkpt><trkpt lat="42.67077844256419" lon="11.808974953982377"><ele>493.0</ele><time>2026-04-18T07:32:58Z</time></trkpt><trkpt lat="42.67089949519139" lon="11.808864837893678"><ele>493.0</ele><time>2026-04-18T07:32:59Z</time></trkpt><trkpt lat="42.67100938139256" lon="11.80875506219031"><ele>493.0</ele><time>2026-04-18T07:33:00Z</time></trkpt><trkpt lat="42.671103316829225" lon="11.808663603045055"><ele>493.0</ele><time>2026-04-18T07:33:01Z</time></trkpt><trkpt lat="42.67117399217139" lon="11.808587442037462"><ele>491.83333333333337</ele><time>2026-04-18T07:33:02Z</time></trkpt><trkpt lat="42.671240889263885" lon="11.808511877193487"><ele>490.6666666666667</ele><time>2026-04-18T07:33:03Z</time></trkpt><trkpt lat="42.67130502116467" lon="11.808426090706407"><ele>489.5</ele><time>2026-04-18T07:33:04Z</time></trkpt><trkpt lat="42.6713669700997" lon="11.808346088127749"><ele>488.33333333333337</ele><time>2026-04-18T07:33:05Z</time></trkpt><trkpt lat="42.67143562036201" lon="11.808275934644"><ele>487.1666666666667</ele><time>2026-04-18T07:33:06Z</time></trkpt><trkpt lat="42.67151211673007" lon="11.808227234683184"><ele>486.0</ele><time>2026-04-18T07:33:07Z</time></trkpt><trkpt lat="42.671594074930404" lon="11.808192208783717"><ele>486.0</ele><time>2026-04-18T07:33:08Z</time></trkpt><trkpt lat="42.67167309110661" lon="11.808158210219675"><ele>486.0</ele><time>2026-04-18T07:33:09Z</time></trkpt><trkpt lat="42.67175096475828" lon="11.808118648678258"><ele>486.0</ele><time>2026-04-18T07:33:10Z</time></trkpt><trkpt lat="42.671828041468935" lon="11.808096879109655"><ele>486.0</ele><time>2026-04-18T07:33:11Z</time></trkpt><trkpt lat="42.67190005621879" lon="11.808066976123909"><ele>486.0</ele><time>2026-04-18T07:33:12Z</time></trkpt><trkpt lat="42.671957174952254" lon="11.808018827814335"><ele>486.0</ele><time>2026-04-18T07:33:13Z</time></trkpt><trkpt lat="42.67200765974974" lon="11.807955193428688"><ele>485.8</ele><time>2026-04-18T07:33:14Z</time></trkpt><trkpt lat="42.67204542694211" lon="11.80786389378554"><ele>485.6</ele><time>2026-04-18T07:33:15Z</time></trkpt><trkpt lat="42.67207394020564" lon="11.807762019868234"><ele>485.4</ele><time>2026-04-18T07:33:16Z</time></trkpt><trkpt lat="42.672050573557094" lon="11.807636249935658"><ele>485.2</ele><time>2026-04-18T07:33:17Z</time></trkpt><trkpt lat="42.67202134192906" lon="11.807504021290598"><ele>485.0</ele><time>2026-04-18T07:33:18Z</time></trkpt><trkpt lat="42.672024629989075" lon="11.807371378028513"><ele>484.8</ele><time>2026-04-18T07:33:19Z</time></trkpt><trkpt lat="42.67200998672001" lon="11.807243891175457"><ele>484.6</ele><time>2026-04-18T07:33:20Z</time></trkpt><trkpt lat="42.67197429902357" lon="11.807113528571291"><ele>484.4</ele><time>2026-04-18T07:33:21Z</time></trkpt><trkpt lat="42.671931404501784" lon="11.806959377188413"><ele>484.2</ele><time>2026-04-18T07:33:22Z</time></trkpt><trkpt lat="42.671902988974566" lon="11.806826530886529"><ele>484.0</ele><time>2026-04-18T07:33:23Z</time></trkpt><trkpt lat="42.67188374589909" lon="11.806722564114772"><ele>484.00000000000006</ele><time>2026-04-18T07:33:24Z</time></trkpt><trkpt lat="42.67185550347261" lon="11.806631749554969"><ele>484.0</ele><time>2026-04-18T07:33:25Z</time></trkpt><trkpt lat="42.6718396420488" lon="11.806526196799192"><ele>484.0</ele><time>2026-04-18T07:33:26Z</time></trkpt><trkpt lat="42.67182076099249" lon="11.806413778197113"><ele>484.0</ele><time>2026-04-18T07:33:27Z</time></trkpt><trkpt lat="42.671787708505875" lon="11.806295826192413"><ele>484.00000000000006</ele><time>2026-04-18T07:33:28Z</time></trkpt><trkpt lat="42.671722612235826" lon="11.806165588710725"><ele>484.0</ele><time>2026-04-18T07:33:29Z</time></trkpt><trkpt lat="42.671641001577015" lon="11.806042243996773"><ele>486.4</ele><time>2026-04-18T07:33:30Z</time></trkpt><trkpt lat="42.67157214288758" lon="11.805930776889577"><ele>488.79999999999995</ele><time>2026-04-18T07:33:31Z</time></trkpt><trkpt lat="42.671542989567364" lon="11.805807847933842"><ele>491.20000000000005</ele><time>2026-04-18T07:33:32Z</time></trkpt><trkpt lat="42.67150799994882" lon="11.805696252951103"><ele>493.6</ele><time>2026-04-18T07:33:33Z</time></trkpt><trkpt lat="42.6714540708673" lon="11.80559731756994"><ele>496.0</ele><time>2026-04-18T07:33:34Z</time></trkpt><trkpt lat="42.67141647249284" lon="11.805509044961802"><ele>496.00000000000006</ele><time>2026-04-18T07:33:35Z</time></trkpt><trkpt lat="42.67138601132441" lon="11.805419213062818"><ele>496.0</ele><time>2026-04-18T07:33:36Z</time></trkpt><trkpt lat="42.6713532844358" lon="11.805340266493198"><ele>496.0</ele><time>2026-04-18T07:33:37Z</time></trkpt><trkpt lat="42.67130479824175" lon="11.805181337018936"><ele>496.0</ele><time>2026-04-18T07:33:39Z</time></trkpt><trkpt lat="42.671310570129016" lon="11.805032182026117"><ele>496.00000000000006</ele><time>2026-04-18T07:33:41Z</time></trkpt><trkpt lat="42.67134849560751" lon="11.804961237667325"><ele>496.0</ele><time>2026-04-18T07:33:42Z</time></trkpt><trkpt lat="42.6713929904127" lon="11.804813750049687"><ele>496.83333333333337</ele><time>2026-04-18T07:33:44Z</time></trkpt><trkpt lat="42.6714218424733" lon="11.804733571537255"><ele>497.6666666666667</ele><time>2026-04-18T07:33:45Z</time></trkpt><trkpt lat="42.67145605568312" lon="11.80464255280779"><ele>498.5</ele><time>2026-04-18T07:33:46Z</time></trkpt><trkpt lat="42.67148850136225" lon="11.804566430222492"><ele>499.33333333333337</ele><time>2026-04-18T07:33:47Z</time></trkpt><trkpt lat="42.6715524825867" lon="11.804459081674983"><ele>500.1666666666667</ele><time>2026-04-18T07:33:49Z</time></trkpt><trkpt lat="42.671614559769914" lon="11.804385375555345"><ele>501.0</ele><time>2026-04-18T07:33:51Z</time></trkpt><trkpt lat="42.67170375073717" lon="11.804285632725358"><ele>501.8333333333333</ele><time>2026-04-18T07:33:53Z</time></trkpt><trkpt lat="42.67176787827284" lon="11.804265199334472"><ele>502.66666666666663</ele><time>2026-04-18T07:33:54Z</time></trkpt><trkpt lat="42.671846148946436" lon="11.804261407123128"><ele>503.5</ele><time>2026-04-18T07:33:55Z</time></trkpt><trkpt lat="42.67193618543839" lon="11.804298838309371"><ele>504.3333333333333</ele><time>2026-04-18T07:33:56Z</time></trkpt><trkpt lat="42.672024558046736" lon="11.804273140338074"><ele>505.16666666666663</ele><time>2026-04-18T07:33:57Z</time></trkpt><trkpt lat="42.67211034699193" lon="11.804262744486985"><ele>506.0</ele><time>2026-04-18T07:33:58Z</time></trkpt><trkpt lat="42.672196825187356" lon="11.804227803022656"><ele>506.66666666666663</ele><time>2026-04-18T07:33:59Z</time></trkpt><trkpt lat="42.67228215354438" lon="11.804189765939162"><ele>507.3333333333333</ele><time>2026-04-18T07:34:00Z</time></trkpt><trkpt lat="42.67237285846959" lon="11.80417420211406"><ele>508.0</ele><time>2026-04-18T07:34:01Z</time></trkpt><trkpt lat="42.67244685068647" lon="11.804126778198844"><ele>508.66666666666663</ele><time>2026-04-18T07:34:02Z</time></trkpt><trkpt lat="42.67251132887786" lon="11.804125787127372"><ele>509.3333333333333</ele><time>2026-04-18T07:34:03Z</time></trkpt><trkpt lat="42.672587353296215" lon="11.804079131989699"><ele>510.0</ele><time>2026-04-18T07:34:05Z</time></trkpt><trkpt lat="42.67265821064649" lon="11.804144913361048"><ele>510.0</ele><time>2026-04-18T07:34:07Z</time></trkpt><trkpt lat="42.672723602708516" lon="11.804222366240204"><ele>510.0</ele><time>2026-04-18T07:34:08Z</time></trkpt><trkpt lat="42.67281258706742" lon="11.804299205341614"><ele>510.0</ele><time>2026-04-18T07:34:09Z</time></trkpt><trkpt lat="42.67289194903624" lon="11.804402121861713"><ele>510.0</ele><time>2026-04-18T07:34:10Z</time></trkpt><trkpt lat="42.67294877343372" lon="11.804507493997214"><ele>510.0</ele><time>2026-04-18T07:34:11Z</time></trkpt><trkpt lat="42.67302247748103" lon="11.804581658656874"><ele>510.2</ele><time>2026-04-18T07:34:12Z</time></trkpt><trkpt lat="42.67308923421159" lon="11.804675429262156"><ele>510.4</ele><time>2026-04-18T07:34:13Z</time></trkpt><trkpt lat="42.67316001930332" lon="11.804790310116411"><ele>510.6</ele><time>2026-04-18T07:34:14Z</time></trkpt><trkpt lat="42.67323550069128" lon="11.804912015786584"><ele>510.8</ele><time>2026-04-18T07:34:15Z</time></trkpt><trkpt lat="42.67332234127993" lon="11.805023944532627"><ele>511.0</ele><time>2026-04-18T07:34:16Z</time></trkpt><trkpt lat="42.67339841722214" lon="11.805131545714566"><ele>510.8</ele><time>2026-04-18T07:34:17Z</time></trkpt><trkpt lat="42.67346286349362" lon="11.805239284338601"><ele>510.6</ele><time>2026-04-18T07:34:18Z</time></trkpt><trkpt lat="42.6735137666228" lon="11.805352061014611"><ele>510.4</ele><time>2026-04-18T07:34:19Z</time></trkpt><trkpt lat="42.673568167649236" lon="11.805473635890156"><ele>510.2</ele><time>2026-04-18T07:34:20Z</time></trkpt><trkpt lat="42.67362308551217" lon="11.805591770969796"><ele>510.0</ele><time>2026-04-18T07:34:21Z</time></trkpt><trkpt lat="42.67369159546185" lon="11.805690951302623"><ele>510.0</ele><time>2026-04-18T07:34:22Z</time></trkpt><trkpt lat="42.673768077451456" lon="11.805777421421583"><ele>510.0</ele><time>2026-04-18T07:34:23Z</time></trkpt><trkpt lat="42.673853099099375" lon="11.805852342686824"><ele>510.0</ele><time>2026-04-18T07:34:24Z</time></trkpt><trkpt lat="42.67394173027744" lon="11.805917829752484"><ele>510.0</ele><time>2026-04-18T07:34:25Z</time></trkpt><trkpt lat="42.674042627704836" lon="11.805978928739233"><ele>510.0</ele><time>2026-04-18T07:34:26Z</time></trkpt><trkpt lat="42.67414311088702" lon="11.806010071195569"><ele>510.0</ele><time>2026-04-18T07:34:27Z</time></trkpt><trkpt lat="42.674251571212444" lon="11.806023960995619"><ele>510.0</ele><time>2026-04-18T07:34:28Z</time></trkpt><trkpt lat="42.6743625933481" lon="11.806032178853478"><ele>510.0</ele><time>2026-04-18T07:34:29Z</time></trkpt><trkpt lat="42.67448450700943" lon="11.806036456397544"><ele>510.0</ele><time>2026-04-18T07:34:30Z</time></trkpt><trkpt lat="42.674602135348394" lon="11.80606400686202"><ele>511.0</ele><time>2026-04-18T07:34:31Z</time></trkpt><trkpt lat="42.674722915157815" lon="11.806072030402424"><ele>512.0</ele><time>2026-04-18T07:34:32Z</time></trkpt><trkpt lat="42.67483527605302" lon="11.806080449680614"><ele>513.0</ele><time>2026-04-18T07:34:33Z</time></trkpt><trkpt lat="42.67493722544654" lon="11.806089146232386"><ele>514.0</ele><time>2026-04-18T07:34:34Z</time></trkpt><trkpt lat="42.67504087710271" lon="11.806100136578562"><ele>515.0</ele><time>2026-04-18T07:34:35Z</time></trkpt><trkpt lat="42.6751555452593" lon="11.806099329793318"><ele>514.25</ele><time>2026-04-18T07:34:36Z</time></trkpt><trkpt lat="42.67527931942332" lon="11.806118891772693"><ele>513.5</ele><time>2026-04-18T07:34:37Z</time></trkpt><trkpt lat="42.675406628982" lon="11.806147460774634"><ele>512.75</ele><time>2026-04-18T07:34:38Z</time></trkpt><trkpt lat="42.67553457570168" lon="11.806181111888879"><ele>512.0</ele><time>2026-04-18T07:34:39Z</time></trkpt><trkpt lat="42.67565548575523" lon="11.806199308786516"><ele>512.0</ele><time>2026-04-18T07:34:40Z</time></trkpt><trkpt lat="42.67576902317065" lon="11.806230366388547"><ele>512.0</ele><time>2026-04-18T07:34:41Z</time></trkpt><trkpt lat="42.67587708758904" lon="11.806258358576855"><ele>512.0</ele><time>2026-04-18T07:34:42Z</time></trkpt><trkpt lat="42.675971685862706" lon="11.806322401648575"><ele>512.0</ele><time>2026-04-18T07:34:43Z</time></trkpt><trkpt lat="42.676073565015265" lon="11.806376732777114"><ele>512.0</ele><time>2026-04-18T07:34:44Z</time></trkpt><trkpt lat="42.67618606689586" lon="11.806417550606028"><ele>511.75</ele><time>2026-04-18T07:34:45Z</time></trkpt><trkpt lat="42.676284253789476" lon="11.80647764028855"><ele>511.5</ele><time>2026-04-18T07:34:46Z</time></trkpt><trkpt lat="42.676396263096066" lon="11.806540806536221"><ele>511.25</ele><time>2026-04-18T07:34:47Z</time></trkpt><trkpt lat="42.67651520144607" lon="11.806613442778524"><ele>511.0</ele><time>2026-04-18T07:34:48Z</time></trkpt><trkpt lat="42.67662480998171" lon="11.806677512815032"><ele>511.0</ele><time>2026-04-18T07:34:49Z</time></trkpt><trkpt lat="42.67672670363701" lon="11.80673437210956"><ele>511.0</ele><time>2026-04-18T07:34:50Z</time></trkpt><trkpt lat="42.67682304028443" lon="11.806785187109403"><ele>511.0</ele><time>2026-04-18T07:34:51Z</time></trkpt><trkpt lat="42.676923044748655" lon="11.806821738601839"><ele>511.0</ele><time>2026-04-18T07:34:52Z</time></trkpt><trkpt lat="42.67703330548326" lon="11.806844588844173"><ele>511.0</ele><time>2026-04-18T07:34:53Z</time></trkpt><trkpt lat="42.677141278763784" lon="11.806849340426345"><ele>510.0</ele><time>2026-04-18T07:34:54Z</time></trkpt><trkpt lat="42.67725269470158" lon="11.80684958152801"><ele>509.0</ele><time>2026-04-18T07:34:55Z</time></trkpt><trkpt lat="42.677368337831034" lon="11.80685256852878"><ele>508.0</ele><time>2026-04-18T07:34:56Z</time></trkpt><trkpt lat="42.67747456096687" lon="11.806839470557065"><ele>507.0</ele><time>2026-04-18T07:34:57Z</time></trkpt><trkpt lat="42.67757271889963" lon="11.806846111779054"><ele>506.0</ele><time>2026-04-18T07:34:58Z</time></trkpt><trkpt lat="42.677651752178384" lon="11.806849255670722"><ele>505.99999999999994</ele><time>2026-04-18T07:34:59Z</time></trkpt><trkpt lat="42.677728837819096" lon="11.806860785188588"><ele>506.0</ele><time>2026-04-18T07:35:00Z</time></trkpt><trkpt lat="42.67779862323809" lon="11.806877207558763"><ele>506.0</ele><time>2026-04-18T07:35:01Z</time></trkpt><trkpt lat="42.67786465803714" lon="11.80690422981018"><ele>506.0</ele><time>2026-04-18T07:35:02Z</time></trkpt><trkpt lat="42.6779451850182" lon="11.806939998917425"><ele>505.99999999999994</ele><time>2026-04-18T07:35:04Z</time></trkpt><trkpt lat="42.67800834116697" lon="11.806951293097711"><ele>506.0</ele><time>2026-04-18T07:35:07Z</time></trkpt><trkpt lat="42.67802021495542" lon="11.806767194423541"><ele>506.0</ele><time>2026-04-18T07:35:09Z</time></trkpt><trkpt lat="42.67798835736604" lon="11.806565898367435"><ele>506.0</ele><time>2026-04-18T07:35:11Z</time></trkpt><trkpt lat="42.677992689199606" lon="11.806401290371014"><ele>506.0</ele><time>2026-04-18T07:35:12Z</time></trkpt><trkpt lat="42.67800768985291" lon="11.8062497045777"><ele>506.0</ele><time>2026-04-18T07:35:13Z</time></trkpt><trkpt lat="42.678019164457304" lon="11.806117509455543"><ele>505.5</ele><time>2026-04-18T07:35:14Z</time></trkpt><trkpt lat="42.67800387139098" lon="11.805963961026567"><ele>505.0</ele><time>2026-04-18T07:35:15Z</time></trkpt><trkpt lat="42.67797410995322" lon="11.805770987890709"><ele>504.5</ele><time>2026-04-18T07:35:16Z</time></trkpt><trkpt lat="42.67793464004135" lon="11.805575074052081"><ele>504.0</ele><time>2026-04-18T07:35:17Z</time></trkpt><trkpt lat="42.67792890552582" lon="11.805398324205562"><ele>504.0</ele><time>2026-04-18T07:35:18Z</time></trkpt><trkpt lat="42.677922496862486" lon="11.805241639941185"><ele>504.0</ele><time>2026-04-18T07:35:19Z</time></trkpt><trkpt lat="42.677919585895644" lon="11.805089494834897"><ele>504.0</ele><time>2026-04-18T07:35:20Z</time></trkpt><trkpt lat="42.677896736443195" lon="11.804946315054572"><ele>504.0</ele><time>2026-04-18T07:35:21Z</time></trkpt><trkpt lat="42.677894336092976" lon="11.804793996584497"><ele>504.0</ele><time>2026-04-18T07:35:22Z</time></trkpt><trkpt lat="42.677873180599605" lon="11.804622278159052"><ele>504.0</ele><time>2026-04-18T07:35:23Z</time></trkpt><trkpt lat="42.67784787185819" lon="11.804468689881986"><ele>504.0</ele><time>2026-04-18T07:35:24Z</time></trkpt><trkpt lat="42.67780251474437" lon="11.804335003486344"><ele>504.0</ele><time>2026-04-18T07:35:25Z</time></trkpt><trkpt lat="42.677786432471464" lon="11.80418829807401"><ele>504.0</ele><time>2026-04-18T07:35:26Z</time></trkpt><trkpt lat="42.67775526813576" lon="11.804046579273995"><ele>504.0</ele><time>2026-04-18T07:35:27Z</time></trkpt><trkpt lat="42.67773831973506" lon="11.80391354206464"><ele>504.6</ele><time>2026-04-18T07:35:28Z</time></trkpt><trkpt lat="42.67774087638019" lon="11.803783762908106"><ele>505.2</ele><time>2026-04-18T07:35:29Z</time></trkpt><trkpt lat="42.67777414164828" lon="11.803674104748143"><ele>505.80000000000007</ele><time>2026-04-18T07:35:30Z</time></trkpt><trkpt lat="42.677841204232834" lon="11.803591898779446"><ele>506.40000000000003</ele><time>2026-04-18T07:35:31Z</time></trkpt><trkpt lat="42.677921576917875" lon="11.803498977032255"><ele>507.0</ele><time>2026-04-18T07:35:32Z</time></trkpt><trkpt lat="42.67801407465734" lon="11.803386851421132"><ele>507.0</ele><time>2026-04-18T07:35:33Z</time></trkpt><trkpt lat="42.67810147962649" lon="11.803284547665895"><ele>507.0</ele><time>2026-04-18T07:35:34Z</time></trkpt><trkpt lat="42.678184199407994" lon="11.803194970819225"><ele>507.0</ele><time>2026-04-18T07:35:35Z</time></trkpt><trkpt lat="42.678273086269904" lon="11.803110177039171"><ele>507.0</ele><time>2026-04-18T07:35:36Z</time></trkpt><trkpt lat="42.67837748885339" lon="11.803025509953939"><ele>507.0</ele><time>2026-04-18T07:35:37Z</time></trkpt><trkpt lat="42.67848893817508" lon="11.802936665887504"><ele>507.0</ele><time>2026-04-18T07:35:38Z</time></trkpt><trkpt lat="42.678611055073546" lon="11.80284159190997"><ele>507.0</ele><time>2026-04-18T07:35:39Z</time></trkpt><trkpt lat="42.678739536235646" lon="11.802745959727616"><ele>507.0</ele><time>2026-04-18T07:35:40Z</time></trkpt><trkpt lat="42.67887276808402" lon="11.80264931232078"><ele>505.75</ele><time>2026-04-18T07:35:41Z</time></trkpt><trkpt lat="42.67899614236057" lon="11.802560777938476"><ele>504.5</ele><time>2026-04-18T07:35:42Z</time></trkpt><trkpt lat="42.67911821579761" lon="11.802473176908075"><ele>503.25</ele><time>2026-04-18T07:35:43Z</time></trkpt><trkpt lat="42.67923446697518" lon="11.802370530879504"><ele>502.0</ele><time>2026-04-18T07:35:44Z</time></trkpt><trkpt lat="42.67935575745322" lon="11.80229856564524"><ele>501.5</ele><time>2026-04-18T07:35:45Z</time></trkpt><trkpt lat="42.679472021357995" lon="11.802214162133593"><ele>501.0</ele><time>2026-04-18T07:35:46Z</time></trkpt><trkpt lat="42.67957664314331" lon="11.802133738329719"><ele>500.5</ele><time>2026-04-18T07:35:47Z</time></trkpt><trkpt lat="42.67967019020476" lon="11.802066459864388"><ele>500.0</ele><time>2026-04-18T07:35:48Z</time></trkpt><trkpt lat="42.679766551028976" lon="11.80200849782863"><ele>500.0</ele><time>2026-04-18T07:35:49Z</time></trkpt><trkpt lat="42.67986523150468" lon="11.801967517552992"><ele>500.0</ele><time>2026-04-18T07:35:50Z</time></trkpt><trkpt lat="42.67996617434442" lon="11.801934132311809"><ele>500.0</ele><time>2026-04-18T07:35:51Z</time></trkpt><trkpt lat="42.680067409874205" lon="11.801902040880481"><ele>500.0</ele><time>2026-04-18T07:35:52Z</time></trkpt><trkpt lat="42.68016579750635" lon="11.80185990237907"><ele>500.0</ele><time>2026-04-18T07:35:53Z</time></trkpt><trkpt lat="42.68026179539653" lon="11.801799321630455"><ele>499.5</ele><time>2026-04-18T07:35:54Z</time></trkpt><trkpt lat="42.680381269320634" lon="11.80172582492145"><ele>499.0</ele><time>2026-04-18T07:35:55Z</time></trkpt><trkpt lat="42.68049370169455" lon="11.801632935096857"><ele>498.5</ele><time>2026-04-18T07:35:56Z</time></trkpt><trkpt lat="42.680612467719946" lon="11.801557037201352"><ele>498.0</ele><time>2026-04-18T07:35:57Z</time></trkpt><trkpt lat="42.68072815925771" lon="11.801491160299216"><ele>498.0</ele><time>2026-04-18T07:35:58Z</time></trkpt><trkpt lat="42.68083019509777" lon="11.801436120210576"><ele>497.99999999999994</ele><time>2026-04-18T07:35:59Z</time></trkpt><trkpt lat="42.68092366934984" lon="11.801384202625202"><ele>497.99999999999994</ele><time>2026-04-18T07:36:00Z</time></trkpt><trkpt lat="42.68101545737081" lon="11.801323957781511"><ele>498.0</ele><time>2026-04-18T07:36:01Z</time></trkpt><trkpt lat="42.68109173160986" lon="11.80126553890719"><ele>498.0</ele><time>2026-04-18T07:36:02Z</time></trkpt><trkpt lat="42.68115376863866" lon="11.801202565510987"><ele>498.0</ele><time>2026-04-18T07:36:03Z</time></trkpt><trkpt lat="42.681207776926854" lon="11.801124115530207"><ele>497.99999999999994</ele><time>2026-04-18T07:36:04Z</time></trkpt><trkpt lat="42.681239504510145" lon="11.801028011758921"><ele>497.99999999999994</ele><time>2026-04-18T07:36:05Z</time></trkpt><trkpt lat="42.681254796452656" lon="11.80091261035377"><ele>498.0</ele><time>2026-04-18T07:36:06Z</time></trkpt><trkpt lat="42.68125805362156" lon="11.800759973108992"><ele>498.0</ele><time>2026-04-18T07:36:07Z</time></trkpt><trkpt lat="42.68127644464136" lon="11.80060386695674"><ele>498.0</ele><time>2026-04-18T07:36:08Z</time></trkpt><trkpt lat="42.681277824271106" lon="11.800462839650253"><ele>497.99999999999994</ele><time>2026-04-18T07:36:09Z</time></trkpt><trkpt lat="42.681259212520786" lon="11.800338214882863"><ele>497.99999999999994</ele><time>2026-04-18T07:36:10Z</time></trkpt><trkpt lat="42.68124837078027" lon="11.800209828239492"><ele>498.0</ele><time>2026-04-18T07:36:11Z</time></trkpt><trkpt lat="42.68122022089191" lon="11.80007951777979"><ele>498.0</ele><time>2026-04-18T07:36:12Z</time></trkpt><trkpt lat="42.68117120181998" lon="11.799953504566828"><ele>498.25</ele><time>2026-04-18T07:36:13Z</time></trkpt><trkpt lat="42.68114070807546" lon="11.799795405640378"><ele>498.5</ele><time>2026-04-18T07:36:14Z</time></trkpt><trkpt lat="42.681092976251726" lon="11.799637241456763"><ele>498.75</ele><time>2026-04-18T07:36:15Z</time></trkpt><trkpt lat="42.681041146653556" lon="11.79947223353894"><ele>499.0</ele><time>2026-04-18T07:36:16Z</time></trkpt><trkpt lat="42.680986645888645" lon="11.799302012421034"><ele>499.0</ele><time>2026-04-18T07:36:17Z</time></trkpt><trkpt lat="42.68093311283953" lon="11.799134824308684"><ele>499.0</ele><time>2026-04-18T07:36:18Z</time></trkpt><trkpt lat="42.68088323688062" lon="11.798979057588436"><ele>499.0</ele><time>2026-04-18T07:36:19Z</time></trkpt><trkpt lat="42.68083612738271" lon="11.798831930758476"><ele>499.0</ele><time>2026-04-18T07:36:20Z</time></trkpt><trkpt lat="42.680780351493034" lon="11.798697461113587"><ele>499.0</ele><time>2026-04-18T07:36:21Z</time></trkpt><trkpt lat="42.680751056357465" lon="11.798555141627572"><ele>499.0</ele><time>2026-04-18T07:36:22Z</time></trkpt><trkpt lat="42.68073457814967" lon="11.798422637009072"><ele>499.0</ele><time>2026-04-18T07:36:23Z</time></trkpt><trkpt lat="42.680705156344054" lon="11.798294003345724"><ele>499.0</ele><time>2026-04-18T07:36:24Z</time></trkpt><trkpt lat="42.680671173253394" lon="11.798165095627162"><ele>499.0</ele><time>2026-04-18T07:36:25Z</time></trkpt><trkpt lat="42.680642096708645" lon="11.79803478861344"><ele>499.0</ele><time>2026-04-18T07:36:26Z</time></trkpt><trkpt lat="42.680610730716154" lon="11.797893888857525"><ele>499.0</ele><time>2026-04-18T07:36:27Z</time></trkpt><trkpt lat="42.68057155400781" lon="11.797730525798267"><ele>499.0</ele><time>2026-04-18T07:36:28Z</time></trkpt><trkpt lat="42.68053320003544" lon="11.797560638120517"><ele>499.0</ele><time>2026-04-18T07:36:29Z</time></trkpt><trkpt lat="42.68050217133134" lon="11.797399596467859"><ele>498.79999999999995</ele><time>2026-04-18T07:36:30Z</time></trkpt><trkpt lat="42.6804668835818" lon="11.797254604081433"><ele>498.59999999999997</ele><time>2026-04-18T07:36:31Z</time></trkpt><trkpt lat="42.680420537133735" lon="11.797137552530653"><ele>498.4</ele><time>2026-04-18T07:36:32Z</time></trkpt><trkpt lat="42.680368359937546" lon="11.797022078296887"><ele>498.2</ele><time>2026-04-18T07:36:33Z</time></trkpt><trkpt lat="42.68031212023717" lon="11.7969150463469"><ele>498.0</ele><time>2026-04-18T07:36:34Z</time></trkpt><trkpt lat="42.680255941212145" lon="11.796807577800072"><ele>496.59999999999997</ele><time>2026-04-18T07:36:35Z</time></trkpt><trkpt lat="42.680205708875924" lon="11.79670602655829"><ele>495.19999999999993</ele><time>2026-04-18T07:36:36Z</time></trkpt><trkpt lat="42.680156487774525" lon="11.796596178997225"><ele>493.8</ele><time>2026-04-18T07:36:37Z</time></trkpt><trkpt lat="42.68011635092916" lon="11.796490630770467"><ele>492.4</ele><time>2026-04-18T07:36:38Z</time></trkpt><trkpt lat="42.68007993995605" lon="11.796370271758786"><ele>491.0</ele><time>2026-04-18T07:36:39Z</time></trkpt><trkpt lat="42.68004610821386" lon="11.796243068223834"><ele>490.99999999999994</ele><time>2026-04-18T07:36:40Z</time></trkpt><trkpt lat="42.680015468664564" lon="11.79611300203926"><ele>491.0</ele><time>2026-04-18T07:36:41Z</time></trkpt><trkpt lat="42.67998398406946" lon="11.795984552756808"><ele>491.0</ele><time>2026-04-18T07:36:42Z</time></trkpt><trkpt lat="42.67995960898579" lon="11.795868808067292"><ele>491.0</ele><time>2026-04-18T07:36:43Z</time></trkpt><trkpt lat="42.67993247207984" lon="11.795768074213933"><ele>490.99999999999994</ele><time>2026-04-18T07:36:44Z</time></trkpt><trkpt lat="42.67988767488885" lon="11.79567517634652"><ele>491.0</ele><time>2026-04-18T07:36:45Z</time></trkpt><trkpt lat="42.67982426145475" lon="11.795605850886341"><ele>490.4</ele><time>2026-04-18T07:36:46Z</time></trkpt><trkpt lat="42.679731519396164" lon="11.795541693487033"><ele>489.8</ele><time>2026-04-18T07:36:47Z</time></trkpt><trkpt lat="42.67962748776103" lon="11.795493598413824"><ele>489.19999999999993</ele><time>2026-04-18T07:36:48Z</time></trkpt><trkpt lat="42.679533456163014" lon="11.795452961360636"><ele>488.59999999999997</ele><time>2026-04-18T07:36:49Z</time></trkpt><trkpt lat="42.679450659983566" lon="11.795400776062388"><ele>488.0</ele><time>2026-04-18T07:36:50Z</time></trkpt><trkpt lat="42.67937098451744" lon="11.79533555954796"><ele>486.79999999999995</ele><time>2026-04-18T07:36:51Z</time></trkpt><trkpt lat="42.67930116606405" lon="11.79527280542496"><ele>485.59999999999997</ele><time>2026-04-18T07:36:52Z</time></trkpt><trkpt lat="42.679244686738336" lon="11.79520296505096"><ele>484.40000000000003</ele><time>2026-04-18T07:36:53Z</time></trkpt><trkpt lat="42.67918788843447" lon="11.795120869045247"><ele>483.20000000000005</ele><time>2026-04-18T07:36:54Z</time></trkpt><trkpt lat="42.67912841072703" lon="11.79501253573074"><ele>482.0</ele><time>2026-04-18T07:36:55Z</time></trkpt><trkpt lat="42.67906604467838" lon="11.794881300030248"><ele>482.0</ele><time>2026-04-18T07:36:56Z</time></trkpt><trkpt lat="42.67900394965211" lon="11.794741353924236"><ele>482.0</ele><time>2026-04-18T07:36:57Z</time></trkpt><trkpt lat="42.678938188907395" lon="11.794607369144922"><ele>482.0</ele><time>2026-04-18T07:36:58Z</time></trkpt><trkpt lat="42.67887282932801" lon="11.794483179155423"><ele>482.0</ele><time>2026-04-18T07:36:59Z</time></trkpt><trkpt lat="42.67881471126014" lon="11.794367371550493"><ele>481.6</ele><time>2026-04-18T07:37:00Z</time></trkpt><trkpt lat="42.67875983046758" lon="11.794253599016956"><ele>481.20000000000005</ele><time>2026-04-18T07:37:01Z</time></trkpt><trkpt lat="42.678703772635494" lon="11.794152933125858"><ele>480.8</ele><time>2026-04-18T07:37:02Z</time></trkpt><trkpt lat="42.678647899452564" lon="11.794059177535953"><ele>480.4</ele><time>2026-04-18T07:37:03Z</time></trkpt><trkpt lat="42.67859401815589" lon="11.793961025854902"><ele>480.0</ele><time>2026-04-18T07:37:04Z</time></trkpt><trkpt lat="42.67853831049557" lon="11.793859031399306"><ele>479.5</ele><time>2026-04-18T07:37:05Z</time></trkpt><trkpt lat="42.67847917355355" lon="11.793751638750308"><ele>479.0</ele><time>2026-04-18T07:37:06Z</time></trkpt><trkpt lat="42.67842405973203" lon="11.793647125887391"><ele>478.5</ele><time>2026-04-18T07:37:07Z</time></trkpt><trkpt lat="42.67837486990795" lon="11.793546281177333"><ele>478.0</ele><time>2026-04-18T07:37:08Z</time></trkpt><trkpt lat="42.678326154095046" lon="11.793455314720775"><ele>477.5</ele><time>2026-04-18T07:37:09Z</time></trkpt><trkpt lat="42.67828298248706" lon="11.79338278252745"><ele>477.0</ele><time>2026-04-18T07:37:10Z</time></trkpt><trkpt lat="42.678236430929786" lon="11.793255507662431"><ele>477.0</ele><time>2026-04-18T07:37:12Z</time></trkpt><trkpt lat="42.678217270211185" lon="11.793157023485739"><ele>477.0</ele><time>2026-04-18T07:37:14Z</time></trkpt><trkpt lat="42.67819376025035" lon="11.793075391236446"><ele>477.0</ele><time>2026-04-18T07:37:16Z</time></trkpt><trkpt lat="42.678177663099106" lon="11.792977266755582"><ele>477.0</ele><time>2026-04-18T07:37:18Z</time></trkpt><trkpt lat="42.67813674653972" lon="11.792831314700559"><ele>477.0</ele><time>2026-04-18T07:37:20Z</time></trkpt><trkpt lat="42.67810458815407" lon="11.79273648255716"><ele>477.0</ele><time>2026-04-18T07:37:22Z</time></trkpt><trkpt lat="42.67808148939117" lon="11.79265457150056"><ele>478.0</ele><time>2026-04-18T07:37:25Z</time></trkpt><trkpt lat="42.678034828531025" lon="11.792577915179336"><ele>479.0</ele><time>2026-04-18T07:37:28Z</time></trkpt><trkpt lat="42.67800483189359" lon="11.79246907610794"><ele>480.0</ele><time>2026-04-18T07:37:31Z</time></trkpt><trkpt lat="42.67796047885565" lon="11.792373511606343"><ele>481.0</ele><time>2026-04-18T07:37:35Z</time></trkpt><trkpt lat="42.67791973594983" lon="11.79230270773193"><ele>482.0</ele><time>2026-04-18T07:37:38Z</time></trkpt><trkpt lat="42.677875542052526" lon="11.79222140929505"><ele>483.0</ele><time>2026-04-18T07:37:42Z</time></trkpt><trkpt lat="42.677834019051865" lon="11.792144057399527"><ele>483.0</ele><time>2026-04-18T07:37:45Z</time></trkpt><trkpt lat="42.67778864224348" lon="11.792059765754075"><ele>483.0</ele><time>2026-04-18T07:37:48Z</time></trkpt><trkpt lat="42.677724038199386" lon="11.791980986046562"><ele>483.0</ele><time>2026-04-18T07:37:51Z</time></trkpt><trkpt lat="42.67765636678966" lon="11.791916456021694"><ele>483.0</ele><time>2026-04-18T07:37:54Z</time></trkpt><trkpt lat="42.67757123349684" lon="11.791868346555171"><ele>483.0</ele><time>2026-04-18T07:37:57Z</time></trkpt><trkpt lat="42.67748984291507" lon="11.791830667763806"><ele>483.0</ele><time>2026-04-18T07:38:00Z</time></trkpt><trkpt lat="42.67740011530169" lon="11.791804147044113"><ele>484.3333333333333</ele><time>2026-04-18T07:38:03Z</time></trkpt><trkpt lat="42.67734101188037" lon="11.791773599561362"><ele>485.66666666666663</ele><time>2026-04-18T07:38:05Z</time></trkpt><trkpt lat="42.67726117263575" lon="11.791738705344164"><ele>487.0</ele><time>2026-04-18T07:38:08Z</time></trkpt><trkpt lat="42.67718137897621" lon="11.791712537037364"><ele>488.3333333333333</ele><time>2026-04-18T07:38:11Z</time></trkpt><trkpt lat="42.677097827151556" lon="11.791676539854025"><ele>489.66666666666663</ele><time>2026-04-18T07:38:14Z</time></trkpt><trkpt lat="42.67701951555198" lon="11.791622914466082"><ele>491.0</ele><time>2026-04-18T07:38:17Z</time></trkpt><trkpt lat="42.67693764296842" lon="11.79157606144227"><ele>490.49999999999994</ele><time>2026-04-18T07:38:20Z</time></trkpt><trkpt lat="42.67687771724049" lon="11.791534279763965"><ele>490.0</ele><time>2026-04-18T07:38:22Z</time></trkpt><trkpt lat="42.67679581558874" lon="11.79147831635118"><ele>489.5</ele><time>2026-04-18T07:38:25Z</time></trkpt><trkpt lat="42.67671701933562" lon="11.791420477497219"><ele>489.0</ele><time>2026-04-18T07:38:28Z</time></trkpt><trkpt lat="42.67665359262325" lon="11.791371635432952"><ele>488.49999999999994</ele><time>2026-04-18T07:38:31Z</time></trkpt><trkpt lat="42.67659031242626" lon="11.791327895012513"><ele>488.0</ele><time>2026-04-18T07:38:35Z</time></trkpt><trkpt lat="42.676530998886804" lon="11.79128106723045"><ele>487.99999999999994</ele><time>2026-04-18T07:38:38Z</time></trkpt><trkpt lat="42.67646441681226" lon="11.791234570981047"><ele>488.0</ele><time>2026-04-18T07:38:42Z</time></trkpt><trkpt lat="42.6764052783925" lon="11.791191925781886"><ele>487.99999999999994</ele><time>2026-04-18T07:38:45Z</time></trkpt><trkpt lat="42.67634662416618" lon="11.791144533373057"><ele>487.99999999999994</ele><time>2026-04-18T07:38:48Z</time></trkpt><trkpt lat="42.676280325682455" lon="11.79108699140974"><ele>488.0</ele><time>2026-04-18T07:38:51Z</time></trkpt><trkpt lat="42.67621725105427" lon="11.791019173988879"><ele>487.99999999999994</ele><time>2026-04-18T07:38:55Z</time></trkpt><trkpt lat="42.676157518409845" lon="11.790970134861446"><ele>487.99999999999994</ele><time>2026-04-18T07:38:58Z</time></trkpt><trkpt lat="42.6760829177396" lon="11.790891928071298"><ele>488.99999999999994</ele><time>2026-04-18T07:39:01Z</time></trkpt><trkpt lat="42.67601802026431" lon="11.790815130323589"><ele>490.0</ele><time>2026-04-18T07:39:04Z</time></trkpt><trkpt lat="42.67594655445417" lon="11.790744265923536"><ele>491.0</ele><time>2026-04-18T07:39:07Z</time></trkpt><trkpt lat="42.675870627269546" lon="11.79067155779241"><ele>492.0</ele><time>2026-04-18T07:39:10Z</time></trkpt><trkpt lat="42.675806283625306" lon="11.790596522357676"><ele>492.99999999999994</ele><time>2026-04-18T07:39:13Z</time></trkpt><trkpt lat="42.675758276809894" lon="11.790514574202787"><ele>494.0</ele><time>2026-04-18T07:39:17Z</time></trkpt><trkpt lat="42.67570291667035" lon="11.790429474730303"><ele>493.99999999999994</ele><time>2026-04-18T07:39:20Z</time></trkpt><trkpt lat="42.6756526284268" lon="11.790344663965982"><ele>494.0</ele><time>2026-04-18T07:39:23Z</time></trkpt><trkpt lat="42.67559671521817" lon="11.790264218984932"><ele>494.0</ele><time>2026-04-18T07:39:26Z</time></trkpt><trkpt lat="42.67554384901268" lon="11.79019048265323"><ele>494.0</ele><time>2026-04-18T07:39:29Z</time></trkpt><trkpt lat="42.67547897697298" lon="11.790110311200028"><ele>493.99999999999994</ele><time>2026-04-18T07:39:32Z</time></trkpt><trkpt lat="42.67541155508388" lon="11.790028403035295"><ele>494.0</ele><time>2026-04-18T07:39:35Z</time></trkpt><trkpt lat="42.67533832879927" lon="11.78993888967814"><ele>494.57142857142856</ele><time>2026-04-18T07:39:38Z</time></trkpt><trkpt lat="42.67528468121752" lon="11.7898780053696"><ele>495.1428571428571</ele><time>2026-04-18T07:39:40Z</time></trkpt><trkpt lat="42.67523334089344" lon="11.789814303578307"><ele>495.71428571428567</ele><time>2026-04-18T07:39:42Z</time></trkpt><trkpt lat="42.67518201264093" lon="11.789753095783931"><ele>496.2857142857143</ele><time>2026-04-18T07:39:44Z</time></trkpt><trkpt lat="42.67512947150328" lon="11.789685048185847"><ele>496.8571428571428</ele><time>2026-04-18T07:39:46Z</time></trkpt><trkpt lat="42.6750748080818" lon="11.789612272075864"><ele>497.4285714285714</ele><time>2026-04-18T07:39:48Z</time></trkpt><trkpt lat="42.67502668295962" lon="11.78954843063098"><ele>498.0</ele><time>2026-04-18T07:39:50Z</time></trkpt><trkpt lat="42.67497366502847" lon="11.78947966433151"><ele>498.0</ele><time>2026-04-18T07:39:52Z</time></trkpt><trkpt lat="42.67493056001156" lon="11.789412613370361"><ele>497.99999999999994</ele><time>2026-04-18T07:39:54Z</time></trkpt><trkpt lat="42.67488513112763" lon="11.789343261399248"><ele>498.0</ele><time>2026-04-18T07:39:56Z</time></trkpt><trkpt lat="42.67484250234342" lon="11.789276769321098"><ele>498.0</ele><time>2026-04-18T07:39:58Z</time></trkpt><trkpt lat="42.674791607019806" lon="11.789181019895492"><ele>497.99999999999994</ele><time>2026-04-18T07:40:01Z</time></trkpt><trkpt lat="42.67474420282467" lon="11.789083832964995"><ele>498.0</ele><time>2026-04-18T07:40:04Z</time></trkpt><trkpt lat="42.674705223608164" lon="11.788999283029664"><ele>498.0</ele><time>2026-04-18T07:40:07Z</time></trkpt><trkpt lat="42.674665640076604" lon="11.788898124985609"><ele>498.3333333333333</ele><time>2026-04-18T07:40:10Z</time></trkpt><trkpt lat="42.674636367390285" lon="11.788782603539104"><ele>498.66666666666663</ele><time>2026-04-18T07:40:13Z</time></trkpt><trkpt lat="42.67459984627338" lon="11.788675615757773"><ele>499.0</ele><time>2026-04-18T07:40:16Z</time></trkpt><trkpt lat="42.67457465584908" lon="11.788595351480193"><ele>499.3333333333333</ele><time>2026-04-18T07:40:18Z</time></trkpt><trkpt lat="42.67453627603771" lon="11.78847961419358"><ele>499.66666666666663</ele><time>2026-04-18T07:40:21Z</time></trkpt><trkpt lat="42.67449888906398" lon="11.788357260559609"><ele>500.0</ele><time>2026-04-18T07:40:24Z</time></trkpt><trkpt lat="42.674471998987194" lon="11.788268338970465"><ele>500.99999999999994</ele><time>2026-04-18T07:40:26Z</time></trkpt><trkpt lat="42.674444773303364" lon="11.788180801838767"><ele>502.0</ele><time>2026-04-18T07:40:28Z</time></trkpt><trkpt lat="42.674416763497376" lon="11.788060059896441"><ele>503.0</ele><time>2026-04-18T07:40:31Z</time></trkpt><trkpt lat="42.67439200107146" lon="11.787972469938431"><ele>504.0</ele><time>2026-04-18T07:40:33Z</time></trkpt><trkpt lat="42.67436851787908" lon="11.787883511182962"><ele>504.99999999999994</ele><time>2026-04-18T07:40:35Z</time></trkpt><trkpt lat="42.67434148823777" lon="11.787766388841451"><ele>506.0</ele><time>2026-04-18T07:40:38Z</time></trkpt><trkpt lat="42.674314141411266" lon="11.78768893710964"><ele>506.5</ele><time>2026-04-18T07:40:41Z</time></trkpt><trkpt lat="42.67425074747279" lon="11.787576513482092"><ele>507.0</ele><time>2026-04-18T07:40:45Z</time></trkpt><trkpt lat="42.67419029450225" lon="11.787404029545556"><ele>507.5</ele><time>2026-04-18T07:40:47Z</time></trkpt><trkpt lat="42.674133369717296" lon="11.787312278058174"><ele>508.0</ele><time>2026-04-18T07:40:48Z</time></trkpt><trkpt lat="42.674039369556596" lon="11.787190472239402"><ele>508.0</ele><time>2026-04-18T07:40:49Z</time></trkpt><trkpt lat="42.673930696106616" lon="11.787051150355003"><ele>508.0</ele><time>2026-04-18T07:40:50Z</time></trkpt><trkpt lat="42.67380694246812" lon="11.786906732747228"><ele>508.0</ele><time>2026-04-18T07:40:50.999Z</time></trkpt><trkpt lat="42.67369961858627" lon="11.786783137919324"><ele>507.25</ele><time>2026-04-18T07:40:51.999Z</time></trkpt><trkpt lat="42.67361458911649" lon="11.786649188084972"><ele>506.5</ele><time>2026-04-18T07:40:52.999Z</time></trkpt><trkpt lat="42.673541228536024" lon="11.786502094899179"><ele>505.75</ele><time>2026-04-18T07:40:53.999Z</time></trkpt><trkpt lat="42.67349601080921" lon="11.786325634578475"><ele>505.0</ele><time>2026-04-18T07:40:54.999Z</time></trkpt><trkpt lat="42.673473758683194" lon="11.786116812643664"><ele>504.33333333333337</ele><time>2026-04-18T07:40:55.999Z</time></trkpt><trkpt lat="42.67346730751417" lon="11.78584286717755"><ele>503.66666666666663</ele><time>2026-04-18T07:40:56.999Z</time></trkpt><trkpt lat="42.67345860066604" lon="11.78554765566037"><ele>503.0</ele><time>2026-04-18T07:40:57.999Z</time></trkpt><trkpt lat="42.67345920655451" lon="11.785305732393985"><ele>503.0</ele><time>2026-04-18T07:40:58.999Z</time></trkpt><trkpt lat="42.673461150581666" lon="11.785128861594846"><ele>502.99999999999994</ele><time>2026-04-18T07:40:59.999Z</time></trkpt><trkpt lat="42.67346389923641" lon="11.785013168957393"><ele>502.99999999999994</ele><time>2026-04-18T07:41:00.999Z</time></trkpt><trkpt lat="42.67348166014847" lon="11.784913807320942"><ele>503.0</ele><time>2026-04-18T07:41:02Z</time></trkpt><trkpt lat="42.67352731816551" lon="11.78480981102796"><ele>503.0</ele><time>2026-04-18T07:41:03Z</time></trkpt><trkpt lat="42.673615659215386" lon="11.784697864463462"><ele>503.0</ele><time>2026-04-18T07:41:04Z</time></trkpt><trkpt lat="42.673728746364574" lon="11.784592705800396"><ele>503.0</ele><time>2026-04-18T07:41:05Z</time></trkpt><trkpt lat="42.673857827512556" lon="11.784486548221171"><ele>503.0</ele><time>2026-04-18T07:41:06Z</time></trkpt><trkpt lat="42.673978604545205" lon="11.784371064352582"><ele>503.0</ele><time>2026-04-18T07:41:07Z</time></trkpt><trkpt lat="42.67411137026752" lon="11.784234755168113"><ele>503.0</ele><time>2026-04-18T07:41:08Z</time></trkpt><trkpt lat="42.67421376005793" lon="11.784110819641867"><ele>503.0</ele><time>2026-04-18T07:41:09Z</time></trkpt><trkpt lat="42.674265507296106" lon="11.783999873838791"><ele>503.0</ele><time>2026-04-18T07:41:10Z</time></trkpt><trkpt lat="42.674294810296516" lon="11.783860931830697"><ele>503.0</ele><time>2026-04-18T07:41:11Z</time></trkpt><trkpt lat="42.674305420739394" lon="11.783672683008485"><ele>503.66666666666663</ele><time>2026-04-18T07:41:12Z</time></trkpt><trkpt lat="42.6743148630823" lon="11.783427115811666"><ele>504.33333333333337</ele><time>2026-04-18T07:41:13Z</time></trkpt><trkpt lat="42.674324268812555" lon="11.78316235848763"><ele>505.0</ele><time>2026-04-18T07:41:14Z</time></trkpt><trkpt lat="42.67432777817396" lon="11.782876353316963"><ele>503.5</ele><time>2026-04-18T07:41:15Z</time></trkpt><trkpt lat="42.6743366035166" lon="11.782565847881719"><ele>502.0</ele><time>2026-04-18T07:41:16Z</time></trkpt><trkpt lat="42.67434771554918" lon="11.782232570523618"><ele>502.0</ele><time>2026-04-18T07:41:17Z</time></trkpt><trkpt lat="42.67435509171683" lon="11.781958393344226"><ele>502.0</ele><time>2026-04-18T07:41:18Z</time></trkpt><trkpt lat="42.67436665955586" lon="11.781700352771468"><ele>502.0</ele><time>2026-04-18T07:41:19Z</time></trkpt><trkpt lat="42.67438170436425" lon="11.781406058693937"><ele>502.0</ele><time>2026-04-18T07:41:20Z</time></trkpt><trkpt lat="42.674389991109535" lon="11.781133173816567"><ele>502.0</ele><time>2026-04-18T07:41:21Z</time></trkpt><trkpt lat="42.674394891266836" lon="11.780907361672302"><ele>502.0</ele><time>2026-04-18T07:41:22Z</time></trkpt><trkpt lat="42.67439487832855" lon="11.780709785054576"><ele>502.6666666666667</ele><time>2026-04-18T07:41:23Z</time></trkpt><trkpt lat="42.67438422841137" lon="11.780532931359392"><ele>503.33333333333337</ele><time>2026-04-18T07:41:24Z</time></trkpt><trkpt lat="42.67436066152433" lon="11.780319516345862"><ele>504.0</ele><time>2026-04-18T07:41:25Z</time></trkpt><trkpt lat="42.674322141393645" lon="11.780091463747778"><ele>504.0</ele><time>2026-04-18T07:41:26Z</time></trkpt><trkpt lat="42.67427516626017" lon="11.779870780817001"><ele>504.0</ele><time>2026-04-18T07:41:27Z</time></trkpt><trkpt lat="42.674250424167596" lon="11.779676609376958"><ele>504.0</ele><time>2026-04-18T07:41:28Z</time></trkpt><trkpt lat="42.67425040565468" lon="11.77948848569415"><ele>502.66666666666663</ele><time>2026-04-18T07:41:29Z</time></trkpt><trkpt lat="42.674276780154656" lon="11.779260887434393"><ele>501.3333333333333</ele><time>2026-04-18T07:41:30Z</time></trkpt><trkpt lat="42.6743241188903" lon="11.778981633480715"><ele>500.0</ele><time>2026-04-18T07:41:31Z</time></trkpt><trkpt lat="42.67438292901831" lon="11.778666722136709"><ele>498.5</ele><time>2026-04-18T07:41:32Z</time></trkpt><trkpt lat="42.67445145094495" lon="11.778322560651102"><ele>497.0</ele><time>2026-04-18T07:41:33Z</time></trkpt><trkpt lat="42.67451454686857" lon="11.777963517712903"><ele>496.5</ele><time>2026-04-18T07:41:34Z</time></trkpt><trkpt lat="42.674576452881595" lon="11.777631082161246"><ele>496.0</ele><time>2026-04-18T07:41:35Z</time></trkpt><trkpt lat="42.67463714031253" lon="11.777327922492827"><ele>496.0</ele><time>2026-04-18T07:41:36Z</time></trkpt><trkpt lat="42.67470070436804" lon="11.777032562903056"><ele>496.0</ele><time>2026-04-18T07:41:37Z</time></trkpt><trkpt lat="42.67476130073763" lon="11.776749197740475"><ele>496.0</ele><time>2026-04-18T07:41:38Z</time></trkpt><trkpt lat="42.67482104552555" lon="11.776455446063444"><ele>495.6666666666667</ele><time>2026-04-18T07:41:39Z</time></trkpt><trkpt lat="42.674885253579944" lon="11.77616390301694"><ele>495.33333333333337</ele><time>2026-04-18T07:41:40Z</time></trkpt><trkpt lat="42.67494877748573" lon="11.775900999943007"><ele>495.0</ele><time>2026-04-18T07:41:41Z</time></trkpt><trkpt lat="42.67500412280504" lon="11.775652378343038"><ele>494.75</ele><time>2026-04-18T07:41:42Z</time></trkpt><trkpt lat="42.675046987572266" lon="11.775437933387437"><ele>494.5</ele><time>2026-04-18T07:41:43Z</time></trkpt><trkpt lat="42.67508919528023" lon="11.775254655494859"><ele>494.25</ele><time>2026-04-18T07:41:44Z</time></trkpt><trkpt lat="42.67512051133572" lon="11.775116038484661"><ele>494.0</ele><time>2026-04-18T07:41:45Z</time></trkpt><trkpt lat="42.67514862007739" lon="11.775019862518922"><ele>493.5</ele><time>2026-04-18T07:41:46Z</time></trkpt><trkpt lat="42.67520958884453" lon="11.774925305191195"><ele>493.0</ele><time>2026-04-18T07:41:48Z</time></trkpt><trkpt lat="42.67532947716773" lon="11.774955526156226"><ele>492.5</ele><time>2026-04-18T07:41:50Z</time></trkpt><trkpt lat="42.67544527703669" lon="11.77499892893185"><ele>492.0</ele><time>2026-04-18T07:41:51Z</time></trkpt><trkpt lat="42.675598026287666" lon="11.775048880612061"><ele>491.33333333333337</ele><time>2026-04-18T07:41:52Z</time></trkpt><trkpt lat="42.67578650454785" lon="11.775095110051373"><ele>490.6666666666667</ele><time>2026-04-18T07:41:53Z</time></trkpt><trkpt lat="42.675993998062786" lon="11.775123874327804"><ele>490.0</ele><time>2026-04-18T07:41:54Z</time></trkpt><trkpt lat="42.676210202844985" lon="11.775155652960208"><ele>491.0</ele><time>2026-04-18T07:41:55Z</time></trkpt><trkpt lat="42.67641025909098" lon="11.775190076344764"><ele>492.0</ele><time>2026-04-18T07:41:56Z</time></trkpt><trkpt lat="42.676596633093006" lon="11.775221980889674"><ele>493.0</ele><time>2026-04-18T07:41:57Z</time></trkpt><trkpt lat="42.676814912692656" lon="11.7752593460057"><ele>493.6666666666667</ele><time>2026-04-18T07:41:58Z</time></trkpt><trkpt lat="42.67705076576196" lon="11.775306105436087"><ele>494.33333333333337</ele><time>2026-04-18T07:41:59Z</time></trkpt><trkpt lat="42.67725104432402" lon="11.775346018813146"><ele>495.0</ele><time>2026-04-18T07:42:00Z</time></trkpt><trkpt lat="42.67741559877276" lon="11.775381699694744"><ele>495.0</ele><time>2026-04-18T07:42:01Z</time></trkpt><trkpt lat="42.677553875583264" lon="11.775407446333476"><ele>495.0</ele><time>2026-04-18T07:42:02Z</time></trkpt><trkpt lat="42.67767509269549" lon="11.775428726205801"><ele>495.0</ele><time>2026-04-18T07:42:03Z</time></trkpt><trkpt lat="42.67781951566595" lon="11.775432194590588"><ele>495.0</ele><time>2026-04-18T07:42:04Z</time></trkpt><trkpt lat="42.677943261859895" lon="11.775410028473544"><ele>495.25</ele><time>2026-04-18T07:42:05Z</time></trkpt><trkpt lat="42.678039975734244" lon="11.775353557907007"><ele>495.5</ele><time>2026-04-18T07:42:06Z</time></trkpt><trkpt lat="42.67813497343353" lon="11.775250963667018"><ele>495.75</ele><time>2026-04-18T07:42:07Z</time></trkpt><trkpt lat="42.67823627818082" lon="11.775092906281172"><ele>496.0</ele><time>2026-04-18T07:42:08Z</time></trkpt><trkpt lat="42.67834874493808" lon="11.774884548374144"><ele>496.0</ele><time>2026-04-18T07:42:09Z</time></trkpt><trkpt lat="42.678481092285416" lon="11.774638073345535"><ele>496.0</ele><time>2026-04-18T07:42:10Z</time></trkpt><trkpt lat="42.67860847119468" lon="11.77440831739897"><ele>496.0</ele><time>2026-04-18T07:42:11Z</time></trkpt><trkpt lat="42.67873919689295" lon="11.774189892395114"><ele>495.6666666666667</ele><time>2026-04-18T07:42:12Z</time></trkpt><trkpt lat="42.67887957975537" lon="11.773967178356004"><ele>495.33333333333337</ele><time>2026-04-18T07:42:13Z</time></trkpt><trkpt lat="42.679015499906875" lon="11.773737218988984"><ele>495.0</ele><time>2026-04-18T07:42:14Z</time></trkpt><trkpt lat="42.67916215184016" lon="11.773491021192745"><ele>495.0</ele><time>2026-04-18T07:42:15Z</time></trkpt><trkpt lat="42.679300512214255" lon="11.77326429738057"><ele>495.0</ele><time>2026-04-18T07:42:16Z</time></trkpt><trkpt lat="42.679428277842355" lon="11.773090763587186"><ele>495.0</ele><time>2026-04-18T07:42:17Z</time></trkpt><trkpt lat="42.67956611501572" lon="11.772921174535972"><ele>493.5</ele><time>2026-04-18T07:42:18Z</time></trkpt><trkpt lat="42.67973099860705" lon="11.77274265617434"><ele>492.0</ele><time>2026-04-18T07:42:19Z</time></trkpt><trkpt lat="42.67992433460291" lon="11.77254719036335"><ele>491.5</ele><time>2026-04-18T07:42:20Z</time></trkpt><trkpt lat="42.68013368155288" lon="11.77233550290714"><ele>491.0</ele><time>2026-04-18T07:42:21Z</time></trkpt><trkpt lat="42.68031282323097" lon="11.772154872933434"><ele>490.66666666666663</ele><time>2026-04-18T07:42:22Z</time></trkpt><trkpt lat="42.6804613022658" lon="11.7720024885758"><ele>490.33333333333337</ele><time>2026-04-18T07:42:23Z</time></trkpt><trkpt lat="42.680596929763844" lon="11.771851810375606"><ele>490.0</ele><time>2026-04-18T07:42:24Z</time></trkpt><trkpt lat="42.68072306776543" lon="11.771714335203256"><ele>489.6666666666667</ele><time>2026-04-18T07:42:25Z</time></trkpt><trkpt lat="42.68084302803436" lon="11.77158793198156"><ele>489.33333333333337</ele><time>2026-04-18T07:42:26Z</time></trkpt><trkpt lat="42.680970550496355" lon="11.771459977678646"><ele>489.0</ele><time>2026-04-18T07:42:27Z</time></trkpt><trkpt lat="42.6810971906006" lon="11.771340551277724"><ele>489.0</ele><time>2026-04-18T07:42:28Z</time></trkpt><trkpt lat="42.68120946158462" lon="11.771219275696126"><ele>489.0</ele><time>2026-04-18T07:42:29Z</time></trkpt><trkpt lat="42.68132210149645" lon="11.771079001383066"><ele>489.0</ele><time>2026-04-18T07:42:30Z</time></trkpt><trkpt lat="42.681451147282495" lon="11.770905937348932"><ele>489.0</ele><time>2026-04-18T07:42:31Z</time></trkpt><trkpt lat="42.68157664903533" lon="11.77072036880122"><ele>489.0</ele><time>2026-04-18T07:42:32Z</time></trkpt><trkpt lat="42.68171183110223" lon="11.770528147383711"><ele>489.0</ele><time>2026-04-18T07:42:33Z</time></trkpt><trkpt lat="42.68183154449786" lon="11.770364133717825"><ele>489.0</ele><time>2026-04-18T07:42:34Z</time></trkpt><trkpt lat="42.681952650156795" lon="11.770205938519254"><ele>489.0</ele><time>2026-04-18T07:42:35Z</time></trkpt><trkpt lat="42.68207003814441" lon="11.770045833200736"><ele>489.0</ele><time>2026-04-18T07:42:36Z</time></trkpt><trkpt lat="42.6821789716725" lon="11.76989472145228"><ele>487.75</ele><time>2026-04-18T07:42:37Z</time></trkpt><trkpt lat="42.682285987347036" lon="11.76975050510461"><ele>486.5</ele><time>2026-04-18T07:42:38Z</time></trkpt><trkpt lat="42.6823871857791" lon="11.769617882243596"><ele>485.25</ele><time>2026-04-18T07:42:39Z</time></trkpt><trkpt lat="42.68248171200428" lon="11.769499682573908"><ele>484.0</ele><time>2026-04-18T07:42:40Z</time></trkpt><trkpt lat="42.68256477665543" lon="11.769401292202408"><ele>483.4</ele><time>2026-04-18T07:42:41Z</time></trkpt><trkpt lat="42.68261855316621" lon="11.769335587495018"><ele>482.79999999999995</ele><time>2026-04-18T07:42:42Z</time></trkpt><trkpt lat="42.68263967384633" lon="11.769232017897266"><ele>482.20000000000005</ele><time>2026-04-18T07:42:44Z</time></trkpt><trkpt lat="42.68255545720129" lon="11.769144612870457"><ele>481.6</ele><time>2026-04-18T07:42:47Z</time></trkpt><trkpt lat="42.682457268587235" lon="11.769149633731903"><ele>481.0</ele><time>2026-04-18T07:42:48Z</time></trkpt><trkpt lat="42.68231814164895" lon="11.769155501753158"><ele>481.0</ele><time>2026-04-18T07:42:49Z</time></trkpt><trkpt lat="42.68214646160329" lon="11.769145750469821"><ele>481.0</ele><time>2026-04-18T07:42:50Z</time></trkpt><trkpt lat="42.68192949130208" lon="11.769114240616917"><ele>481.0</ele><time>2026-04-18T07:42:51Z</time></trkpt><trkpt lat="42.68169340501435" lon="11.769054476157832"><ele>480.0</ele><time>2026-04-18T07:42:52Z</time></trkpt><trkpt lat="42.68143587463584" lon="11.768979330699883"><ele>479.0</ele><time>2026-04-18T07:42:53Z</time></trkpt><trkpt lat="42.68117635691117" lon="11.768912173006546"><ele>477.0</ele><time>2026-04-18T07:42:54Z</time></trkpt><trkpt lat="42.68094170684586" lon="11.76885209197571"><ele>475.0</ele><time>2026-04-18T07:42:55.001Z</time></trkpt><trkpt lat="42.68070113236556" lon="11.768804075298224"><ele>475.0</ele><time>2026-04-18T07:42:56.001Z</time></trkpt><trkpt lat="42.680446513781256" lon="11.768783200361698"><ele>475.0</ele><time>2026-04-18T07:42:56.999Z</time></trkpt><trkpt lat="42.68019025661192" lon="11.768775746402785"><ele>474.33333333333337</ele><time>2026-04-18T07:42:57.999Z</time></trkpt><trkpt lat="42.67996722700137" lon="11.768774966404386"><ele>473.66666666666663</ele><time>2026-04-18T07:42:58.999Z</time></trkpt><trkpt lat="42.67975755130631" lon="11.768765682549459"><ele>473.0</ele><time>2026-04-18T07:42:59.999Z</time></trkpt><trkpt lat="42.67956697575192" lon="11.768762859850856"><ele>472.3333333333333</ele><time>2026-04-18T07:43:00.999Z</time></trkpt><trkpt lat="42.679402285262526" lon="11.768758067029973"><ele>471.66666666666663</ele><time>2026-04-18T07:43:01.999Z</time></trkpt><trkpt lat="42.679262145292974" lon="11.76870917365311"><ele>471.0</ele><time>2026-04-18T07:43:02.999Z</time></trkpt><trkpt lat="42.67913430898399" lon="11.76862099761055"><ele>470.33333333333337</ele><time>2026-04-18T07:43:03.999Z</time></trkpt><trkpt lat="42.67900440048646" lon="11.7684803097638"><ele>469.6666666666667</ele><time>2026-04-18T07:43:04.999Z</time></trkpt><trkpt lat="42.67885615495667" lon="11.768305576890555"><ele>469.0</ele><time>2026-04-18T07:43:05.999Z</time></trkpt><trkpt lat="42.678726425959624" lon="11.76815297343041"><ele>469.0</ele><time>2026-04-18T07:43:06.999Z</time></trkpt><trkpt lat="42.678618088881066" lon="11.76803421372152"><ele>469.0</ele><time>2026-04-18T07:43:07.999Z</time></trkpt><trkpt lat="42.67850915606733" lon="11.7679605493288"><ele>469.0</ele><time>2026-04-18T07:43:08.999Z</time></trkpt><trkpt lat="42.67837808867474" lon="11.767944337296669"><ele>469.0</ele><time>2026-04-18T07:43:09.999Z</time></trkpt><trkpt lat="42.678226009031526" lon="11.767991696320584"><ele>469.0</ele><time>2026-04-18T07:43:10.999Z</time></trkpt><trkpt lat="42.67807186391931" lon="11.768076750011717"><ele>469.0</ele><time>2026-04-18T07:43:11.999Z</time></trkpt><trkpt lat="42.67789847271983" lon="11.768187025808288"><ele>469.0</ele><time>2026-04-18T07:43:12.999Z</time></trkpt><trkpt lat="42.677724836191395" lon="11.768254652750048"><ele>468.25</ele><time>2026-04-18T07:43:13.999Z</time></trkpt><trkpt lat="42.677565567034726" lon="11.76828513136994"><ele>467.5</ele><time>2026-04-18T07:43:14.999Z</time></trkpt><trkpt lat="42.67742772133905" lon="11.768340983788104"><ele>466.75</ele><time>2026-04-18T07:43:16Z</time></trkpt><trkpt lat="42.6773218452138" lon="11.768419620627254"><ele>466.0</ele><time>2026-04-18T07:43:17Z</time></trkpt><trkpt lat="42.67723527311675" lon="11.768547850354732"><ele>468.33333333333337</ele><time>2026-04-18T07:43:18Z</time></trkpt><trkpt lat="42.677166988767006" lon="11.768741222840177"><ele>470.66666666666663</ele><time>2026-04-18T07:43:19Z</time></trkpt><trkpt lat="42.67712437562573" lon="11.768965589262834"><ele>473.0</ele><time>2026-04-18T07:43:20Z</time></trkpt><trkpt lat="42.67705048462073" lon="11.769194412286891"><ele>472.0</ele><time>2026-04-18T07:43:21Z</time></trkpt><trkpt lat="42.676987220165266" lon="11.769454134832195"><ele>471.0</ele><time>2026-04-18T07:43:22Z</time></trkpt><trkpt lat="42.676898837527354" lon="11.769704699616694"><ele>470.0</ele><time>2026-04-18T07:43:23Z</time></trkpt><trkpt lat="42.67682609553692" lon="11.769917081630393"><ele>470.0</ele><time>2026-04-18T07:43:24Z</time></trkpt><trkpt lat="42.676757199410915" lon="11.770101057853738"><ele>470.0</ele><time>2026-04-18T07:43:25Z</time></trkpt><trkpt lat="42.676687229720315" lon="11.770266292412842"><ele>470.0</ele><time>2026-04-18T07:43:26Z</time></trkpt><trkpt lat="42.67660341652671" lon="11.770392585240204"><ele>470.0</ele><time>2026-04-18T07:43:27Z</time></trkpt><trkpt lat="42.676510301047266" lon="11.770465884808976"><ele>469.75</ele><time>2026-04-18T07:43:28Z</time></trkpt><trkpt lat="42.67639866785044" lon="11.770498929303598"><ele>469.5</ele><time>2026-04-18T07:43:29Z</time></trkpt><trkpt lat="42.67629344997966" lon="11.770475035158285"><ele>469.25</ele><time>2026-04-18T07:43:30Z</time></trkpt><trkpt lat="42.67618983098035" lon="11.770409015095852"><ele>469.0</ele><time>2026-04-18T07:43:31Z</time></trkpt><trkpt lat="42.67610249921894" lon="11.770295053299934"><ele>469.25</ele><time>2026-04-18T07:43:32Z</time></trkpt><trkpt lat="42.67604702442892" lon="11.77014504173508"><ele>469.5</ele><time>2026-04-18T07:43:33Z</time></trkpt><trkpt lat="42.67604100860031" lon="11.769976429064597"><ele>469.75</ele><time>2026-04-18T07:43:34Z</time></trkpt><trkpt lat="42.67608225101378" lon="11.76980325506505"><ele>470.0</ele><time>2026-04-18T07:43:35Z</time></trkpt><trkpt lat="42.67615788814943" lon="11.769608685654354"><ele>470.0</ele><time>2026-04-18T07:43:36Z</time></trkpt><trkpt lat="42.67625927265007" lon="11.769405816459788"><ele>470.0</ele><time>2026-04-18T07:43:37Z</time></trkpt><trkpt lat="42.67636748361145" lon="11.769180113342458"><ele>470.0</ele><time>2026-04-18T07:43:38Z</time></trkpt><trkpt lat="42.67646917428662" lon="11.768915548802015"><ele>470.0</ele><time>2026-04-18T07:43:39Z</time></trkpt><trkpt lat="42.67656360846765" lon="11.768618094777246"><ele>470.0</ele><time>2026-04-18T07:43:40Z</time></trkpt><trkpt lat="42.67663643043016" lon="11.768359522148767"><ele>470.0</ele><time>2026-04-18T07:43:41Z</time></trkpt><trkpt lat="42.67672057380731" lon="11.768139635396007"><ele>471.75</ele><time>2026-04-18T07:43:42Z</time></trkpt><trkpt lat="42.67678104983609" lon="11.76794842112095"><ele>473.5</ele><time>2026-04-18T07:43:43Z</time></trkpt><trkpt lat="42.6768330201523" lon="11.767771131669887"><ele>475.25</ele><time>2026-04-18T07:43:44Z</time></trkpt><trkpt lat="42.67686636768013" lon="11.767597996362381"><ele>477.0</ele><time>2026-04-18T07:43:45Z</time></trkpt><trkpt lat="42.67685129765394" lon="11.767419555886272"><ele>478.0</ele><time>2026-04-18T07:43:46Z</time></trkpt><trkpt lat="42.67677679382371" lon="11.767255477713316"><ele>479.0</ele><time>2026-04-18T07:43:47Z</time></trkpt><trkpt lat="42.676637884589184" lon="11.767114240777598"><ele>480.0</ele><time>2026-04-18T07:43:48Z</time></trkpt><trkpt lat="42.676463522150506" lon="11.76701990805161"><ele>480.0</ele><time>2026-04-18T07:43:49Z</time></trkpt><trkpt lat="42.676262526034726" lon="11.766958844270409"><ele>480.0</ele><time>2026-04-18T07:43:50Z</time></trkpt><trkpt lat="42.67603299823539" lon="11.76689077960725"><ele>480.0</ele><time>2026-04-18T07:43:51Z</time></trkpt><trkpt lat="42.67582310262886" lon="11.76683437523768"><ele>480.0</ele><time>2026-04-18T07:43:52Z</time></trkpt><trkpt lat="42.675616281278664" lon="11.766764824218992"><ele>480.0</ele><time>2026-04-18T07:43:53Z</time></trkpt><trkpt lat="42.67539815976684" lon="11.7666868077838"><ele>480.0</ele><time>2026-04-18T07:43:54Z</time></trkpt><trkpt lat="42.675194210604175" lon="11.766603860446281"><ele>481.0</ele><time>2026-04-18T07:43:55Z</time></trkpt><trkpt lat="42.67500250522489" lon="11.766504819596378"><ele>482.0</ele><time>2026-04-18T07:43:56Z</time></trkpt><trkpt lat="42.674800683384916" lon="11.766382037356083"><ele>483.0</ele><time>2026-04-18T07:43:57Z</time></trkpt><trkpt lat="42.674576556984164" lon="11.76624345445932"><ele>482.5</ele><time>2026-04-18T07:43:58Z</time></trkpt><trkpt lat="42.67433017637067" lon="11.766092772248784"><ele>482.0</ele><time>2026-04-18T07:43:59Z</time></trkpt><trkpt lat="42.674075366914195" lon="11.76593706759206"><ele>482.0</ele><time>2026-04-18T07:44:00Z</time></trkpt><trkpt lat="42.67383790022681" lon="11.765792854719193"><ele>482.0</ele><time>2026-04-18T07:44:01Z</time></trkpt><trkpt lat="42.67363378665305" lon="11.765664626014052"><ele>479.3333333333333</ele><time>2026-04-18T07:44:02Z</time></trkpt><trkpt lat="42.673454536801586" lon="11.765559676733258"><ele>476.66666666666663</ele><time>2026-04-18T07:44:03Z</time></trkpt><trkpt lat="42.67329991965056" lon="11.765476322621515"><ele>474.0</ele><time>2026-04-18T07:44:04Z</time></trkpt><trkpt lat="42.67313473647345" lon="11.76543657834843"><ele>474.0</ele><time>2026-04-18T07:44:05Z</time></trkpt><trkpt lat="42.67295696556421" lon="11.765460716901115"><ele>474.0</ele><time>2026-04-18T07:44:06Z</time></trkpt><trkpt lat="42.67276005236393" lon="11.765540912009406"><ele>474.0</ele><time>2026-04-18T07:44:07Z</time></trkpt><trkpt lat="42.67255664889029" lon="11.765666179160812"><ele>473.5</ele><time>2026-04-18T07:44:08Z</time></trkpt><trkpt lat="42.6723434829067" lon="11.765787378725832"><ele>473.0</ele><time>2026-04-18T07:44:09Z</time></trkpt><trkpt lat="42.67212225954369" lon="11.765912893470285"><ele>474.3333333333333</ele><time>2026-04-18T07:44:10Z</time></trkpt><trkpt lat="42.671909595281875" lon="11.76603346759126"><ele>475.66666666666663</ele><time>2026-04-18T07:44:11Z</time></trkpt><trkpt lat="42.67174433641667" lon="11.766121256564796"><ele>477.0</ele><time>2026-04-18T07:44:12Z</time></trkpt><trkpt lat="42.67163875318777" lon="11.766170927176772"><ele>477.0</ele><time>2026-04-18T07:44:13Z</time></trkpt><trkpt lat="42.671851915236246" lon="11.766104537811326"><ele>477.0</ele><time>2026-04-18T07:44:19Z</time></trkpt><trkpt lat="42.6719807062305" lon="11.766014995526085"><ele>477.0</ele><time>2026-04-18T07:44:20Z</time></trkpt><trkpt lat="42.67215837042313" lon="11.765919905230746"><ele>475.0</ele><time>2026-04-18T07:44:21Z</time></trkpt><trkpt lat="42.67236427368207" lon="11.765812311243483"><ele>473.0</ele><time>2026-04-18T07:44:22Z</time></trkpt><trkpt lat="42.67258260922971" lon="11.765695015669882"><ele>473.3333333333333</ele><time>2026-04-18T07:44:23Z</time></trkpt><trkpt lat="42.67278246879471" lon="11.765589245094601"><ele>473.66666666666663</ele><time>2026-04-18T07:44:24Z</time></trkpt><trkpt lat="42.67295860776075" lon="11.765502928697813"><ele>474.0</ele><time>2026-04-18T07:44:25Z</time></trkpt><trkpt lat="42.673118530462055" lon="11.765464770369293"><ele>474.0</ele><time>2026-04-18T07:44:26Z</time></trkpt><trkpt lat="42.67327063418676" lon="11.765469463434421"><ele>474.0</ele><time>2026-04-18T07:44:27Z</time></trkpt><trkpt lat="42.67340248769055" lon="11.765521739476984"><ele>474.0</ele><time>2026-04-18T07:44:28Z</time></trkpt><trkpt lat="42.67351271699449" lon="11.765584972557923"><ele>474.0</ele><time>2026-04-18T07:44:29Z</time></trkpt><trkpt lat="42.67358371472828" lon="11.765627726566388"><ele>474.0</ele><time>2026-04-18T07:44:30Z</time></trkpt><trkpt lat="42.67362280079402" lon="11.765560602315187"><ele>474.0</ele><time>2026-04-18T07:44:32Z</time></trkpt><trkpt lat="42.67350208775759" lon="11.765423161531688"><ele>474.0</ele><time>2026-04-18T07:44:34Z</time></trkpt><trkpt lat="42.673367622994576" lon="11.765392571584185"><ele>474.0</ele><time>2026-04-18T07:44:35.001Z</time></trkpt><trkpt lat="42.67323636817028" lon="11.765349323783736"><ele>474.0</ele><time>2026-04-18T07:44:36.001Z</time></trkpt><trkpt lat="42.673109365304654" lon="11.765312411518895"><ele>474.0</ele><time>2026-04-18T07:44:37.001Z</time></trkpt><trkpt lat="42.672961402904924" lon="11.765275160213099"><ele>474.0</ele><time>2026-04-18T07:44:38.001Z</time></trkpt><trkpt lat="42.672808222967085" lon="11.76523707355018"><ele>474.0</ele><time>2026-04-18T07:44:39.001Z</time></trkpt><trkpt lat="42.67265495074225" lon="11.765195862759175"><ele>474.0</ele><time>2026-04-18T07:44:40.001Z</time></trkpt><trkpt lat="42.672520828616754" lon="11.765158504307191"><ele>474.0</ele><time>2026-04-18T07:44:41.001Z</time></trkpt><trkpt lat="42.67240062464964" lon="11.765116256290153"><ele>474.0</ele><time>2026-04-18T07:44:42.001Z</time></trkpt><trkpt lat="42.6722884484125" lon="11.76508167986777"><ele>474.0</ele><time>2026-04-18T07:44:43.001Z</time></trkpt><trkpt lat="42.6721811325075" lon="11.765051948803634"><ele>474.0</ele><time>2026-04-18T07:44:44.001Z</time></trkpt><trkpt lat="42.67207721577397" lon="11.765023729826964"><ele>474.0</ele><time>2026-04-18T07:44:45.001Z</time></trkpt><trkpt lat="42.67198041140748" lon="11.76498030174811"><ele>474.0</ele><time>2026-04-18T07:44:46.001Z</time></trkpt><trkpt lat="42.671892205189124" lon="11.764907616318736"><ele>474.0</ele><time>2026-04-18T07:44:47.001Z</time></trkpt><trkpt lat="42.67180399403347" lon="11.764840356880228"><ele>474.0</ele><time>2026-04-18T07:44:48.001Z</time></trkpt><trkpt lat="42.671717856310174" lon="11.76477115291284"><ele>475.2</ele><time>2026-04-18T07:44:49.001Z</time></trkpt><trkpt lat="42.67162727768202" lon="11.764696943520766"><ele>476.4</ele><time>2026-04-18T07:44:50.001Z</time></trkpt><trkpt lat="42.67153110448019" lon="11.764623975170112"><ele>477.6</ele><time>2026-04-18T07:44:51.001Z</time></trkpt><trkpt lat="42.671434214753496" lon="11.76455086682129"><ele>478.8</ele><time>2026-04-18T07:44:52.001Z</time></trkpt><trkpt lat="42.67133766468037" lon="11.764481604735847"><ele>480.0</ele><time>2026-04-18T07:44:53.001Z</time></trkpt><trkpt lat="42.67124939477001" lon="11.764407710636535"><ele>480.4</ele><time>2026-04-18T07:44:54.001Z</time></trkpt><trkpt lat="42.67116801874761" lon="11.76433647063949"><ele>480.8</ele><time>2026-04-18T07:44:55.001Z</time></trkpt><trkpt lat="42.67108060179654" lon="11.76427001394289"><ele>481.20000000000005</ele><time>2026-04-18T07:44:56.001Z</time></trkpt><trkpt lat="42.67099513357735" lon="11.764218900378825"><ele>481.6</ele><time>2026-04-18T07:44:57.001Z</time></trkpt><trkpt lat="42.67090453917015" lon="11.764180737367715"><ele>482.0</ele><time>2026-04-18T07:44:58.001Z</time></trkpt><trkpt lat="42.67081439233438" lon="11.764148863470165"><ele>482.3333333333333</ele><time>2026-04-18T07:44:59.001Z</time></trkpt><trkpt lat="42.67073102900082" lon="11.76411917791719"><ele>482.66666666666663</ele><time>2026-04-18T07:45:00.001Z</time></trkpt><trkpt lat="42.67065349658518" lon="11.764093309687926"><ele>483.0</ele><time>2026-04-18T07:45:01.001Z</time></trkpt><trkpt lat="42.67056786083574" lon="11.764073815358461"><ele>483.33333333333337</ele><time>2026-04-18T07:45:02.001Z</time></trkpt><trkpt lat="42.670481025548575" lon="11.764063056351846"><ele>483.6666666666667</ele><time>2026-04-18T07:45:03Z</time></trkpt><trkpt lat="42.67039819589478" lon="11.764061254251754"><ele>484.0</ele><time>2026-04-18T07:45:04Z</time></trkpt><trkpt lat="42.67031559101143" lon="11.76405791493979"><ele>484.1666666666667</ele><time>2026-04-18T07:45:05Z</time></trkpt><trkpt lat="42.670237518031044" lon="11.764041521706815"><ele>484.33333333333337</ele><time>2026-04-18T07:45:06Z</time></trkpt><trkpt lat="42.670169476143684" lon="11.764000981881903"><ele>484.5</ele><time>2026-04-18T07:45:07Z</time></trkpt><trkpt lat="42.67008720805038" lon="11.763968342577472"><ele>484.66666666666663</ele><time>2026-04-18T07:45:08Z</time></trkpt><trkpt lat="42.67000689466907" lon="11.763943702170328"><ele>484.8333333333333</ele><time>2026-04-18T07:45:09Z</time></trkpt><trkpt lat="42.66992059908246" lon="11.76391176688473"><ele>485.0</ele><time>2026-04-18T07:45:10Z</time></trkpt><trkpt lat="42.66983193950719" lon="11.763874344216068"><ele>484.99999999999994</ele><time>2026-04-18T07:45:11Z</time></trkpt><trkpt lat="42.669741909607914" lon="11.763833512281344"><ele>485.0</ele><time>2026-04-18T07:45:12Z</time></trkpt><trkpt lat="42.66964406876958" lon="11.763789079074188"><ele>485.0</ele><time>2026-04-18T07:45:13Z</time></trkpt><trkpt lat="42.66956362715418" lon="11.763740563340695"><ele>485.0</ele><time>2026-04-18T07:45:14Z</time></trkpt><trkpt lat="42.66948495513565" lon="11.763702673849442"><ele>484.99999999999994</ele><time>2026-04-18T07:45:15Z</time></trkpt><trkpt lat="42.66941423519921" lon="11.763674710721796"><ele>485.0</ele><time>2026-04-18T07:45:16Z</time></trkpt><trkpt lat="42.669347269842845" lon="11.763663734465815"><ele>484.3333333333333</ele><time>2026-04-18T07:45:17Z</time></trkpt><trkpt lat="42.66927398035728" lon="11.763662316235347"><ele>483.66666666666663</ele><time>2026-04-18T07:45:18Z</time></trkpt><trkpt lat="42.669208373785544" lon="11.763665373756528"><ele>483.0</ele><time>2026-04-18T07:45:19Z</time></trkpt><trkpt lat="42.66910202200266" lon="11.763640487218469"><ele>482.33333333333337</ele><time>2026-04-18T07:45:21Z</time></trkpt><trkpt lat="42.6690302995757" lon="11.76366446686999"><ele>481.6666666666667</ele><time>2026-04-18T07:45:24Z</time></trkpt><trkpt lat="42.66896465987576" lon="11.763668219818145"><ele>481.0</ele><time>2026-04-18T07:45:28Z</time></trkpt><trkpt lat="42.66903190054183" lon="11.7635458275217"><ele>480.1428571428571</ele><time>2026-04-18T07:46:05Z</time></trkpt><trkpt lat="42.66909737423863" lon="11.763524641302212"><ele>479.2857142857143</ele><time>2026-04-18T07:46:17.001Z</time></trkpt><trkpt lat="42.66907467504653" lon="11.763442083331341"><ele>478.42857142857144</ele><time>2026-04-18T07:48:40.001Z</time></trkpt><trkpt lat="42.66906566474807" lon="11.763528147605292"><ele>477.57142857142856</ele><time>2026-04-18T07:52:59.001Z</time></trkpt><trkpt lat="42.66909846482613" lon="11.763431937448546"><ele>476.7142857142858</ele><time>2026-04-18T07:54:31Z</time></trkpt><trkpt lat="42.66904142806673" lon="11.763384550728242"><ele>475.8571428571429</ele><time>2026-04-18T07:54:36.001Z</time></trkpt><trkpt lat="42.669131633952354" lon="11.763385764399816"><ele>475.0</ele><time>2026-04-18T07:55:34Z</time></trkpt><trkpt lat="42.668772383941466" lon="11.763284988968076"><ele>475.0</ele><time>2026-04-18T08:03:33.012Z</time></trkpt><trkpt lat="42.66870130095759" lon="11.763248907864384"><ele>475.0</ele><time>2026-04-18T08:03:34.019Z</time></trkpt><trkpt lat="42.66863177639493" lon="11.76321337987101"><ele>475.0</ele><time>2026-04-18T08:03:36.013Z</time></trkpt></trkseg></trk></gpx>